[[{"header":{"parameterUnit":"m.s-1","parameterCategory":1,"la1":30.6,"la2":28.766,"lo1":-90.7593,"lo2":-88.6598,"dy":0.0162,"dx":0.0183,"nx":116,"ny":114,"refTime":"2024-05-02T00:00:00:Z","depth":0,"parameterNumber":2,"parameterNumberName":"U-component_of_WINDS"},"data":[0.0,0.0,0.0,0.0,0.0,0.0,0.0,0.0,0.0,0.0,0.0,0.0,0.0,0.0,0.0,0.0,0.0,0.0,0.0,0.0,0.0,0.0,0.0,0.0,0.0,0.0,0.0,0.0,0.0,0.0,0.0,0.0,0.0,0.0,0.0,0.0,0.0,0.0,0.0,0.0,0.0,0.0,0.0,0.0,0.0,0.0,0.0,0.0,0.0,0.0,0.0,0.0,0.0,0.0,0.0,0.0,0.0,0.0,0.0,0.0,0.0,0.0,0.0,0.0,0.0,0.0,0.0,0.0,0.0,0.0,0.0,0.0,0.0,0.0,0.0,0.0,0.0,0.0,0.0,0.0,0.0,0.0,0.0,0.0,0.0,0.0,0.0,0.0,0.0,0.0,0.0,0.0,0.0,0.0,0.0,0.0,0.0,0.0,0.0,0.0,0.0,0.0,0.0,0.0,0.0,0.0,0.0,0.0,0.0,0.0,0.0,0.0,0.0,0.0,0.0,0.0,0.0,0.0,0.0,0.0,0.0,0.0,0.0,0.0,0.0,0.0,0.0,0.0,0.0,0.0,0.0,0.0,0.0,0.0,0.0,0.0,0.0,0.0,0.0,0.0,0.0,0.0,0.0,0.0,0.0,0.0,0.0,0.0,0.0,0.0,0.0,0.0,0.0,0.0,0.0,0.0,0.0,0.0,0.0,0.0,0.0,0.0,0.0,0.0,0.0,0.0,0.0,0.0,0.0,0.0,0.0,0.0,0.0,0.0,0.0,0.0,0.0,0.0,0.0,0.0,0.0,0.0,0.0,0.0,0.0,0.0,0.0,0.0,0.0,0.0,0.0,0.0,0.0,0.0,0.0,0.0,0.0,0.0,0.0,0.0,0.0,0.0,0.0,0.0,0.0,0.0,0.0,0.0,0.0,0.0,0.0,0.0,0.0,0.0,0.0,0.0,0.0,0.0,0.0,0.0,0.0,0.0,0.0,0.0,0.0,0.0,0.0,0.0,0.0,0.0,0.0,0.0,0.0,0.0,0.0,0.0,0.0,0.0,0.0,0.0,0.0,0.0,0.0,0.0,0.0,0.0,0.0,0.0,0.0,0.0,0.0,0.0,0.0,0.0,0.0,0.0,0.0,0.0,0.0,0.0,0.0,0.0,0.0,0.0,0.0,0.0,0.0,0.0,0.0,0.0,0.0,0.0,0.0,0.0,0.0,0.0,0.0,0.0,0.0,0.0,0.0,0.0,0.0,0.0,0.0,0.0,0.0,0.0,0.0,0.0,0.0,0.0,0.0,0.0,0.0,0.0,0.0,0.0,0.0,0.0,0.0,0.0,0.0,0.0,0.0,0.0,0.0,0.0,0.0,0.0,0.0,0.0,0.0,0.0,0.0,0.0,0.0,0.0,0.0,0.0,0.0,0.0,0.0,0.0,0.0,0.0,0.0,0.0,0.0,0.0,0.0,0.0,0.0,0.0,0.0,0.0,0.0,0.0,0.0,0.0,0.0,0.0,0.0,0.0,0.0,0.0,0.0,0.0,0.0,0.0,0.0,0.0,0.0,0.0,0.0,0.0,0.0,0.0,0.0,0.0,0.0,0.0,0.0,0.0,0.0,0.0,0.0,0.0,0.0,0.0,0.0,0.0,0.0,0.0,0.0,0.0,0.0,0.0,0.0,0.0,0.0,0.0,0.0,0.0,0.0,0.0,0.0,0.0,0.0,0.0,0.0,0.0,0.0,0.0,0.0,0.0,0.0,0.0,0.0,0.0,0.0,0.0,0.0,0.0,0.0,0.0,0.0,0.0,0.0,0.0,0.0,0.0,0.0,0.0,0.0,0.0,0.0,0.0,0.0,0.0,0.0,0.0,0.0,0.0,0.0,0.0,0.0,0.0,0.0,0.0,0.0,0.0,0.0,0.0,0.0,0.0,0.0,0.0,0.0,0.0,0.0,0.0,0.0,0.0,0.0,0.0,0.0,0.0,0.0,0.0,0.0,0.0,0.0,0.0,0.0,0.0,0.0,0.0,0.0,0.0,0.0,0.0,0.0,0.0,0.0,0.0,0.0,0.0,0.0,0.0,0.0,0.0,0.0,0.0,0.0,0.0,0.0,0.0,0.0,0.0,0.0,0.0,0.0,0.0,0.0,0.0,0.0,0.0,0.0,0.0,0.0,0.0,0.0,0.0,0.0,0.0,0.0,0.0,0.0,0.0,0.0,0.0,0.0,0.0,0.0,0.0,0.0,0.0,0.0,0.0,0.0,0.0,0.0,0.0,0.0,0.0,0.0,0.0,0.0,0.0,0.0,0.0,0.0,0.0,0.0,0.0,0.0,0.0,0.0,0.0,0.0,0.0,0.0,0.0,0.0,0.0,0.0,0.0,0.0,0.0,0.0,0.0,0.0,0.0,0.0,0.0,0.0,0.0,0.0,0.0,0.0,0.0,0.0,0.0,0.0,0.0,0.0,0.0,0.0,0.0,0.0,0.0,0.0,0.0,0.0,0.0,0.0,0.0,0.0,0.0,0.0,0.0,0.0,0.0,0.0,0.0,0.0,0.0,0.0,0.0,0.0,0.0,0.0,0.0,0.0,0.0,0.0,0.0,0.0,0.0,0.0,0.0,0.0,0.0,0.0,0.0,0.0,0.0,0.0,0.0,0.0,0.0,0.0,0.0,0.0,0.0,0.0,0.0,0.0,0.0,0.0,0.0,0.0,0.0,0.0,0.0,0.0,0.0,0.0,0.0,0.0,0.0,0.0,0.0,0.0,0.0,0.0,0.0,0.0,0.0,0.0,0.0,0.0,0.0,0.0,0.0,0.0,0.0,0.0,0.0,0.0,0.0,0.0,0.0,0.0,0.0,0.0,0.0,0.0,0.0,0.0,0.0,0.0,0.0,0.0,0.0,0.0,0.0,0.0,0.0,0.0,0.0,0.0,0.0,0.0,0.0,0.0,0.0,0.0,0.0,0.0,0.0,0.0,0.0,0.0,0.0,0.0,0.0,0.0,0.0,0.0,0.0,0.0,0.0,0.0,0.0,0.0,0.0,0.0,0.0,0.0,0.0,0.0,0.0,0.0,0.0,0.0,0.0,0.0,0.0,0.0,0.0,0.0,0.0,0.0,0.0,0.0,0.0,0.0,0.0,0.0,0.0,0.0,0.0,0.0,0.0,0.0,0.0,0.0,0.0,0.0,0.0,0.0,0.0,0.0,0.0,0.0,0.0,0.0,0.0,0.0,0.0,0.0,0.0,0.0,0.0,0.0,0.0,0.0,0.0,0.0,0.0,0.0,0.0,0.0,0.0,0.0,0.0,0.0,0.0,0.0,0.0,0.0,0.0,0.0,0.0,0.0,0.0,0.0,0.0,0.0,0.0,0.0,0.0,0.0,0.0,0.0,0.0,0.0,0.0,0.0,0.0,0.0,0.0,0.0,0.0,0.0,0.0,0.0,0.0,0.0,0.0,0.0,0.0,0.0,0.0,0.0,0.0,0.0,0.0,0.0,0.0,0.0,0.0,0.0,0.0,0.0,0.0,0.0,0.0,0.0,0.0,0.0,0.0,0.0,0.0,0.0,0.0,0.0,0.0,0.0,0.0,0.0,0.0,0.0,0.0,0.0,0.0,0.0,0.0,0.0,0.0,0.0,0.0,0.0,0.0,0.0,0.0,0.0,0.0,0.0,0.0,0.0,0.0,0.0,0.0,0.0,0.0,0.0,0.0,0.0,0.0,0.0,0.0,0.0,0.0,0.0,0.0,0.0,0.0,0.0,0.0,0.0,0.0,0.0,0.0,0.0,0.0,0.0,0.0,0.0,0.0,0.0,0.0,0.0,0.0,0.0,0.0,0.0,0.0,0.0,0.0,0.0,0.0,0.0,0.0,0.0,0.0,0.0,0.0,0.0,0.0,0.0,0.0,0.0,0.0,0.0,0.0,0.0,0.0,0.0,0.0,0.0,0.0,0.0,0.0,0.0,0.0,0.0,0.0,0.0,0.0,0.0,0.0,0.0,0.0,0.0,0.0,0.0,0.0,0.0,0.0,0.0,0.0,0.0,0.0,0.0,0.0,0.0,0.0,0.0,0.0,0.0,0.0,0.0,0.0,0.0,0.0,0.0,0.0,0.0,0.0,0.0,0.0,0.0,0.0,0.0,0.0,0.0,0.0,0.0,0.0,0.0,0.0,0.0,0.0,0.0,0.0,0.0,0.0,0.0,0.0,0.0,0.0,0.0,0.0,0.0,0.0,0.0,0.0,0.0,0.0,0.0,0.0,0.0,0.0,0.0,0.0,0.0,0.0,0.0,0.0,0.0,0.0,0.0,0.0,0.0,0.0,0.0,0.0,0.0,0.0,0.0,0.0,0.0,0.0,0.0,0.0,0.0,0.0,0.0,0.0,0.0,0.0,0.0,0.0,0.0,0.0,0.0,0.0,0.0,0.0,0.0,0.0,0.0,0.0,0.0,0.0,0.0,0.0,0.0,0.0,0.0,0.0,0.0,0.0,0.0,0.0,0.0,0.0,0.0,0.0,0.0,0.0,0.0,0.0,0.0,0.0,0.0,0.0,0.0,0.0,0.0,0.0,0.0,0.0,0.0,0.0,0.0,0.0,0.0,0.0,0.0,0.0,0.0,0.0,0.0,0.0,0.0,0.0,0.0,0.0,0.0,0.0,0.0,0.0,0.0,0.0,0.0,0.0,0.0,0.0,0.0,0.0,0.0,0.0,0.0,0.0,0.0,0.0,0.0,0.0,0.0,0.0,0.0,0.0,0.0,0.0,0.0,0.0,0.0,0.0,0.0,0.0,0.0,0.0,0.0,0.0,0.0,0.0,0.0,0.0,0.0,0.0,0.0,0.0,0.0,0.0,0.0,0.0,0.0,0.0,0.0,0.0,0.0,0.0,0.0,0.0,0.0,0.0,0.0,0.0,0.0,0.0,0.0,0.0,0.0,0.0,0.0,0.0,0.0,0.0,0.0,0.0,0.0,0.0,0.0,0.0,0.0,0.0,0.0,0.0,0.0,0.0,0.0,0.0,0.0,0.0,0.0,0.0,0.0,0.0,0.0,0.0,0.0,0.0,0.0,0.0,0.0,0.0,0.0,0.0,0.0,0.0,0.0,0.0,0.0,0.0,0.0,0.0,0.0,0.0,0.0,0.0,0.0,0.0,0.0,0.0,0.0,0.0,0.0,0.0,0.0,0.0,0.0,0.0,0.0,0.0,0.0,0.0,0.0,0.0,0.0,0.0,0.0,0.0,0.0,0.0,0.0,0.0,0.0,0.0,0.0,0.0,0.0,0.0,0.0,0.0,0.0,0.0,0.0,0.0,0.0,0.0,0.0,0.0,0.0,0.0,0.0,0.0,0.0,0.0,0.0,0.0,0.0,0.0,0.0,0.0,0.0,0.0,0.0,0.0,0.0,0.0,0.0,0.0,0.0,0.0,0.0,0.0,0.0,0.0,0.0,0.0,0.0,0.0,0.0,0.0,0.0,0.0,0.0,0.0,0.0,0.0,0.0,0.0,0.0,0.0,0.0,0.0,0.0,0.0,0.0,0.0,0.0,0.0,0.0,0.0,0.0,0.0,0.0,0.0,0.0,0.0,0.0,0.0,0.0,0.0,0.0,0.0,0.0,0.0,0.0,0.0,0.0,0.0,0.0,0.0,0.0,0.0,0.0,0.0,0.0,0.0,0.0,0.0,0.0,0.0,0.0,0.0,0.0,0.0,0.0,0.0,0.0,0.0,0.0,0.0,0.0,0.0,0.0,0.0,0.0,0.0,0.0,0.0,0.0,0.0,0.0,0.0,0.0,0.0,0.0,0.0,0.0,0.0,0.0,0.0,0.0,0.0,0.0,0.0,0.0,0.0,0.0,0.0,0.0,0.0,0.0,0.0,0.0,0.0,0.0,0.0,0.0,0.0,0.0,0.0,0.0,0.0,0.0,0.0,0.0,0.0,0.0,0.0,0.0,0.0,0.0,0.0,0.0,0.0,0.0,0.0,0.0,0.0,0.0,0.0,0.0,0.0,0.0,0.0,0.0,0.0,0.0,0.0,0.0,0.0,0.0,0.0,0.0,0.0,0.0,0.0,0.0,0.0,0.0,0.0,0.0,0.0,-4.7735,0.0,0.0,0.0,0.0,0.0,0.0,0.0,0.0,0.0,0.0,0.0,0.0,0.0,0.0,0.0,0.0,0.0,0.0,0.0,0.0,0.0,0.0,0.0,0.0,-3.7686,-3.8231,-3.9059,-3.9725,-3.9969,-3.9696,0.0,0.0,0.0,0.0,0.0,-3.6531,-3.6415,-3.6415,-3.6514,-3.7194,-3.8105,-3.9226,-3.9578,-4.0005,-4.0464,0.0,0.0,0.0,0.0,0.0,0.0,0.0,0.0,0.0,0.0,0.0,0.0,0.0,0.0,0.0,0.0,0.0,0.0,0.0,0.0,0.0,0.0,0.0,0.0,0.0,0.0,0.0,0.0,0.0,0.0,0.0,0.0,0.0,0.0,0.0,0.0,0.0,0.0,0.0,0.0,0.0,0.0,0.0,0.0,0.0,0.0,0.0,0.0,0.0,0.0,0.0,0.0,0.0,0.0,0.0,0.0,0.0,0.0,0.0,0.0,0.0,0.0,0.0,0.0,0.0,0.0,0.0,0.0,0.0,0.0,0.0,-4.8774,0.0,0.0,0.0,0.0,0.0,0.0,0.0,0.0,0.0,0.0,0.0,0.0,0.0,0.0,0.0,0.0,0.0,0.0,0.0,0.0,0.0,-3.5846,-3.6653,-3.7285,-3.7753,-3.8012,-3.9051,-3.9497,-3.9001,-3.8842,0.0,0.0,-3.7161,-3.6244,-3.5146,-3.6082,-3.6163,-3.5297,-3.7386,-3.8387,-3.8387,-3.8529,-3.8788,-3.9176,-3.9193,0.0,0.0,0.0,0.0,0.0,0.0,0.0,0.0,0.0,0.0,0.0,0.0,0.0,0.0,0.0,0.0,0.0,0.0,0.0,0.0,0.0,0.0,0.0,0.0,0.0,0.0,0.0,0.0,0.0,0.0,0.0,0.0,0.0,0.0,0.0,0.0,0.0,0.0,0.0,0.0,0.0,0.0,0.0,0.0,0.0,0.0,0.0,0.0,0.0,0.0,0.0,0.0,0.0,0.0,0.0,0.0,0.0,0.0,0.0,0.0,0.0,0.0,0.0,-5.1825,-5.2307,-5.3014,-5.2345,-5.2401,-5.3014,-5.2539,-5.1969,-5.1252,-4.9719,0.0,0.0,0.0,0.0,0.0,0.0,0.0,0.0,0.0,0.0,0.0,0.0,0.0,0.0,0.0,0.0,0.0,0.0,0.0,-3.5635,-3.6461,-3.664,-3.6996,-3.7749,-3.7987,-3.8064,-3.7994,-3.7456,-3.7081,-3.6985,-3.5717,-3.5214,-3.5604,-3.4595,-3.4867,-3.6462,-3.7982,-3.8718,-3.8734,-3.9432,-3.9822,-3.9855,-3.9413,-3.9565,-4.0167,0.0,0.0,0.0,0.0,0.0,0.0,0.0,0.0,0.0,0.0,0.0,0.0,0.0,0.0,0.0,0.0,0.0,0.0,0.0,0.0,0.0,0.0,0.0,0.0,0.0,0.0,0.0,0.0,0.0,0.0,0.0,0.0,0.0,0.0,0.0,0.0,0.0,0.0,0.0,0.0,0.0,-4.9436,-5.0898,0.0,0.0,0.0,0.0,0.0,0.0,0.0,0.0,0.0,0.0,0.0,0.0,0.0,-4.9535,-5.0445,-5.1703,-5.2499,-5.2782,-5.3895,-5.4675,-5.511,-5.4978,-5.5191,-5.5649,-5.6252,0.0,-5.1166,-5.0232,0.0,0.0,0.0,0.0,0.0,0.0,0.0,0.0,0.0,0.0,0.0,0.0,0.0,0.0,0.0,0.0,0.0,0.0,0.0,0.0,0.0,-3.5829,-3.6247,-3.669,-3.7746,-3.8062,-3.7356,-3.7373,-3.7261,-3.6866,-3.5949,-3.54,-3.5307,-3.506,-3.5588,-3.6862,-3.7499,-3.7949,-3.8306,-3.8665,-3.8805,-3.8806,-3.8944,-3.925,-3.9715,-3.9671,0.0,0.0,0.0,0.0,0.0,0.0,0.0,0.0,0.0,0.0,0.0,0.0,0.0,0.0,0.0,0.0,0.0,0.0,0.0,0.0,0.0,0.0,0.0,0.0,0.0,0.0,0.0,0.0,0.0,0.0,0.0,0.0,0.0,0.0,0.0,0.0,0.0,0.0,0.0,-4.7259,-4.8833,-4.9258,-4.9845,-4.9426,0.0,0.0,0.0,0.0,0.0,0.0,0.0,0.0,0.0,-5.1002,-5.1447,-5.2091,-5.3053,-5.4446,-5.4985,-5.4696,-5.5728,-5.6297,-5.6454,-5.6454,-5.6554,-5.674,-5.7093,-5.5737,-5.3234,-5.2417,-5.128,-4.9863,0.0,0.0,0.0,0.0,-4.5486,-4.5242,0.0,0.0,0.0,0.0,0.0,0.0,0.0,0.0,0.0,0.0,0.0,0.0,-3.4471,-3.5193,-3.5713,-3.6043,-3.7388,-3.7825,-3.6878,-3.6786,-3.6538,-3.6044,-3.5263,-3.4712,-3.4379,-3.5332,-3.6118,-3.6632,-3.7098,-3.7491,-3.7793,-3.7994,-3.8103,-3.8118,-3.8644,-3.9078,-3.948,-3.9259,-3.8943,-3.851,0.0,0.0,0.0,0.0,0.0,0.0,0.0,0.0,0.0,0.0,0.0,0.0,0.0,0.0,0.0,0.0,0.0,0.0,0.0,0.0,0.0,0.0,0.0,0.0,0.0,0.0,0.0,0.0,0.0,0.0,0.0,0.0,0.0,0.0,0.0,0.0,0.0,-4.8318,-4.9326,-4.8573,-5.0476,-5.0482,0.0,0.0,0.0,0.0,0.0,0.0,-5.219,-5.2208,-5.277,-5.3965,-5.4599,-5.5287,-5.6102,-5.7043,-5.7206,-5.6609,-5.7007,-5.7188,-5.7188,-5.7188,-5.708,-5.688,-5.688,-5.6138,-5.4828,-5.4044,-5.3044,-5.1732,-4.886,-4.7316,-4.6657,-4.6387,-4.5906,-4.5607,0.0,0.0,0.0,0.0,0.0,0.0,0.0,0.0,0.0,0.0,0.0,-3.3469,-3.4239,-3.4922,-3.563,-3.64,-3.6565,-3.6595,-3.6532,-3.4761,-3.3711,-3.3681,-3.2422,-3.2003,-3.2602,-3.4548,-3.5552,-3.5597,-3.7424,-3.8023,-3.7454,-3.8271,-3.8641,-3.8676,-3.8868,-3.9333,-3.9906,-3.9165,-3.9198,-3.964,-3.7578,0.0,0.0,0.0,0.0,0.0,0.0,0.0,0.0,0.0,0.0,0.0,0.0,0.0,0.0,0.0,0.0,0.0,0.0,0.0,0.0,0.0,0.0,0.0,0.0,0.0,0.0,0.0,0.0,0.0,0.0,0.0,0.0,0.0,0.0,0.0,0.0,0.0,0.0,-5.1087,-5.3925,0.0,0.0,0.0,0.0,-5.0282,-5.0998,-5.2433,-5.4611,-5.4725,-5.5758,-5.8039,-5.8148,-5.8546,-5.9361,-5.8691,-5.8329,-5.8275,-5.755,-5.7188,-5.7188,-5.7188,-5.6772,-5.6047,-5.6047,-5.5613,-5.4834,-5.403,-5.2502,-5.0541,-4.8837,-4.7868,-4.7355,-4.6574,-4.6259,-4.624,0.0,0.0,0.0,0.0,0.0,-3.1748,-3.1625,-3.0571,-3.022,-3.1524,-3.1551,-3.1896,-3.3033,-3.4137,-3.4904,-3.5177,-3.5983,-3.6034,-3.4942,-3.4694,-3.431,-3.374,-3.2817,-3.2482,-3.2758,-3.3825,-3.4501,-3.4675,-3.5734,-3.6173,-3.6014,-3.6775,-3.7155,-3.7175,-3.7714,-3.8575,-3.9595,-3.9121,-3.8823,-3.8543,-3.7773,-3.7617,0.0,0.0,0.0,0.0,0.0,0.0,0.0,0.0,0.0,0.0,0.0,0.0,0.0,0.0,0.0,0.0,0.0,0.0,0.0,0.0,0.0,0.0,0.0,0.0,0.0,0.0,0.0,0.0,0.0,0.0,0.0,0.0,0.0,0.0,0.0,0.0,0.0,-5.2776,-5.5283,0.0,-5.2169,-5.3055,-5.3777,-5.3472,-5.4215,-5.5426,-5.72,-5.7281,-5.8116,-5.9878,-5.9941,-5.9832,-5.9615,-5.9325,-5.8655,-5.7623,-5.7333,-5.6935,-5.6446,-5.6953,-5.6432,-5.5189,-5.5751,-5.5171,-5.385,-5.3658,-5.3191,-5.2377,-5.0253,-4.899,-4.8309,-4.7507,-4.6867,-4.6502,0.0,0.0,0.0,-3.1543,-3.099,-3.0651,-3.0357,-2.9243,-2.8966,-3.0578,-3.0832,-3.1256,-3.2318,-3.3416,-3.4029,-3.3997,-3.4754,-3.4704,-3.3366,-3.3576,-3.334,-3.2557,-3.2032,-3.2083,-3.2735,-3.3165,-3.369,-3.4276,-3.4724,-3.4859,-3.4694,-3.5167,-3.5397,-3.5397,-3.6162,-3.7126,-3.8238,-3.8799,-3.8927,-3.8688,-3.826,-3.8195,-3.8232,0.0,0.0,0.0,0.0,0.0,0.0,0.0,0.0,0.0,0.0,0.0,0.0,0.0,0.0,0.0,0.0,0.0,0.0,0.0,0.0,0.0,0.0,0.0,0.0,0.0,0.0,0.0,0.0,0.0,0.0,0.0,0.0,0.0,0.0,0.0,-5.4767,-5.3551,-5.6642,-5.7551,-5.4286,-5.5161,-5.5949,-5.5942,-5.6376,-5.7213,-5.8413,-5.8708,-5.9337,-6.03,-6.0313,-6.0039,-5.9499,-5.9213,-5.8398,-5.7061,-5.679,-5.6248,-5.5507,-5.605,-5.553,-5.4247,-5.485,-5.4253,-5.2899,-5.2972,-5.3087,-5.296,-5.081,-4.9653,-4.9035,-4.7951,-4.7229,-4.6813,0.0,-3.2453,-3.1756,-3.0935,-3.015,-2.9355,-2.8697,-2.8577,-2.8816,-2.9517,-3.0703,-3.1677,-3.2198,-3.2849,-3.3153,-3.2968,-3.2862,-3.2527,-3.1903,-3.1191,-3.0535,-2.9988,-2.989,-3.0657,-3.2393,-3.2492,-3.3115,-3.4272,-3.4426,-3.4136,-3.3514,-3.35,-3.3536,-3.3578,-3.4372,-3.5101,-3.5941,-3.8088,-3.9522,-4.027,-3.899,-3.8841,-3.9215,0.0,0.0,0.0,0.0,0.0,0.0,0.0,0.0,0.0,0.0,0.0,0.0,0.0,0.0,0.0,0.0,0.0,0.0,0.0,0.0,0.0,0.0,0.0,0.0,0.0,0.0,0.0,0.0,0.0,0.0,0.0,0.0,0.0,-5.1011,-5.4149,-5.5802,-5.3683,-5.8089,-5.9857,-5.6205,-5.6973,-5.7645,-5.7466,-5.7329,-5.7535,-5.8203,-5.8961,-5.936,-5.9375,-5.9302,-5.9239,-5.9216,-5.8323,-5.7523,-5.6714,-5.5923,-5.5176,-5.4464,-5.4475,-5.4044,-5.3253,-5.3288,-5.2839,-5.2102,-5.2066,-5.2048,-5.1904,-5.0322,-4.9693,-4.9513,-4.7895,-4.7262,-4.7136,-3.2342,-3.2122,-3.1684,-3.0739,-3.0053,-2.9355,-2.8697,-2.8173,-2.8304,-2.9457,-3.0619,-3.1397,-3.1473,-3.2778,-3.3223,-3.2212,-3.2437,-3.2288,-3.1441,-3.0922,-3.0249,-2.9401,-3.0161,-3.0632,-3.0746,-3.1162,-3.142,-3.1505,-3.1925,-3.1833,-3.1307,-3.184,-3.2098,-3.2098,-3.2868,-3.4057,-3.5537,-3.6179,-3.7805,-3.9959,-3.9862,-3.9679,-3.9364,0.0,0.0,0.0,0.0,0.0,0.0,0.0,0.0,0.0,0.0,0.0,0.0,0.0,0.0,0.0,0.0,0.0,0.0,0.0,0.0,0.0,0.0,0.0,0.0,0.0,0.0,0.0,0.0,0.0,0.0,0.0,-5.1464,-5.3561,-5.3837,-5.6674,-5.8655,-5.8571,-6.0354,-6.0964,-5.9403,-5.9566,-5.9537,-5.8972,-5.8399,-5.8341,-5.9027,-5.8754,-5.8581,-5.8609,-5.8593,-5.8041,-5.6921,-5.6134,-5.5563,-5.5211,-5.4438,-5.3919,-5.3648,-5.4223,-5.3688,-5.2315,-5.2988,-5.2741,-5.1761,-5.1286,-5.1029,-5.0849,-5.0018,-4.9693,-4.9513,-4.7895,-4.6895,-4.6147,-3.2219,-3.2038,-3.1713,-3.0809,-3.0278,-2.9744,-2.9116,-2.8693,-2.8918,-3.0223,-3.0881,-3.1269,-3.143,-3.2005,-3.1812,-3.0438,-3.0753,-3.0543,-2.9307,-2.9219,-2.9158,-2.9008,-2.9687,-3.0139,-3.0313,-3.0402,-3.0441,-3.0456,-3.0558,-3.047,-3.0152,-3.0583,-3.0797,-3.081,-3.1821,-3.2858,-3.3951,-3.5127,-3.6656,-3.826,-3.9132,-3.9965,-4.0621,-4.0352,-4.0157,-4.0104,-4.0202,-3.9978,-3.9685,-3.9793,0.0,0.0,0.0,0.0,0.0,0.0,0.0,0.0,0.0,0.0,0.0,0.0,0.0,0.0,0.0,0.0,0.0,0.0,0.0,0.0,0.0,0.0,0.0,0.0,-5.3629,-5.582,-5.7376,-5.8903,-6.0,-6.0418,-6.1217,-6.1425,-6.0671,-6.0508,-6.005,-5.8975,-5.8452,-5.8189,-5.8255,-5.787,-5.7497,-5.7157,-5.7123,-5.6552,-5.5398,-5.461,-5.3995,-5.3549,-5.2807,-5.2247,-5.1856,-5.2316,-5.1962,0.0,-5.1617,-5.1467,-5.0858,-5.0411,-5.0186,0.0,0.0,0.0,0.0,0.0,-4.6135,-4.5229,-3.2425,-3.2094,-3.1771,-3.1026,-3.0679,-3.0313,-2.9786,-2.9651,-3.0028,-3.1227,-3.1156,-3.1117,-3.1436,-3.0745,-2.9714,-2.83,-2.8626,-2.8335,-2.6964,-2.7329,-2.8009,-2.895,-2.8988,-2.9452,-3.0455,-3.0004,-2.9991,-3.044,-2.9991,-2.974,-2.9753,-2.9854,-2.988,-2.993,-3.12,-3.1815,-3.2008,-3.4509,-3.5696,-3.597,-3.7427,-3.9631,-4.1956,-4.1377,-4.1647,-4.2231,-4.1778,-4.1622,-4.1713,-4.1713,0.0,0.0,0.0,0.0,0.0,0.0,0.0,0.0,0.0,0.0,0.0,0.0,0.0,0.0,0.0,0.0,0.0,0.0,0.0,0.0,0.0,0.0,0.0,0.0,-5.585,-5.8154,-6.0578,-6.0464,-6.018,-6.036,-6.1039,-6.1244,-6.0592,-6.0298,-5.9578,-5.828,-5.7957,-5.7508,-5.6846,0.0,0.0,0.0,0.0,-5.4984,-5.4141,-5.3348,-5.2582,-5.1838,-5.1141,-5.043,-4.9804,-4.9804,-4.9804,-4.9804,-4.9804,-4.9804,-4.9781,-4.948,-4.9258,-4.9056,-4.8442,-4.8091,-4.7752,-4.6212,-4.516,-4.4353,-3.2425,-3.2094,-3.1938,-3.1632,-3.0994,-3.0462,-3.0342,-2.9909,-2.9849,-3.0612,-3.0411,-3.0054,-2.9589,-2.9517,-2.8976,-2.7601,-2.8359,-2.8988,-2.9139,-2.9252,-2.9402,-2.9616,-2.9628,-2.9639,-2.9619,-2.952,-2.9442,-2.9369,-2.9442,-2.947,-2.9482,-3.0152,-3.0457,-3.0482,-3.115,-3.1719,-3.216,-3.2684,-3.3723,-3.5052,-3.6298,-3.7944,-3.9662,-3.9743,-4.0621,-4.1857,-4.2459,-4.3153,-4.3748,-4.3748,-4.3389,-4.2836,-4.2192,0.0,0.0,0.0,0.0,0.0,0.0,0.0,0.0,0.0,0.0,0.0,0.0,0.0,0.0,0.0,0.0,0.0,0.0,0.0,0.0,-5.1748,-5.4454,-5.7069,-5.954,-5.929,-5.9376,-6.0763,-6.0572,-6.0264,-6.0132,-5.9527,-5.9063,-5.8781,-5.8177,-5.7723,-5.7574,-5.7011,-5.6084,-5.4738,-5.4688,-5.3801,-5.194,-5.1177,-5.0674,-5.0408,0.0,0.0,-4.9804,-4.9804,-4.9804,-4.9804,-4.9804,-4.9804,-4.9717,-4.8484,-4.7242,-4.6257,-4.7665,-4.7413,-4.6141,-4.5195,-4.4353,-4.3607,-3.3266,-3.2508,-3.1968,-3.1912,-3.1398,-3.0987,-3.0987,-3.0746,-3.0791,-3.1435,-3.0558,-2.9889,-2.9891,-2.9191,-2.8339,-2.7366,-2.7783,-2.8461,-2.9302,-2.9628,-2.9917,-3.0193,-3.0457,-3.0154,-2.9156,-2.9156,-2.9036,-2.8859,-2.8928,-2.9354,-3.005,-3.0468,-3.0726,-3.0873,-3.141,-3.2043,-3.2667,-3.2943,-3.3538,-3.4345,-3.4955,-3.5848,-3.7082,-3.9267,-4.0672,-4.1596,-4.2679,-4.3893,-4.4976,-4.4487,-4.4742,-4.5117,-4.3962,-4.3044,-4.2028,0.0,0.0,0.0,0.0,0.0,0.0,0.0,0.0,0.0,0.0,0.0,0.0,0.0,0.0,-4.4541,-4.6802,0.0,-5.1347,-5.4253,-5.5907,-5.7417,-5.914,-5.9182,-5.9431,-6.0415,-5.991,-5.9297,-5.8933,-5.8899,-5.8585,-5.7839,-5.779,-5.7475,-5.6746,-5.6365,-5.5471,-5.4013,-5.3964,-5.3102,-5.1332,-5.0568,-4.9975,-4.9555,-4.8802,-4.8623,-4.89,-4.89,-4.89,-4.89,-4.89,-4.8697,-4.8254,-4.7072,-4.61,-4.5355,-4.596,-4.5617,-4.4784,-4.464,-4.3893,-4.284,-3.4111,-3.3108,-3.233,-3.2163,-3.1811,-3.1539,-3.1511,-3.1511,-3.169,-3.2228,-3.0893,-3.0109,-3.0596,-2.9087,-2.7824,-2.7341,-2.7381,-2.7908,-2.8988,-2.9628,-3.0193,-3.0746,-3.1173,-3.0753,-2.9376,-2.9323,-2.9212,-2.9017,-2.9124,-2.9773,-3.0954,-3.1164,-3.1388,-3.1676,-3.2224,-3.2796,-3.342,-3.3759,-3.3897,-3.3897,-3.3897,-3.4161,-3.4938,-3.8465,-4.0275,-4.1176,-4.208,-4.3522,-4.4893,-4.4164,-4.4967,-4.6093,-4.4907,-4.434,-4.3726,-4.1852,-4.1192,0.0,0.0,0.0,0.0,0.0,0.0,0.0,0.0,0.0,-4.1615,-4.4825,-4.6187,-4.7803,-5.1005,-5.2351,-5.3886,-5.6773,-5.73,-5.7724,-5.8593,-5.8655,-5.8841,-5.9441,-5.901,-5.8452,-5.7856,-5.8204,-5.7972,-5.6779,-5.7111,-5.6862,-5.5648,-5.545,-5.4771,-5.345,-5.3417,-5.2655,-5.1116,-5.0502,-4.9773,-4.8895,-4.8282,-4.8001,-4.8001,-4.8001,-4.8001,-4.7984,-4.7852,-4.7289,-4.6409,-4.5714,-4.5145,-4.471,-4.4224,-4.3731,-4.3347,-4.4005,-4.3398,-4.2308,-3.4111,-3.3777,-3.3417,-3.2815,-3.2191,-3.1698,-3.1539,-3.1511,-3.1525,-3.16,-3.082,-3.0201,-3.0088,-2.8695,-2.7626,-2.7349,-2.7733,-2.8499,-2.9628,-3.0218,-3.0758,-3.1286,-3.1361,-3.1238,-3.0861,-3.0861,-3.0778,-3.0548,-3.0954,-3.1404,-3.1787,-3.2754,-3.3345,-3.3602,-3.4154,-3.4442,-3.4512,-3.4085,-3.3897,-3.3897,-3.3897,-3.3935,-3.4167,-3.554,-3.7733,-4.0054,-3.9926,-4.0923,-4.2269,-4.2401,-4.2581,-4.2845,-4.337,-4.35,-4.3069,-4.1451,0.0,-3.9678,-3.7788,-3.8392,-3.9903,-4.1467,-4.1527,-4.2222,0.0,0.0,-4.6279,-4.897,-5.1035,-5.2441,-5.2875,-5.4476,-5.5679,-5.5531,-5.5966,-5.6471,-5.6838,-5.5905,-5.5789,-5.7494,-5.7821,-5.7889,-5.7806,-5.7276,-5.6862,-5.6697,-5.6183,-5.5747,-5.5599,-5.497,-5.4262,-5.345,-5.3417,-5.2423,-5.0353,-5.0253,-4.9508,-4.8133,-4.805,-4.8001,-4.8001,-4.8001,-4.8001,-4.7968,-4.7305,-4.6228,-4.4951,-4.4846,-4.4025,-4.286,-4.332,-4.2622,-4.152,-4.2544,-4.2642,-4.2308,-3.4975,-3.4633,-3.4276,-3.3912,-3.3039,-3.2203,-3.1741,-3.167,-3.1626,-3.1511,-3.0807,-3.0269,-3.0178,-2.9079,-2.8139,-2.7587,-2.8232,-2.8851,-2.9239,-3.0407,-3.1298,-3.1838,-3.219,-3.1908,-3.0846,-3.1107,-3.1179,-3.0995,-3.148,-3.2224,-3.3143,-3.36,-3.3913,-3.4175,-3.4412,-3.4965,-3.5667,-3.5102,-3.5228,-3.5755,-3.5115,-3.5039,-3.5316,-3.514,-3.5991,-3.7343,-3.7435,-3.8554,0.0,0.0,-3.9796,-4.0824,-4.137,-4.1753,-4.1879,-4.1175,-4.1138,0.0,-4.0942,-4.0711,-4.0846,-4.2096,-4.3054,-4.4167,-4.6097,-4.6426,-4.7236,-5.0676,-5.2336,-5.3638,-5.5179,-5.6481,-5.7214,0.0,-5.6795,-5.662,-5.64,-5.5346,-5.51,-5.6384,-5.5985,-5.6002,-5.7066,-5.6498,-5.6067,-5.6067,-5.5388,-5.4754,-5.4324,-5.4046,-5.3549,-5.2837,-5.2821,-5.1976,-5.0237,-5.022,-4.9475,-4.8001,-4.8001,-4.8001,-4.7984,-4.7554,-4.7123,-4.6676,-4.593,-4.5251,-4.4622,-4.3777,-4.3065,-4.2435,-4.1883,-4.1419,-4.1214,-4.1995,-4.1928,-4.1423,-3.56,-3.5293,-3.4934,-3.4704,-3.3928,-3.3055,-3.215,-3.1898,-3.1727,-3.1539,-3.0999,-3.0554,-3.0329,-2.9594,-2.8839,-2.8117,-2.8983,-2.9495,-2.9361,-3.102,-3.2123,-3.2295,-3.2958,-3.2748,-3.1537,-3.1901,-3.2079,-3.209,-3.2575,-3.3438,-3.4647,-3.4749,-3.5003,-3.541,-3.541,-3.5953,-3.681,-3.6245,-3.637,-3.6885,-3.6094,-3.5918,-3.6044,-3.5253,-3.5056,-3.529,-3.538,-3.6167,0.0,0.0,-3.6807,-3.814,-3.861,-3.9347,-4.0053,-4.0098,-4.0803,-4.1698,-4.2342,-4.2102,-4.1886,-4.2725,-4.4257,-4.5678,-4.6037,-4.6651,-4.8042,-5.1259,-5.2591,-5.3877,-5.6152,-5.7274,-5.7842,-5.7842,-5.7573,-5.7094,-5.6286,-5.5224,-5.4698,-5.5229,-5.4094,-5.3946,-5.5551,-5.5423,-5.5336,-5.5582,-5.4721,-5.3943,-5.345,-5.3235,-5.2904,-5.2442,-5.221,-5.1479,-5.022,-5.0005,-4.9276,-4.8001,-4.8001,-4.8001,-4.7968,-4.7239,-4.6378,-4.5467,-4.492,-4.4456,-4.4009,-4.2949,-4.2258,-4.1823,-4.0796,-4.0488,-4.0667,-4.1086,-4.1067,-4.0802,-3.56,-3.56,-3.5424,-3.488,-3.4769,-3.4243,-3.2803,-3.215,-3.1727,-3.1539,-3.1467,-3.1161,-3.0389,-3.0103,-2.969,-2.9034,-3.0074,-3.0677,-3.0453,-3.2437,-3.3302,-3.2619,-3.3407,-3.3859,-3.3803,-3.3828,-3.4091,-3.4573,-3.4919,-3.55,-3.632,-3.6607,-3.7143,-3.7902,-3.7902,-3.7927,-3.7927,-3.7374,-3.6895,-3.643,-3.6405,-3.6031,-3.552,-3.5483,-3.5157,-3.4675,-3.4135,-3.3652,0.0,0.0,-3.3688,-3.41,-3.4921,-3.6217,0.0,-3.7806,-3.8663,-3.9649,-4.0307,-4.1384,-4.268,-4.3928,-4.5233,-4.6636,-4.7908,-4.8745,-4.9568,-5.096,-5.2276,-5.3608,-5.4985,-5.6271,-5.7124,-5.7124,-5.7663,-5.7648,-5.6361,-5.5065,-5.4059,-5.3714,-5.2497,-5.2042,0.0,-5.3849,-5.4705,-5.5544,-5.4262,-5.3434,-5.3417,-5.2771,-5.2442,-5.2409,-5.173,-5.0949,-5.022,-4.9508,-4.8763,-4.8001,-4.8001,-4.8001,-4.7968,-4.7239,-4.6096,-4.4721,-4.4705,-4.3893,-4.2555,-4.2506,-4.1707,-4.0475,-4.0426,-3.9962,-3.9358,-3.9385,-3.9978,-4.0802,-3.56,-3.56,-3.5706,-3.6074,-3.5819,-3.5374,-3.4751,-3.3498,-3.2702,-3.2982,-3.3029,0.0,0.0,0.0,0.0,0.0,-3.1494,-3.1881,-3.1268,-3.3073,-3.4179,-3.4188,-3.5303,-3.5816,-3.5674,-3.6472,-3.6963,-3.7162,-3.8066,-3.8648,-3.8938,-3.9435,-3.9806,-4.0052,-4.0052,-4.0346,-4.0808,-4.0268,-4.0455,-4.0978,-3.9176,-3.8555,-3.8469,-3.6426,-3.5314,-3.4734,0.0,-3.3238,-3.2737,0.0,-3.258,-3.2882,-3.4054,-3.4232,-3.4214,-3.4996,-3.6697,-3.8596,-3.9762,-4.1386,-4.322,-4.5007,-4.6194,-4.7204,-4.8087,-4.8461,-4.8985,-5.024,-5.0586,-5.099,-5.2306,-5.3623,-5.479,-5.5688,-5.6735,-5.7289,-5.684,-5.5673,-5.4571,-5.3699,-5.2642,0.0,0.0,0.0,0.0,-5.3932,-5.3239,-5.2738,-5.2738,-5.2506,-5.2194,-5.1696,-5.1431,-5.0469,-4.8763,-4.8498,-4.7752,-4.6527,-4.6527,-4.6278,-4.5798,-4.5533,-4.4638,-4.3247,-4.3247,-4.2684,-4.1756,-4.1293,-4.084,-4.0359,-3.9862,-3.9514,-3.9299,-3.9299,-3.952,-3.9799,0.0,-3.6146,-3.6282,-3.706,-3.6901,0.0,0.0,0.0,0.0,0.0,0.0,0.0,0.0,0.0,0.0,0.0,0.0,-3.2778,-3.2203,-3.3649,-3.4613,-3.4833,-3.5762,-3.6155,-3.594,-3.6729,-3.7232,-3.7463,-3.8355,-3.8996,-3.9302,-4.0105,-4.0627,-4.0923,-4.1141,-4.1657,-4.2332,-4.176,-4.1737,-4.2003,-4.0214,-3.9213,-3.8505,-3.6554,-3.5304,0.0,-3.3717,-3.3223,-3.2934,-3.2369,-3.2099,-3.2133,-3.2826,-3.2758,-3.2826,-3.4733,-3.6468,-3.8198,-4.0253,-4.2081,-4.3786,-4.5502,-4.6634,-4.7414,-4.7833,-4.7938,-4.8177,-4.897,-4.8671,-4.8611,-4.9927,-5.105,-5.2142,-5.3249,-5.47,-5.5703,-5.5703,-5.479,-5.3868,-5.3189,-5.213,-5.185,0.0,0.0,0.0,-5.3557,-5.3107,-5.2523,-5.2045,-5.2028,-5.1661,-5.0916,-5.0386,-4.9425,-4.8017,-4.7487,-4.6742,-4.5798,-4.5798,-4.54,-4.4671,-4.4423,-4.3661,-4.2473,-4.2208,-4.1707,-4.1011,-4.0591,-4.0243,-3.9962,-3.9497,-3.9299,-3.9299,-3.9299,-3.9299,-3.9299,0.0,0.0,-3.7072,0.0,0.0,0.0,0.0,0.0,0.0,0.0,0.0,0.0,0.0,0.0,0.0,0.0,0.0,0.0,-3.3391,-3.4311,-3.4858,-3.4781,-3.5143,-3.5264,-3.5071,-3.5084,-3.536,-3.5963,-3.6334,-3.6989,-3.7896,-3.8935,-3.9829,-4.0556,-4.1166,-4.1805,-4.2376,-4.1722,-4.081,-3.9761,-3.9546,-3.8087,-3.6042,-3.596,-3.5297,-3.4323,-3.3735,-3.3705,-3.3791,-3.2769,-3.225,-3.1967,-3.154,-3.1987,-3.3411,-3.6707,-3.773,-3.8441,-4.1492,-4.3102,-4.4189,-4.5418,-4.6477,-4.7207,-4.7251,-4.7236,-4.7206,-4.7204,-4.6651,-4.6546,0.0,0.0,-4.9359,-5.0031,-5.1902,-5.3249,-5.3279,-5.274,-5.2306,0.0,0.0,0.0,0.0,0.0,0.0,-5.4133,0.0,-5.2754,-5.1382,-5.1315,-5.0932,-5.0187,-4.8763,-4.7968,-4.7885,-4.6411,-4.5682,-4.5682,-4.5682,-4.5284,-4.4556,-4.3876,-4.3118,-4.234,-4.1645,-4.0961,-4.0343,-4.0343,-3.9928,-3.9299,-3.9299,-3.9299,-3.9272,-3.9272,-3.9272,-3.9245,0.0,0.0,0.0,0.0,0.0,0.0,0.0,0.0,0.0,0.0,0.0,0.0,0.0,0.0,0.0,0.0,0.0,0.0,-3.5627,-3.6755,-3.7369,-3.7226,-3.8217,-3.8663,-3.8461,-3.8938,-3.9249,-3.9429,-3.955,-3.9717,-3.9932,-4.024,-4.0495,-4.0654,-4.0813,-4.1079,-4.1386,-4.1211,-4.1084,-4.0866,-3.9632,-3.8782,-3.8053,-3.6616,-3.5888,-3.5583,-3.5132,-3.5329,-3.5642,-3.4552,-3.4651,-3.5049,-3.4112,-3.4802,-3.595,-3.6101,-3.738,-3.8932,-3.9803,-4.128,-4.2903,-4.4273,-4.5266,-4.6018,-4.6624,-4.6546,-4.6185,-4.5679,-4.4807,-4.4077,-4.3938,0.0,0.0,-4.9254,-5.2007,0.0,-5.461,-5.4536,0.0,-5.1708,0.0,-5.1374,-5.0581,-5.1046,0.0,0.0,-5.2326,-5.2241,-5.1365,-5.1315,-5.0701,-4.9425,-4.8481,-4.7471,-4.6361,-4.4903,-4.4144,-4.4144,-4.4144,-4.3764,-4.3065,-4.2853,-4.2121,-4.0912,-4.0729,-4.026,-3.958,-3.958,-3.9481,-3.9299,-3.9299,-3.9202,-3.9094,-3.9094,-3.8996,-3.8903,0.0,0.0,0.0,0.0,0.0,0.0,0.0,0.0,0.0,0.0,0.0,0.0,0.0,0.0,0.0,0.0,0.0,0.0,0.0,-3.7186,-3.7668,-3.7772,-3.8465,-3.878,-3.8559,-3.8933,-3.9103,-3.9103,-3.9323,-3.9508,-3.969,-4.0168,-4.0429,-4.0552,-4.0819,-4.1012,-4.1121,-4.085,-4.0469,0.0,0.0,-3.7974,-3.7357,-3.6236,-3.5825,-3.5849,-3.5907,-3.6731,-3.7704,-3.7378,-3.7322,-3.7357,-3.7115,-3.735,-3.7796,-3.8183,-3.8985,-3.9875,-4.0492,-4.1753,-4.317,-4.4102,-4.4992,-4.5625,-4.5488,-4.5524,-4.5161,-4.3711,-4.2936,-4.2387,-4.2036,-4.3629,-4.5442,0.0,0.0,0.0,-5.2744,-5.2976,-5.268,0.0,-5.1468,0.0,-5.0483,-5.0575,-5.0588,0.0,-5.1224,-5.1375,-5.0309,-5.0296,-4.9657,-4.8183,-4.7421,-4.6328,-4.4854,-4.3995,-4.3598,-4.3598,-4.3598,-4.3201,-4.2473,-4.2158,-4.1425,-4.0393,0.0,-3.9626,-3.9175,-3.9175,-3.9121,-3.9067,-3.9067,-3.9013,-3.8914,-3.8914,-3.8663,-3.8368,0.0,0.0,0.0,0.0,0.0,0.0,0.0,0.0,0.0,0.0,-3.8105,-3.8038,-3.8233,-3.8149,0.0,0.0,0.0,0.0,0.0,0.0,-3.721,-3.7674,-3.7722,-3.7618,-3.7442,-3.7442,-3.7442,-3.7442,-3.7772,-3.8117,-3.8469,-3.9298,-3.9817,-4.0008,-4.0574,-4.0841,-4.0809,-4.0288,-3.9378,-3.8239,-3.7564,-3.661,-3.5619,0.0,0.0,-3.5594,-3.6252,-3.7689,-3.9409,-4.0247,-3.9991,-3.9401,-4.0191,-3.9936,-3.9683,-4.1569,-4.1532,-4.1114,-4.2221,-4.3075,-4.3774,-4.4268,-4.504,-4.5365,-4.4205,-4.4335,-4.4046,-4.1697,-4.125,-4.122,-4.113,-4.2222,-4.3339,-4.4032,0.0,-4.8537,-4.9859,-5.0117,-5.0614,-5.1798,-5.0855,-5.0031,-4.9941,-4.9513,-4.9193,-4.9101,-4.9868,-4.9866,-4.8796,-4.8693,-4.7985,-4.6515,-4.5949,-4.4986,-4.3615,-4.3598,-4.3598,-4.3598,-4.3499,-4.3069,-4.2324,-4.1607,-4.0895,-4.0227,-3.9553,0.0,-3.8996,-3.8969,-3.8914,-3.8805,-3.8805,-3.8805,-3.8777,-3.8777,-3.8401,-3.7932,0.0,0.0,0.0,0.0,0.0,0.0,0.0,0.0,0.0,0.0,-3.9059,-3.8992,0.0,0.0,0.0,0.0,0.0,0.0,0.0,0.0,0.0,-3.9302,-3.9302,-3.9286,-3.9232,-3.9232,-3.9232,-3.9232,-3.8766,-3.8593,-3.8637,-3.8325,-3.8203,-3.8248,-3.8346,-3.8414,-3.839,-3.8308,-3.8062,-3.7664,-3.7018,-3.6552,-3.6196,0.0,0.0,0.0,-3.6252,-3.7389,-3.8841,-4.0621,-4.1677,-4.2294,-4.2677,-4.3182,-4.3653,-4.3675,-4.3027,-4.2293,-4.2523,-4.2253,-4.2222,-4.3458,-4.3834,-4.3906,-4.3698,-4.3501,-4.2773,-4.0679,-4.0412,-4.0397,-3.9858,-4.0831,-4.2438,-4.4492,-4.6142,-4.7986,-5.0409,-5.0275,-5.01,0.0,-4.9898,-4.9224,-4.8671,-4.8039,0.0,0.0,0.0,-4.691,-4.787,-4.6936,-4.5706,-4.4301,-4.4659,-4.4473,-4.3598,-4.3598,-4.3598,-4.3582,-4.2969,-4.2291,-4.1562,-4.0878,-4.0194,-3.9481,-3.917,0.0,-3.8996,-3.8887,-3.8832,-3.8805,-3.8805,-3.8738,-3.8644,-3.8644,-3.8479,-3.8233,0.0,0.0,0.0,0.0,0.0,0.0,-3.9671,-3.955,-3.9953,-4.1098,-4.1071,-4.0693,-4.0062,-4.0011,-3.9986,0.0,0.0,0.0,0.0,0.0,0.0,0.0,0.0,0.0,-3.9703,-3.9703,-3.9703,-3.9703,0.0,-3.9199,-3.9199,-3.893,-3.8794,-3.8794,-3.8794,-3.8585,-3.8274,-3.8274,-3.8064,-3.7677,-3.7368,-3.713,0.0,0.0,0.0,0.0,0.0,-3.7808,-3.908,-4.0038,-4.1144,-4.2406,-4.3941,-4.4674,-4.4988,-4.4773,-4.4143,-4.3566,-4.3904,-4.3491,-4.3265,-4.4542,-4.4585,-4.4013,-4.2994,-4.2623,-4.1867,-3.9645,-3.9561,-3.9798,-3.9448,-4.0502,-4.1912,-4.3471,-4.5045,-4.6795,-4.8873,-4.9116,-4.9223,-4.9688,-4.9149,-4.8506,0.0,-4.7174,-4.6516,0.0,0.0,-4.5351,-4.65,-4.5358,-4.4183,-4.3166,-4.344,-4.326,-4.2509,-4.2855,-4.282,-4.244,-4.2092,-4.1574,-4.0862,-4.0431,-3.9842,-3.9121,-3.8969,0.0,-3.8794,-3.8711,-3.8655,-3.86,-3.86,-3.8544,-3.8492,-3.8492,-3.7994,-3.7307,0.0,0.0,0.0,0.0,0.0,0.0,-4.0354,-4.0712,-4.1537,-4.293,-4.3017,-4.2498,-4.1302,-4.1015,-4.088,0.0,0.0,0.0,0.0,0.0,0.0,0.0,0.0,0.0,0.0,0.0,0.0,-3.9944,-3.9816,0.0,0.0,0.0,0.0,0.0,-3.9781,-3.9497,-3.9005,-3.9005,-3.8707,0.0,0.0,-3.795,0.0,0.0,0.0,0.0,0.0,-3.8136,-3.9414,-3.9236,-3.9888,-4.1145,-4.3509,-4.4631,-4.5095,-4.5095,-4.4811,-4.4661,-4.5334,-4.502,-4.4769,-4.5784,-4.5456,-4.437,-4.2515,-4.1956,-4.1216,-3.888,-3.8931,-3.9388,-3.9388,-4.0262,-4.1315,0.0,-4.3664,-4.526,-4.7126,-4.7644,-4.8118,0.0,-4.8417,0.0,-4.7073,-4.6416,0.0,0.0,0.0,0.0,-4.4587,-4.3832,-4.2975,-4.2178,-4.2301,-4.2104,-4.1517,-4.185,-4.1802,-4.1352,-4.1016,-4.0654,-4.0282,-3.9962,-3.9512,-3.8942,-3.8805,0.0,0.0,-3.8576,-3.8492,-3.8391,-3.8391,-3.8391,-3.8391,-3.8391,-3.7598,-3.6578,0.0,0.0,0.0,0.0,0.0,0.0,-4.1706,-4.2516,-4.344,-4.4296,-4.4054,-4.4003,-4.4565,-4.398,-4.3347,0.0,0.0,0.0,0.0,0.0,0.0,0.0,0.0,0.0,0.0,0.0,0.0,-4.0707,-4.0279,0.0,0.0,0.0,0.0,0.0,0.0,-4.002,-3.9978,-3.9978,0.0,0.0,0.0,0.0,0.0,0.0,0.0,0.0,0.0,-3.778,-3.9401,-3.8727,-3.8556,-3.8916,-4.0382,-4.2491,-4.4407,-4.4407,-4.4781,-4.5349,-4.6052,-4.5723,-4.5379,-4.61,-4.5323,-4.4007,-4.2677,-4.1884,-4.0876,-3.8811,-3.8931,-3.9388,-3.9388,-3.9514,-4.0122,-4.1798,0.0,-4.3345,-4.6284,-4.6415,-4.6678,-4.7882,0.0,0.0,-4.62,-4.5503,0.0,0.0,0.0,0.0,-4.1821,-4.2236,-4.1965,-4.0739,-4.1292,-4.1582,-4.15,-4.0848,-4.0745,-4.1193,-3.9797,-3.9415,-3.9926,-3.9226,-3.8881,-3.8805,-3.8699,0.0,0.0,-3.8464,-3.8391,-3.8391,-3.8391,-3.8391,-3.8391,-3.8391,-3.7906,-3.7117,0.0,0.0,0.0,0.0,0.0,0.0,-4.1978,-4.2571,-4.375,-4.5516,-4.5584,-4.6143,-4.7922,-4.7833,-4.6555,-4.3809,-4.2882,0.0,0.0,0.0,0.0,0.0,0.0,0.0,0.0,0.0,-4.1034,-4.1034,-4.129,0.0,0.0,0.0,0.0,0.0,0.0,-4.0096,-4.0096,0.0,0.0,0.0,0.0,0.0,0.0,0.0,0.0,0.0,0.0,0.0,-3.8668,-3.7598,-3.7764,-3.8347,-3.8123,-3.9574,-4.1594,-4.2791,-4.3369,-4.3943,-4.5813,-4.6127,-4.6082,-4.6741,-4.5603,-4.4077,-4.3195,-4.1863,-4.0457,-3.926,-3.923,-3.9388,-3.9388,-3.9388,-3.986,-4.1228,-4.1558,0.0,-4.419,-4.4403,-4.4664,-4.5446,-4.5327,0.0,0.0,0.0,-4.3945,0.0,0.0,0.0,-4.1086,-4.113,-4.058,-3.9269,-4.0178,-4.0142,-3.8874,-3.9265,-3.9156,-3.8533,-3.7935,-3.7987,-3.863,-3.8253,-3.8298,-3.8655,-3.8532,0.0,0.0,-3.842,-3.8391,-3.8391,-3.8391,-3.8391,-3.8359,-3.7906,-3.7307,-3.661,0.0,0.0,0.0,0.0,0.0,-4.2632,-4.2086,-4.2741,-4.4099,-4.6255,-4.6724,-4.7681,-4.9876,-5.0112,-4.8928,-4.6006,-4.4665,0.0,0.0,0.0,0.0,0.0,0.0,0.0,0.0,0.0,-4.2137,-4.1979,-4.2355,-4.2454,0.0,0.0,-4.1204,-4.117,0.0,0.0,0.0,0.0,0.0,0.0,0.0,0.0,0.0,0.0,0.0,0.0,0.0,0.0,0.0,0.0,0.0,-3.7943,-3.7045,-3.7584,-3.8931,-4.092,-4.1946,-4.2935,-4.5349,-4.6172,-4.6444,-4.7145,-4.5798,-4.4152,-4.3509,-4.1833,-4.0217,-3.9559,-3.9388,-3.9388,-3.9388,-3.9337,-3.9637,-4.0642,-4.0859,-4.1305,-4.2361,-4.2713,-4.3021,-4.3471,0.0,-4.3478,0.0,-4.334,0.0,0.0,0.0,0.0,-4.0855,-4.0099,-3.925,-3.8296,-3.9124,-3.88,-3.7077,-3.7634,-3.7539,-3.6752,-3.6507,-3.6722,-3.7368,-3.7279,-3.7517,-3.7943,-3.7857,0.0,0.0,-3.7792,-3.7798,-3.7765,-3.7785,-3.7776,-3.7744,-3.7409,-3.6756,-3.593,0.0,0.0,0.0,0.0,0.0,-4.2206,-4.2188,-4.3397,-4.4831,-4.6392,-4.7236,-4.8297,-4.993,-5.0112,-5.0093,-5.0035,-4.816,0.0,0.0,0.0,0.0,0.0,0.0,0.0,-4.5214,-4.4806,-4.4294,-4.3775,-4.3315,-4.2809,-4.2269,-4.1542,-4.1204,-4.117,0.0,0.0,0.0,0.0,0.0,0.0,0.0,0.0,-3.9959,0.0,0.0,0.0,0.0,0.0,0.0,0.0,0.0,0.0,0.0,-3.6985,-3.6911,-3.8871,-4.0831,-4.283,-4.4766,-4.5798,-4.6444,-4.7145,-4.5798,-4.4137,-4.3439,-4.1818,-4.0217,-3.9559,-3.9388,-3.9388,-3.9388,-3.9228,-3.9312,-4.0018,-3.995,0.0,-4.1261,-4.1651,-4.1956,0.0,0.0,-4.2407,-4.2407,-4.2407,0.0,0.0,0.0,0.0,-4.0811,-3.8981,-3.7919,-3.7919,-3.8118,-3.7813,-3.6914,-3.613,-3.6022,-3.6569,-3.5787,-3.577,-3.6415,-3.6415,-3.6415,0.0,0.0,0.0,0.0,-3.6348,-3.6327,-3.6321,-3.6318,-3.6319,-3.6416,-3.7053,-3.6416,-3.5325,0.0,0.0,0.0,0.0,0.0,0.0,-4.2886,-4.316,-4.4117,-4.6255,-4.7213,-4.8532,-5.0669,-5.1411,-5.1502,-5.0981,-4.8822,0.0,0.0,0.0,0.0,0.0,0.0,-4.3708,-4.4272,-4.3941,-4.3958,-4.435,-4.4691,-4.4799,-4.4604,-4.3859,-4.3234,-4.2632,-4.1407,-4.0849,0.0,0.0,0.0,0.0,0.0,-4.1127,-4.1497,0.0,0.0,0.0,0.0,0.0,0.0,0.0,0.0,0.0,0.0,0.0,0.0,-3.7853,-3.8811,-4.0119,-4.2073,-4.3105,-4.3778,-4.4421,-4.3434,-4.2252,-4.2043,-4.0703,-3.9467,-3.9418,-3.9177,-3.9017,-3.9177,-3.9017,-3.9129,-3.9794,-3.9837,-4.0056,0.0,0.0,0.0,-4.1661,-4.2021,-4.2027,0.0,0.0,0.0,0.0,0.0,0.0,-3.9075,-3.8582,-3.7974,-3.7249,-3.7119,-3.6571,-3.5411,-3.5449,-3.5365,-3.5088,-3.4839,-3.5055,-3.5706,-3.5706,-3.5977,0.0,0.0,0.0,0.0,-3.5701,-3.5433,-3.5114,-3.551,-3.5669,-3.5637,-3.5366,-3.4983,-3.4553,0.0,0.0,0.0,0.0,0.0,0.0,-4.3304,-4.3105,-4.3756,-4.588,-4.6799,-4.817,-5.0578,-5.1556,-5.1973,-5.1756,-5.0108,0.0,0.0,0.0,0.0,0.0,-4.4889,-4.4729,-4.5074,-4.5119,-4.5335,-4.5721,-4.6198,-4.6323,-4.6109,-4.5348,-4.4604,-4.3809,-4.2591,-4.188,0.0,0.0,0.0,0.0,-4.1085,-4.1305,-4.1448,0.0,0.0,0.0,0.0,0.0,0.0,0.0,0.0,0.0,0.0,0.0,0.0,0.0,-3.7524,-3.8212,-4.0733,-4.1901,-4.2545,-4.3125,-4.2342,-4.1422,-4.1422,-4.0278,-3.9228,-3.9265,-3.9104,-3.8943,-3.898,-3.8833,-3.8818,-3.9245,-3.9243,-3.9425,0.0,0.0,0.0,-4.0548,0.0,0.0,0.0,0.0,0.0,0.0,0.0,0.0,-3.826,-3.7645,-3.7032,-3.6347,-3.6283,-3.5716,-3.4597,-3.4874,-3.4806,-3.4414,-3.4414,-3.4635,-3.5023,-3.5023,-3.5237,0.0,0.0,0.0,0.0,-3.4379,-3.4058,-3.3735,-3.4107,-3.4281,-3.425,-3.4034,-3.3815,-3.3537,0.0,0.0,0.0,0.0,0.0,0.0,0.0,-4.3269,-4.3705,-4.5363,-4.6116,-4.7428,-4.9858,-5.0836,-5.1611,-5.2426,-5.181,0.0,0.0,0.0,0.0,-4.5971,-4.586,-4.6252,-4.7179,-4.7628,-4.7779,-4.7606,-4.7606,-4.737,-4.6853,-4.6177,-4.5449,-4.4733,-4.3876,-4.3047,0.0,0.0,0.0,0.0,-4.1018,-4.0899,0.0,0.0,0.0,0.0,0.0,0.0,0.0,0.0,0.0,0.0,0.0,0.0,0.0,0.0,0.0,0.0,0.0,-4.1617,-4.2261,-4.2836,-4.2102,-4.1205,-4.1153,-4.0187,0.0,-3.9066,-3.8964,-3.8876,-3.8819,-3.8583,-3.8435,-3.8478,-3.8315,-3.8449,0.0,-3.9349,0.0,0.0,-4.035,0.0,-4.0046,0.0,0.0,0.0,0.0,0.0,-3.8072,-3.638,-3.5378,-3.5334,-3.5507,-3.5229,-3.4414,-3.4414,-3.4414,-3.4414,-3.4414,-3.4414,-3.4414,-3.4414,-3.4385,0.0,0.0,0.0,0.0,-3.2611,-3.2303,-3.2273,-3.232,-3.2342,-3.2404,-3.3047,-3.2877,-3.2419,0.0,0.0,0.0,0.0,0.0,0.0,0.0,0.0,0.0,0.0,-4.6017,-4.7428,-4.9858,-5.0836,-5.1611,0.0,0.0,0.0,0.0,0.0,0.0,-4.8161,-4.6783,-4.6396,-4.7179,-4.6565,-4.6766,-4.784,-4.784,-4.7751,-4.7648,-4.7449,-4.6989,-4.621,-4.4891,-4.3555,0.0,0.0,0.0,0.0,-4.2202,-4.2286,0.0,0.0,0.0,0.0,-4.0717,-3.9675,0.0,0.0,0.0,0.0,0.0,0.0,0.0,0.0,-3.7285,-3.8003,-3.8272,0.0,-3.9364,-3.9514,-3.9709,-3.9604,0.0,-3.8355,-3.8398,-3.8362,-3.7712,-3.7468,-3.8414,-3.8025,-3.7739,-3.8204,-3.824,-3.8594,-3.9726,0.0,0.0,-4.0002,-4.0612,-4.0452,-3.8812,0.0,0.0,0.0,0.0,-3.7781,-3.6809,-3.5901,-3.5174,-3.4646,-3.4666,-3.4608,-3.4414,-3.4414,-3.4414,-3.4414,-3.4414,-3.4414,-3.4414,-3.4414,-3.4153,0.0,0.0,0.0,-3.1961,-3.1782,-3.1434,-3.1071,-3.1539,-3.1709,-3.1724,-3.1875,-3.1845,-3.1649,0.0,0.0,0.0,0.0,0.0,0.0,0.0,0.0,0.0,0.0,-4.5494,-4.6721,-4.8786,-5.0035,-5.1067,0.0,0.0,0.0,0.0,-5.0687,-4.9545,-4.8587,-4.7879,-4.7487,-4.7387,-4.7189,-4.7508,-4.8379,-4.8379,-4.8379,-4.8379,-4.8379,-4.7834,-4.6735,-4.5275,-4.3927,-4.2811,-4.2811,-4.2844,-4.2895,-4.2828,0.0,0.0,0.0,0.0,0.0,-3.9808,-3.8922,0.0,-3.7651,-3.6873,-3.6028,0.0,0.0,0.0,0.0,-3.7195,-3.7509,-3.7419,-3.7883,-3.8392,-3.8392,-3.8676,-3.873,-3.7963,-3.7719,-3.7608,-3.7432,-3.699,-3.6885,-3.7769,-3.7594,-3.7506,-3.8101,-3.8202,0.0,0.0,0.0,-4.0495,-3.977,-4.0002,-3.9813,0.0,0.0,0.0,0.0,0.0,-3.6591,-3.5909,-3.5305,-3.4762,-3.4428,-3.4414,-3.4414,-3.4414,-3.4414,-3.4414,-3.4414,-3.4414,-3.4414,-3.4414,-3.4414,-3.4066,0.0,0.0,0.0,-3.1466,-3.1206,-3.0872,-3.0598,-3.0617,-3.0821,-3.1013,-3.0423,-3.0393,-3.0556,0.0,0.0,0.0,0.0,0.0,0.0,0.0,0.0,0.0,0.0,0.0,0.0,0.0,0.0,0.0,0.0,0.0,0.0,0.0,-5.1777,-5.0464,-4.8538,-4.874,-4.8541,-4.7758,-4.818,-4.8595,-4.9001,-4.912,-4.912,-4.9001,-4.912,-4.8325,-4.6735,-4.5602,-4.4536,-4.3589,-4.3589,-4.3217,-4.2692,-4.3335,0.0,0.0,0.0,0.0,0.0,0.0,0.0,0.0,-3.6631,-3.599,-3.5609,-3.6163,0.0,0.0,0.0,0.0,0.0,-3.7,-3.7714,-3.8312,-3.8153,-3.8242,-3.8247,-3.7823,-3.7372,-3.6907,-3.6523,-3.638,-3.6514,-3.7194,-3.723,0.0,0.0,0.0,0.0,-3.8623,-3.9218,-3.9538,-3.9233,-3.9276,0.0,0.0,0.0,0.0,0.0,0.0,-3.5392,-3.5392,-3.4762,-3.4414,-3.4414,-3.4414,-3.4414,-3.4414,-3.4414,-3.4414,-3.4414,-3.4414,-3.4414,-3.4414,-3.4414,-3.4008,-3.3329,0.0,0.0,-3.1322,-3.083,-3.0598,-3.0539,-2.9972,-3.0103,-3.0467,-2.9275,-2.916,-2.9494,0.0,0.0,0.0,0.0,0.0,0.0,0.0,0.0,0.0,0.0,0.0,0.0,0.0,0.0,0.0,0.0,0.0,0.0,0.0,-5.1916,-5.1104,-5.0078,-4.8459,-4.7884,-4.8517,-4.7585,-4.7704,-4.9001,-4.9627,-4.961,-4.9018,-4.9644,-4.8798,-4.6802,-4.7225,-4.6278,-4.4429,-4.4429,-4.4361,-4.4276,-4.4378,0.0,0.0,0.0,0.0,0.0,0.0,0.0,0.0,-3.6631,-3.599,-3.5519,-3.5624,0.0,0.0,0.0,0.0,0.0,-3.5923,-3.6939,-3.7942,-3.7011,-3.751,-3.7778,-3.6045,-3.59,-3.604,-3.58,-3.5356,-3.5448,-3.7019,-3.6838,-3.6838,0.0,0.0,-4.0002,0.0,0.0,-4.1033,-3.9407,0.0,0.0,0.0,0.0,0.0,0.0,0.0,-3.5392,-3.5392,-3.4762,-3.4414,-3.4414,-3.4414,-3.4414,-3.4414,-3.4414,-3.4414,-3.4414,-3.4414,-3.4414,-3.4414,-3.4414,-3.3775,-3.2658,0.0,-3.183,-3.0743,-3.0641,-3.0598,-3.0598,-3.0496,-3.0525,-3.051,-2.974,-2.9508,-2.9421,0.0,0.0,0.0,0.0,0.0,0.0,0.0,0.0,0.0,0.0,0.0,0.0,0.0,0.0,0.0,0.0,0.0,0.0,-5.1846,-5.17,-5.1272,-5.06,-4.9004,-4.8303,-4.8706,-4.8218,-4.8511,-4.9593,-4.9915,-5.0135,-5.0185,-4.9729,-4.8748,-4.7394,-4.7344,-4.6735,-4.5799,-4.5799,-4.5551,-4.5179,0.0,0.0,0.0,0.0,0.0,0.0,0.0,0.0,0.0,0.0,-3.5733,-3.5504,-3.5504,0.0,0.0,0.0,0.0,0.0,-3.5448,-3.6201,-3.6936,-3.6342,-3.7623,-3.8567,-3.688,-3.6364,-3.6111,-3.5418,-3.5169,0.0,0.0,0.0,-3.7011,-3.825,0.0,-4.0089,-4.0075,-4.0031,-3.9799,0.0,0.0,0.0,0.0,0.0,0.0,0.0,0.0,0.0,-3.4849,-3.4574,-3.4414,-3.4414,-3.4414,-3.4414,-3.4414,-3.4414,-3.4414,-3.4414,-3.4066,-3.408,-3.4414,-3.4414,-3.3906,-3.3021,0.0,-3.1975,-3.1061,-3.0743,-3.0598,-3.0539,-2.9842,-2.9755,-2.9943,-2.8928,-2.8362,-2.8057,0.0,0.0,0.0,0.0,0.0,0.0,0.0,0.0,0.0,0.0,0.0,0.0,0.0,0.0,0.0,0.0,0.0,0.0,-5.1267,-5.1184,-5.0988,-5.0707,-4.9502,-4.8815,-4.8769,-4.8923,-4.9357,-5.0084,-5.0439,-5.0896,-5.1437,-5.0135,-4.9035,-4.8139,-4.7564,-4.7107,-4.6786,-4.6786,-4.6464,-4.594,0.0,0.0,0.0,0.0,0.0,0.0,0.0,0.0,0.0,0.0,0.0,0.0,0.0,0.0,0.0,-3.5439,-3.5439,-3.5392,-3.518,-3.5707,-3.6202,-3.5903,-3.7311,-3.848,-3.7477,-3.6715,-3.6,-3.5246,0.0,0.0,0.0,-3.5574,0.0,-3.8017,-3.897,-3.9524,-3.9341,-3.8943,-3.8725,-3.8942,0.0,0.0,0.0,0.0,0.0,0.0,0.0,0.0,-3.4414,-3.4414,-3.4414,-3.4414,-3.4414,-3.4341,-3.4196,-3.4037,-3.409,-3.4399,-3.3808,-3.375,-3.4182,-3.4037,-3.3616,-3.3009,-3.2498,-3.1872,-3.125,-3.0801,-3.0598,-3.051,-2.9537,-2.9247,-2.9233,-2.8116,-2.7391,-2.7084,0.0,0.0,0.0,0.0,0.0,0.0,0.0,0.0,0.0,0.0,0.0,0.0,0.0,0.0,0.0,0.0,0.0,0.0,-5.1194,-5.0261,-4.996,-5.0662,-4.9588,-4.8978,-4.8978,-4.8998,-4.9357,-5.0084,-5.1471,-5.2164,-5.2198,-5.142,-5.0287,-4.8934,-4.8866,-4.8088,-4.6786,-4.6786,-4.6752,-4.665,-4.5974,0.0,0.0,0.0,0.0,0.0,0.0,0.0,0.0,0.0,0.0,0.0,0.0,0.0,-3.5472,-3.5294,-3.5213,-3.518,-3.4968,-3.5712,-3.643,-3.5785,-3.58,-3.6015,-3.6154,-3.5592,-3.5081,-3.5303,0.0,0.0,0.0,-3.4826,-3.5353,-3.6538,-3.7504,-3.8434,-3.952,0.0,-3.9538,-3.8405,0.0,0.0,0.0,0.0,0.0,0.0,0.0,0.0,-3.4414,-3.4414,-3.4414,-3.4414,-3.4414,-3.4124,-3.3576,-3.2948,-3.3238,-3.4399,-3.3808,-3.3518,-3.3547,-3.2919,-3.2249,-3.1656,-3.1582,-3.1235,-3.067,-3.0627,-3.0598,-3.0598,-3.051,-2.9784,-2.8694,-2.7956,-2.7666,-2.7637,0.0,0.0,0.0,0.0,0.0,0.0,0.0,0.0,0.0,0.0,0.0,0.0,0.0,0.0,0.0,0.0,0.0,-4.8402,-4.9021,-4.9341,-4.9644,-4.9951,-4.934,-4.9001,-4.9001,-4.9458,-5.027,-5.1471,-5.2536,-5.279,-5.2283,-5.1555,-5.0676,-4.9661,-4.9204,-4.8697,-4.8173,-4.8173,-4.7902,-4.7428,-4.6684,-4.5196,0.0,0.0,0.0,0.0,0.0,0.0,0.0,0.0,-3.5504,-3.5504,-3.5504,-3.5504,-3.5472,-3.5261,-3.518,-3.5148,-3.485,-3.4733,-3.4694,-3.4711,-3.4101,-3.4004,-3.6069,-3.5911,-3.5313,-3.5296,-3.5489,0.0,0.0,0.0,-3.5269,-3.5721,-3.6891,-3.7745,-3.78,-3.7978,-3.7798,0.0,0.0,0.0,0.0,0.0,0.0,0.0,0.0,0.0,-3.4385,-3.4037,-3.4008,-3.4399,-3.4037,-3.3736,-3.3503,-3.2846,-3.2727,-3.3191,-3.2571,-3.2469,-3.2875,-3.2629,-3.235,-3.2089,-3.1669,-3.138,-3.1134,-3.0757,-3.0598,-3.0525,-2.974,-2.8869,-2.8057,-2.7782,-2.7695,-2.7811,0.0,0.0,0.0,0.0,0.0,0.0,0.0,0.0,0.0,0.0,0.0,0.0,0.0,0.0,0.0,0.0,-4.7627,-4.7446,-4.7681,-4.8382,-4.889,-4.9127,-4.862,-4.8629,-4.9323,-4.961,-5.0473,-5.1961,-5.2993,-5.3095,-5.2283,-5.1555,-5.0811,-5.005,-4.9323,-4.9001,-4.8984,-4.8748,-4.8376,-4.7804,-4.6836,-4.5229,0.0,0.0,0.0,0.0,0.0,0.0,0.0,0.0,-3.5504,-3.5504,-3.5504,-3.5472,-3.5359,-3.5148,-3.5082,-3.4916,-3.4351,-3.3811,-3.3431,-3.3511,-3.2755,-3.2667,-3.5377,-3.5548,-3.5163,-3.5258,-3.5269,-3.5144,-3.4606,0.0,0.0,0.0,-3.5568,-3.6234,-3.6019,-3.5987,-3.5763,0.0,0.0,0.0,0.0,0.0,0.0,0.0,0.0,0.0,0.0,-3.3736,-3.3605,-3.3771,-3.3587,-3.33,-3.2861,-3.2425,-3.2106,-3.1903,-3.1438,-3.1569,-3.2162,-3.2004,-3.1903,-3.1874,-3.1424,-3.1221,-3.1177,-3.0786,-3.0481,-3.0161,-2.913,-2.8289,-2.7695,-2.7695,-2.7826,-2.8187,0.0,0.0,0.0,0.0,0.0,0.0,0.0,0.0,-4.7986,-4.88,-4.8891,0.0,0.0,0.0,0.0,0.0,-4.7428,-4.683,-4.7606,-4.7352,-4.7522,-4.8338,-4.7369,-4.7817,-5.0016,-4.9373,-4.9746,-5.1185,-5.2756,-5.3078,-5.2283,-5.1539,-5.0811,-5.005,-4.9323,-4.8984,-4.8951,-4.8176,-4.7872,-4.7736,-4.6278,-4.4773,-4.3375,0.0,0.0,0.0,0.0,0.0,0.0,0.0,-3.5504,-3.5504,-3.5504,-3.5374,-3.5162,-3.4968,-3.4817,-3.4481,-3.3485,-3.3178,-3.3003,-3.2268,-3.1891,-3.2124,-3.3788,-3.4191,-3.443,-3.5327,-3.4236,-3.3124,-3.3124,-3.2164,0.0,-3.288,-3.3309,-3.3705,-3.4293,-3.4139,0.0,0.0,0.0,0.0,0.0,0.0,0.0,0.0,0.0,0.0,0.0,-3.3489,-3.3198,-3.251,-3.3122,-3.2832,-3.1495,-3.148,-3.1192,-3.0598,-3.0598,-3.0901,-3.1451,-3.0858,-3.0598,-3.0598,-3.0598,-3.0598,-3.0598,-3.0598,-3.019,-2.9537,-2.8927,-2.8289,-2.771,-2.771,-2.8144,-2.8796,0.0,0.0,0.0,0.0,0.0,0.0,0.0,0.0,-4.8188,-4.9546,-4.9257,0.0,0.0,0.0,0.0,0.0,0.0,-4.5621,-4.5523,-4.5575,-4.5778,-4.6196,-4.6578,-4.7344,-4.8545,-4.9357,-5.0236,-5.1185,-5.2181,-5.2283,-5.1522,-5.0777,-5.0304,-5.0033,-4.8798,-4.824,-4.8125,-4.6904,-4.6363,-4.6227,-4.4677,-4.3504,-4.2574,0.0,0.0,0.0,0.0,0.0,0.0,0.0,0.0,0.0,-3.5504,-3.5687,-3.5774,-3.5101,-3.4738,-3.4361,-3.3459,-3.242,-3.1606,-3.177,-3.1345,-3.1371,-3.306,-3.3441,0.0,0.0,-3.4537,-3.3658,-3.3658,-3.3068,0.0,-3.1964,-3.2272,-3.2361,-3.1818,-3.2098,0.0,0.0,0.0,0.0,0.0,0.0,0.0,0.0,0.0,0.0,0.0,-3.2353,-3.2222,-3.2481,-3.2251,-3.1903,-3.1495,-3.1076,-3.0786,-3.0598,-3.0598,-3.0699,-3.0843,-3.0685,-3.0598,-3.0598,-3.0598,-3.0598,-3.0569,-3.0089,-2.9798,-2.9479,-2.8406,-2.8173,-2.839,-2.839,-2.8797,-2.9435,0.0,0.0,0.0,0.0,0.0,0.0,0.0,0.0,-4.7572,-4.8532,-4.8532,-4.8731,0.0,0.0,0.0,0.0,-4.7011,-4.5776,-4.4668,-4.4493,-4.4708,-4.5276,-4.5693,-4.6549,-4.7855,-4.9357,-5.0168,-5.0338,-5.1369,-5.1488,-5.076,-5.0304,-4.9932,-4.961,-4.8731,-4.802,-4.7394,-4.621,-4.5365,-4.4688,-4.347,-4.2523,-4.188,0.0,0.0,0.0,0.0,0.0,0.0,0.0,0.0,0.0,-3.5504,-3.5594,-3.5585,-3.5053,-3.4461,-3.379,-3.3008,-3.2017,-3.1302,-3.1538,-3.1409,-3.1574,-3.2847,-3.3583,-3.4349,0.0,-3.4663,-3.3853,-3.3765,-3.2952,0.0,-3.1676,-3.1443,-3.1157,-3.0668,-3.0723,0.0,0.0,0.0,0.0,0.0,0.0,0.0,0.0,0.0,0.0,0.0,-3.1179,-3.1194,-3.1338,-3.1428,-3.1395,-3.1134,-3.0786,-3.0598,-3.0598,-3.0598,-3.0598,-3.0598,-3.0598,-3.0598,-3.0598,-3.0336,-3.006,-2.9813,-2.9406,-2.9102,-2.8797,-2.8303,-2.8187,-2.8361,-2.8869,-2.9305,-2.9682,0.0,0.0,-4.4204,-4.4204,0.0,0.0,0.0,0.0,-4.6613,-4.6613,-4.7265,-4.7953,0.0,0.0,0.0,0.0,0.0,0.0,-4.4614,-4.3933,-4.4045,-4.5061,-4.4909,-4.5788,-4.7939,-4.9306,-4.9661,-4.9001,-5.0355,-5.0625,-4.9898,-4.9898,-4.9543,-4.89,-4.8765,-4.7953,-4.6633,-4.5703,-4.4485,-4.3122,-4.2388,-4.1728,-4.1339,-4.2625,0.0,0.0,0.0,0.0,0.0,0.0,0.0,0.0,-3.5504,-3.5258,-3.4975,-3.4916,-3.4079,-3.3002,-3.2304,-3.1841,-3.1552,-3.1438,-3.1876,-3.2461,-3.3031,-3.4304,-3.5361,-3.5311,0.0,-3.3752,-3.3469,-3.2159,-3.1253,-3.165,-3.077,-3.0115,-3.0426,-2.9833,0.0,0.0,0.0,0.0,0.0,0.0,0.0,0.0,0.0,0.0,0.0,-2.9989,-3.0105,-2.9605,-3.0704,-3.1087,-3.0612,-3.0598,-3.0598,-3.0598,-3.0598,-3.0598,-3.0598,-3.0598,-3.0569,-3.0481,-2.9871,-2.9261,-2.8709,-2.8651,-2.8289,-2.784,-2.839,-2.8303,-2.8014,-2.9175,-2.9639,-2.9769,0.0,0.0,-4.5037,-4.5037,0.0,0.0,0.0,0.0,0.0,0.0,0.0,0.0,0.0,0.0,0.0,0.0,0.0,0.0,-4.3703,-4.2608,-4.2445,-4.3441,-4.5307,-4.709,-4.8731,-4.9069,-4.9171,-4.9001,-4.9323,-4.9103,-4.8392,-4.8392,-4.8308,-4.8075,-4.6938,-4.6227,-4.5771,-4.325,-4.1982,-4.161,-4.0865,-4.0815,-4.117,-4.0899,-4.1221,0.0,0.0,0.0,0.0,0.0,0.0,0.0,-3.5504,-3.557,-3.5583,-3.5049,-3.4035,-3.2891,-3.2282,-3.1491,-3.092,-3.1301,-3.2339,-3.3252,-3.3376,-3.3908,-3.4251,-3.3966,-3.3615,-3.3197,-3.2741,-3.1994,-3.1255,-3.0515,-3.0167,-2.9859,-2.9495,-2.9283,0.0,0.0,0.0,0.0,0.0,0.0,0.0,0.0,0.0,0.0,-2.8736,-2.8857,-2.9122,-2.9591,-2.9874,-3.0197,-3.0612,-3.0598,-3.0598,0.0,-3.0598,-3.0598,-3.0598,-3.0598,-3.0306,-2.9827,-2.9653,-2.9261,-2.8665,-2.8144,-2.8144,-2.8448,-2.8071,-2.8435,-2.9218,-2.9494,-2.9943,-3.0393,0.0,0.0,0.0,0.0,0.0,0.0,0.0,0.0,0.0,0.0,0.0,0.0,0.0,0.0,0.0,0.0,0.0,0.0,-4.3453,-4.2206,-4.2172,-4.3706,-4.5694,-4.7327,-4.846,-4.8139,-4.8122,-4.8477,-4.7411,-4.7411,-4.8443,-4.8443,-4.8443,-4.8376,-4.6887,-4.5838,-4.501,-4.2709,-4.1322,-4.0629,-4.0265,-4.0333,-4.0663,-4.0629,-4.0865,-4.1169,-4.0548,0.0,0.0,0.0,0.0,0.0,0.0,0.0,-3.5362,-3.499,-3.3802,-3.2504,-3.2205,-3.1548,-3.1132,-3.1864,-3.2785,-3.3424,-3.3032,-3.3002,-3.2991,-3.2811,-3.2793,-3.2621,-3.1926,-3.1192,-3.0482,-2.9919,-2.9504,-2.9236,-2.914,-2.9013,0.0,0.0,0.0,0.0,0.0,0.0,0.0,0.0,0.0,-2.7722,-2.7543,-2.7855,-2.8223,-2.8629,-2.9282,-2.9759,-3.0118,-3.0452,-3.0598,-3.0598,-3.0598,-3.0598,-3.0598,-3.0263,-2.9769,-2.9145,-2.8826,-2.8507,-2.8173,-2.7534,-2.777,-2.8524,-2.8164,-2.8569,-2.9419,-2.9781,-3.0113,-3.0341,0.0,0.0,0.0,0.0,0.0,0.0,0.0,0.0,0.0,0.0,0.0,0.0,0.0,0.0,0.0,0.0,0.0,0.0,-4.3275,-4.2172,-4.241,-4.4304,-4.5715,-4.6769,-4.7483,-4.6891,-4.6807,-4.7267,-4.5426,-4.5966,-4.8723,-4.8531,-4.8578,-4.8748,-4.7141,-4.5805,-4.4666,-4.2753,-4.1271,-4.0282,-4.0146,-4.018,-4.035,-4.0832,-4.0696,-4.0426,-4.1384,-4.0407,-3.8662,-3.8552,0.0,0.0,0.0,0.0,-3.4935,-3.4902,-3.3679,-3.229,-3.2146,-3.1679,-3.1483,-3.2386,-3.291,-3.3001,-3.2394,-3.2035,-3.178,-3.1683,-3.1937,-3.1914,-3.115,-3.0221,-2.9529,-2.9444,-2.8907,-2.863,-2.8934,-2.8843,0.0,0.0,0.0,0.0,0.0,0.0,0.0,0.0,0.0,-2.6942,-2.6512,-2.704,-2.7354,-2.7458,-2.8629,-2.9306,-2.9449,-3.0117,-3.0496,-3.0598,-3.0598,-3.0598,-3.0583,-2.9914,-2.9305,-2.8783,-2.8219,-2.7943,-2.7784,-2.7147,-2.7557,-2.8555,-2.8426,-2.867,-2.9211,-2.9975,-3.0117,-2.9938,0.0,0.0,0.0,0.0,0.0,0.0,0.0,0.0,0.0,0.0,-4.5843,-4.6359,0.0,0.0,-4.3354,-4.3226,-4.3227,-4.2981,-4.2397,0.0,0.0,-4.3504,-4.4418,-4.5229,-4.5991,-4.5773,-4.5378,-4.4776,-4.4359,-4.5358,-4.7591,-4.6587,-4.6836,-4.7939,-4.5821,-4.5128,-4.5331,-4.1847,-4.0646,-4.1001,-4.0367,-4.0485,-4.0984,-4.0468,-4.0578,-4.0975,-4.0407,-3.9541,-3.858,-3.7947,-3.715,0.0,0.0,0.0,-3.5115,-3.4935,-3.4153,-3.3143,-3.2326,-3.1405,-3.0972,-3.2022,-3.1997,-3.1761,-3.1712,-3.1375,-3.0941,0.0,-3.0748,-3.0948,-3.0362,-2.9742,-2.9188,-2.8731,-2.8558,-2.851,-2.859,-2.855,0.0,0.0,0.0,0.0,0.0,0.0,0.0,0.0,-2.6659,-2.638,-2.6499,-2.6589,-2.6683,-2.6809,-2.7498,-2.8167,-2.8798,-2.9433,-3.0031,-3.0598,-3.0598,-3.0598,-3.0583,-2.9914,-2.9479,-2.9305,-2.9203,-2.8843,-2.8239,-2.7523,-2.8039,-2.9203,-2.8498,-2.8626,-2.9254,-2.9883,-2.9768,-2.9383,0.0,0.0,0.0,0.0,0.0,0.0,0.0,0.0,0.0,0.0,0.0,-4.4902,-4.4502,-4.3041,-4.2118,-4.2118,-4.2118,-4.1931,-4.1432,-4.1712,-4.2157,-4.277,-4.3033,-4.3546,-4.4288,-4.3743,-4.3519,-4.3574,-4.268,-4.3824,-4.6759,-4.587,-4.6683,-4.8863,-4.6321,-4.5399,-4.5466,-4.1677,-4.0536,-4.1136,-4.0417,-4.0299,-4.0544,-4.0231,-4.0316,-4.0527,-4.0155,-3.9696,-3.9092,-3.8064,-3.7383,-3.6784,-3.5797,0.0,0.0,0.0,-3.4322,-3.3262,-3.2172,-3.1255,-3.0756,-3.141,-3.136,-3.108,-3.0966,-3.0701,-3.0362,-3.0134,-3.0037,-2.9917,-2.9689,-2.9208,-2.8775,-2.8546,-2.851,-2.851,-2.851,-2.851,0.0,0.0,0.0,0.0,0.0,0.0,0.0,0.0,-2.6615,-2.6236,-2.6339,-2.6129,-2.6044,-2.6132,-2.6435,-2.6902,-2.7591,-2.8584,-2.9603,-3.0598,-3.0598,-3.0598,-3.0598,-3.0188,-2.9781,-2.9391,-2.9001,-2.8828,-2.8727,-2.8083,-2.8526,-2.9567,-2.8864,-2.8931,-2.9452,-2.9813,-2.9711,-2.9452,0.0,0.0,0.0,0.0,0.0,0.0,0.0,0.0,0.0,0.0,0.0,-4.3564,-4.3518,0.0,0.0,0.0,-4.1398,-4.1298,-4.0825,-4.1199,-4.1621,-4.2008,-4.1883,-4.2072,-4.2638,-4.1953,-4.1743,-4.2127,-4.0969,-4.2295,-4.5868,-4.5364,-4.6776,-4.9584,-4.7214,-4.5983,-4.5426,-4.2286,-4.1255,-4.1694,-4.0747,-4.0282,-4.0096,-4.0096,-4.0096,-4.0096,-4.0096,-3.9935,-3.9497,-3.8179,-3.7575,-3.716,-3.5855,-3.5372,0.0,0.0,0.0,-3.3241,-3.2121,-3.1254,-3.0705,-3.091,-3.0803,-3.061,-3.0362,0.0,-2.9928,0.0,-2.9376,-2.91,-2.91,-2.8775,-2.851,-2.851,-2.851,-2.851,-2.851,-2.851,0.0,0.0,0.0,0.0,0.0,0.0,0.0,0.0,-2.6684,-2.6245,-2.6213,-2.5756,-2.5512,-2.5465,-2.5548,-2.5796,-2.627,-2.7715,-2.9003,-3.0085,-3.0085,-3.016,-3.0251,-2.9931,-2.9584,-2.922,-2.8912,-2.894,-2.9236,-2.858,-2.8905,-2.9752,-2.911,-2.9062,-2.9392,-2.9656,-2.9583,-2.9392,0.0,0.0,0.0,0.0,0.0,0.0,0.0,0.0,0.0,0.0,0.0,-4.2756,-4.2756,-4.1995,-4.1222,-4.0524,-4.1099,-4.1298,-4.0825,-4.0412,-4.051,-4.1238,-4.1124,0.0,-4.1122,-4.0822,-4.0327,-3.9694,-3.9478,-4.1233,-4.4768,-4.4933,-4.6543,-4.9259,-4.8042,-4.675,-4.5411,-4.3888,-4.324,-4.3156,-4.1728,-4.0713,-4.0096,-4.0096,-4.0096,-4.0096,-4.0096,-3.9935,-3.9482,-3.807,-3.7516,-3.717,-3.5736,-3.5379,-3.5439,0.0,0.0,0.0,-3.2331,-3.1492,-3.0826,-3.0653,-3.0433,-3.0208,-3.0044,0.0,-2.9415,-2.8731,-2.857,-2.8546,-2.8546,-2.8522,-2.851,-2.851,-2.851,-2.851,-2.851,-2.851,0.0,0.0,0.0,0.0,0.0,0.0,0.0,0.0,-2.6688,-2.6332,-2.6203,-2.5633,-2.5174,-2.4865,-2.4893,-2.4992,-2.5082,-2.6856,-2.8034,-2.862,-2.862,-2.8889,-2.9328,-2.8634,-2.8505,-2.8876,-2.9476,-2.9737,-2.9723,-2.8977,-2.912,-2.9721,-2.9019,-2.8748,-2.8816,-2.9392,-2.9237,-2.883,0.0,0.0,0.0,0.0,0.0,0.0,0.0,0.0,0.0,0.0,0.0,0.0,0.0,-4.1074,-4.0508,-4.0233,-4.0456,-4.0514,-4.0377,-4.0196,-4.0231,-4.0485,-4.0271,-4.0167,-4.0167,-3.9894,-3.9644,-3.9379,-3.9325,-4.0442,-4.2601,-4.314,-4.3949,-4.4962,-4.5711,-4.5837,-4.5252,-4.2378,-4.1497,-4.1914,-4.0899,-4.035,-4.0096,-4.0096,-4.0096,-4.007,-4.0011,-3.9858,-3.9549,-3.8526,-3.7842,-3.7233,-3.6322,-3.5761,-3.5472,-3.5261,-3.418,-3.2928,-3.2382,-3.1573,-3.0772,-3.0212,-2.9899,-2.9551,-2.9034,-2.901,-2.8858,-2.8141,-2.827,-2.851,-2.851,-2.851,-2.851,-2.851,-2.851,-2.851,-2.851,-2.851,0.0,0.0,0.0,0.0,0.0,0.0,0.0,0.0,0.0,-2.6213,-2.583,-2.5484,-2.5108,-2.4626,-2.4425,-2.469,-2.5489,-2.6884,-2.787,-2.8492,-2.8492,-2.8524,-2.857,-2.8247,-2.8084,-2.8136,-2.873,-2.8953,-2.8971,-2.9195,-2.9437,-2.9637,-2.9395,-2.9279,-2.9307,-2.9532,-2.9462,-2.9307,0.0,0.0,0.0,-4.5923,0.0,-4.4175,-4.2861,-4.2033,-4.1474,-4.1238,0.0,0.0,0.0,0.0,-4.0096,-4.0096,-3.9876,-3.9842,-4.0079,-4.0062,-4.0037,-4.0037,-3.9781,-3.9625,-3.9625,-3.9405,-3.9299,-3.9299,-3.9299,-4.0001,-4.1397,-4.1893,-4.2373,-4.2916,-4.3614,-4.4156,-4.4373,-4.2215,-4.1355,-4.1377,-4.0635,-4.0205,-4.0037,-4.0037,-4.0062,-4.0087,-3.9935,-3.9807,-3.9575,-3.8737,-3.7966,-3.7226,-3.6562,-3.5797,-3.5083,-3.4651,-3.3914,-3.3087,-3.2521,-3.1861,-3.1119,-3.0343,-2.987,-2.9333,-2.8557,-2.8513,-2.8478,-2.7932,-2.8032,-2.8294,-2.8474,-2.851,-2.851,-2.851,-2.8259,-2.8179,-2.8471,-2.851,0.0,0.0,0.0,0.0,0.0,0.0,0.0,0.0,0.0,0.0,-2.5642,-2.5313,-2.4941,-2.4516,-2.4185,-2.4551,-2.5729,-2.631,-2.7006,-2.7835,-2.7835,-2.7835,-2.7802,-2.7438,-2.7291,-2.7278,-2.7644,-2.8071,-2.8556,-2.9293,-2.9602,-2.9602,-2.9602,-2.9602,-2.9602,-2.9602,-2.9602,-2.9602,-4.7855,-4.731,-4.6599,-4.5872,-4.5111,-4.435,-4.3572,-4.2811,-4.2066,-4.1339,0.0,0.0,0.0,0.0,0.0,-4.013,-3.9486,-3.9343,-4.0062,-3.9961,-3.9901,-3.9901,-3.9642,-3.9501,-3.9501,-3.9352,-3.9299,-3.9299,-3.9299,-3.9984,-4.1359,-4.1359,-4.2092,-4.3433,-4.1993,-4.1891,-4.2794,-4.3621,-4.3126,-4.1764,-4.1077,-4.0409,-3.9901,-3.9901,-3.9961,-4.0087,-3.9952,-3.9781,-3.9577,-3.8703,-3.7873,-3.7081,-3.6445,-3.5429,-3.4292,0.0,0.0,0.0,0.0,0.0,0.0,-3.1106,-3.0343,-2.9641,-2.8773,-2.8459,-2.8243,-2.8039,-2.7859,-2.7885,-2.8414,-2.8471,-2.8471,-2.851,-2.7805,-2.751,-2.8379,-2.851,0.0,0.0,0.0,0.0,0.0,0.0,0.0,0.0,-2.691,-2.6503,-2.5656,-2.5107,-2.4707,-2.4528,-2.4198,-2.4519,-2.5536,-2.5039,-2.5372,-2.6461,-2.6487,-2.6658,-2.6939,-2.6211,-2.6072,-2.6393,-2.638,-2.717,-2.8505,-2.9261,-2.9571,-2.9571,-2.9571,-2.9571,-2.9571,-2.9571,-2.9571,-2.9571,-4.7107,-4.7378,-4.7361,-4.6616,-4.5889,-4.5128,-4.4367,-4.3606,-4.2828,0.0,0.0,0.0,-4.095,-4.0899,-4.0899,-4.0899,-4.0713,-4.0443,-4.013,-3.9961,-3.9901,-3.9901,-3.9642,-3.9501,-3.9501,-3.9352,-3.9299,-3.9299,-3.9299,-3.9497,-3.9868,-3.9868,-4.0365,-4.1259,-4.0845,-4.0807,-4.1045,-4.085,-4.0585,-4.029,-4.0089,-3.9914,-3.9755,-3.9755,-3.9781,-3.9807,-3.9668,-3.959,-3.9425,-3.8624,-3.7891,-3.7078,-3.5507,-3.4106,0.0,0.0,0.0,0.0,-3.271,0.0,0.0,0.0,0.0,0.0,-2.8975,-2.8586,-2.8459,-2.8243,-2.8166,-2.8261,-2.8627,-2.8183,-2.7943,-2.8431,-2.8299,-2.8219,-2.8471,-2.851,0.0,0.0,0.0,0.0,0.0,0.0,0.0,0.0,-2.7114,-2.6622,-2.5997,-2.5349,-2.4841,-2.4528,-2.4444,-2.4429,-2.4443,-2.4973,-2.5436,-2.5837,-2.614,-2.6258,-2.6198,-2.5828,-2.5641,-2.5616,-2.6173,-2.6607,-2.7069,-2.8312,-2.8807,-2.8839,-2.9401,-2.9261,-2.8871,-2.9401,-2.9261,-2.8807,-4.74,-4.7605,-4.7555,-4.7117,-4.6443,-4.5702,-4.4945,-4.4243,-4.3495,0.0,0.0,0.0,-4.1711,-4.1931,-4.1999,-4.1694,-4.1321,-4.0923,-4.0484,-4.0017,-3.972,-3.972,-3.9537,-3.9422,-3.9422,-3.9325,-3.9299,-3.9299,-3.9299,-3.9148,-3.8871,-3.8871,-3.899,-3.9158,-3.9158,-3.9158,-3.9141,-3.8758,-3.898,-3.952,-3.9222,-3.9302,-3.959,-3.9302,-3.9408,0.0,0.0,0.0,-3.9007,-3.849,-3.7706,0.0,0.0,0.0,0.0,0.0,0.0,0.0,0.0,0.0,0.0,-3.1651,0.0,0.0,-2.9619,-2.9065,-2.8658,-2.826,-2.7903,-2.7778,-2.8191,-2.8032,-2.798,-2.837,-2.8512,-2.8618,-2.851,-2.851,-2.851,0.0,0.0,0.0,0.0,-2.851,-2.8294,-2.7726,-2.7198,-2.6561,-2.5817,-2.5484,-2.5215,-2.4964,-2.4633,-2.4459,-2.4457,-2.4566,-2.4863,-2.5377,-2.5623,-2.5758,-2.5746,-2.5409,-2.5282,-2.5288,-2.5524,-2.5893,-2.6449,-2.7304,-2.7822,-2.8117,-2.8565,-2.8468,-2.8182,-2.8885,-2.8693,-2.8117,0.0,-4.778,-4.7429,-4.7512,-4.6896,-4.6193,-4.5524,-4.4934,-4.4298,0.0,-4.3012,-4.2638,-4.2723,-4.3179,-4.3213,-4.2554,-4.1637,-4.1079,-4.0978,-4.0043,-3.9501,-3.9501,-3.9379,-3.9299,-3.9299,-3.9299,-3.9299,-3.9299,-3.9245,-3.8871,-3.8306,-3.8222,-3.7908,-3.7399,-3.7399,-3.7399,-3.7399,-3.7399,-3.8055,-3.904,-3.8435,-3.8618,0.0,0.0,-3.8865,-3.953,-3.9415,-3.898,-3.8446,-3.8165,-3.7306,0.0,0.0,0.0,0.0,0.0,-3.2273,0.0,0.0,0.0,0.0,0.0,-3.1833,0.0,-3.0629,-2.9732,-2.8879,-2.8433,-2.7589,-2.709,-2.7631,-2.8086,-2.8418,-2.8379,-2.8655,-2.8764,-2.8538,-2.851,-2.851,0.0,0.0,0.0,-2.8522,-2.8558,-2.8378,-2.7849,-2.7234,-2.6417,-2.5372,-2.5488,-2.5581,-2.5521,-2.4743,-2.4525,-2.4915,-2.403,-2.403,-2.4927,-2.5004,-2.5208,-2.5508,-2.5048,-2.4981,-2.5192,-2.4723,-2.5127,-2.6189,-2.6189,-2.6659,-2.7384,-2.7484,-2.7451,-2.7471,-2.8149,-2.7953,-2.7471,-4.6659,-4.7094,-4.7596,-4.8165,-4.768,-4.7144,-4.6993,-4.6357,-4.5868,-4.5704,-4.5094,-4.4842,-4.5446,-4.4603,-4.3915,-4.3764,-4.2512,-4.1462,-4.0886,-4.0007,-3.9501,-3.9501,-3.9379,-3.9299,-3.9299,-3.9299,-3.9299,-3.9299,-3.8772,-3.8435,-3.8294,-3.7793,-3.7517,-3.7399,-3.7399,-3.7399,-3.7399,-3.7399,-3.7546,-3.7751,-3.7634,-3.7663,-3.7809,-3.7648,-3.8023,-3.8574,-3.8546,-3.8463,-3.8165,-3.7131,-3.6259,-3.5369,0.0,0.0,0.0,-3.1884,0.0,0.0,0.0,0.0,0.0,0.0,-3.2102,0.0,-3.1858,-3.0432,-2.9311,-3.0155,-2.9323,-2.8587,-2.897,-2.9118,-2.9114,-2.8971,-2.8978,-2.8961,-2.8764,-2.8618,-2.851,0.0,0.0,0.0,-2.8546,-2.8895,-2.8931,-2.8402,-2.7438,-2.6417,-2.5372,-2.5488,-2.5411,-2.4973,-2.4801,-2.4438,-2.3808,-2.3888,-2.3888,-2.3808,-2.4502,-2.4898,-2.4973,-2.5116,-2.5022,-2.464,-2.4532,-2.4647,-2.4881,-2.4881,-2.5571,-2.6676,-2.7284,-2.7149,-2.671,-2.7438,-2.725,-2.662,-4.6046,-4.6645,-4.7261,-4.7628,-4.7395,-4.7145,-4.7145,-4.6891,-4.6555,-4.6188,-4.6246,-4.6173,-4.5791,-4.5436,-4.4901,-4.4164,-4.3036,-4.2028,-4.132,-4.0423,-3.9761,-3.9438,-3.9342,-3.9299,-3.9299,-3.9299,-3.9148,-3.8799,-3.8463,-3.7966,-3.7354,-3.7041,-3.6753,-3.643,-3.643,-3.643,-3.643,-3.643,-3.643,-3.6461,-3.6784,0.0,-3.737,-3.7041,-3.731,-3.7879,-3.8193,-3.8108,-3.7648,-3.6368,-3.573,0.0,-3.3922,-3.3275,-3.2871,0.0,-3.1765,-3.1616,0.0,0.0,0.0,-3.2365,0.0,0.0,0.0,-3.1451,-3.0787,-3.0351,-2.9645,-2.905,-2.8879,-2.9013,-2.9098,-2.9033,-2.8918,-2.8927,-2.9069,-2.9074,-2.9016,-2.8907,0.0,0.0,-2.8955,-2.9136,-2.8967,-2.8174,-2.7342,-2.6537,-2.5745,-2.5527,-2.5344,-2.5066,-2.48,-2.4447,-2.4013,-2.366,-2.3559,-2.3636,-2.4105,-2.4425,-2.4667,-2.4564,-2.453,-2.4506,-2.4254,-2.4145,-2.4169,-2.441,-2.4735,-2.5191,-2.6052,-2.6195,-2.5931,-2.6676,-2.6471,-2.5896,-4.5188,-4.5681,-4.6125,-4.6273,-4.6388,-4.6487,-4.6487,-4.6552,-4.6498,-4.603,-4.6736,-4.6832,-4.5652,-4.5785,-4.5535,-4.4504,-4.324,-4.2404,-4.2087,-4.1012,-4.0144,-3.9547,-3.939,-3.9253,-3.9121,-3.8996,-3.8662,-3.8137,-3.7994,-3.7413,-3.6399,-3.629,-3.5973,-3.5504,-3.5504,-3.5504,-3.5504,-3.5504,0.0,-3.5537,0.0,-3.6554,-3.6996,-3.643,-3.6631,-3.728,-3.7764,-3.7706,-3.7191,-3.5941,-3.5602,-3.5411,-3.3949,-3.3499,0.0,0.0,0.0,0.0,0.0,0.0,0.0,0.0,0.0,-3.2591,0.0,0.0,0.0,0.0,0.0,0.0,0.0,0.0,0.0,0.0,0.0,0.0,0.0,-2.9573,0.0,-2.9229,0.0,0.0,-2.934,-2.9388,-2.8967,-2.7774,-2.7294,-2.6753,-2.6129,-2.5588,-2.5312,-2.5312,-2.4891,-2.4592,-2.4484,-2.3592,-2.3372,-2.3806,-2.3806,-2.4037,-2.4506,-2.4097,-2.4085,-2.435,-2.3941,-2.3806,-2.383,-2.4206,-2.4194,-2.4035,-2.4831,-2.5155,-2.5238,-2.5928,-2.5791,-2.5382,-4.2949,-4.3013,-4.3301,-4.3938,-4.4541,-4.4951,-4.4951,-4.497,-4.5181,-4.5746,-4.643,-4.6804,-4.6642,-4.552,-4.4984,-4.5471,-4.31,-4.21,-4.3297,-4.1491,-4.0376,-4.0293,-3.971,-3.9101,-3.8423,-3.7895,-3.7576,-3.7501,-3.6906,-3.6538,-3.6399,-3.5846,-3.5569,-3.5504,-3.5504,-3.5504,-3.5504,-3.5504,-3.5504,0.0,-3.5554,-3.5651,0.0,-3.5619,-3.5973,-3.6508,-3.66,-3.6951,-3.7191,0.0,-3.5861,-3.5951,0.0,-3.3499,-3.3245,-3.1974,0.0,0.0,0.0,0.0,0.0,0.0,-3.1975,0.0,0.0,0.0,-3.1985,-3.2863,0.0,0.0,0.0,0.0,0.0,0.0,0.0,0.0,-2.9523,-2.9811,-2.9813,-2.8949,-2.9322,0.0,0.0,-2.9725,-2.9364,-2.7798,-2.763,-2.7188,-2.6154,-2.5588,-2.5312,-2.5312,-2.5252,-2.4987,-2.4496,-2.3965,-2.3746,-2.3806,-2.3806,-2.4037,-2.4484,-2.4424,-2.4218,-2.389,-2.383,-2.3806,-2.3806,-2.3866,-2.4085,-2.4446,-2.4566,-2.4568,-2.4662,-2.5202,-2.5382,-2.5312,-4.1803,-4.2301,-4.2683,-4.3018,-4.3284,-4.3633,-4.4044,-4.4455,-4.4938,-4.5668,-4.5655,-4.5575,-4.554,-4.4631,-4.4118,-4.4405,-4.2943,-4.2139,-4.2316,-4.1124,-4.0206,-3.9787,-3.9147,-3.8677,-3.8344,-3.7723,-3.7221,-3.6814,-3.6554,-3.6227,-3.5878,-3.5619,-3.5504,-3.5504,-3.5504,-3.5504,-3.5504,0.0,-3.5504,0.0,0.0,0.0,0.0,-3.5504,-3.5878,-3.6337,-3.599,-3.629,-3.6692,0.0,-3.5683,0.0,0.0,0.0,0.0,0.0,0.0,0.0,0.0,0.0,0.0,0.0,0.0,0.0,-3.2942,0.0,-3.2632,0.0,0.0,0.0,0.0,0.0,0.0,0.0,-3.1355,0.0,0.0,0.0,-2.9973,0.0,0.0,0.0,0.0,0.0,0.0,0.0,-2.7402,-2.6885,-2.6142,-2.5588,-2.5312,-2.5312,-2.5312,-2.5204,-2.4975,-2.447,-2.4206,-2.4206,-2.4206,-2.4157,-2.4085,-2.4085,-2.4011,-2.3806,-2.3806,-2.3806,-2.3806,-2.3806,-2.3926,-2.4085,-2.4085,-2.4266,-2.4544,-2.5107,-2.5312,-2.5312,-4.0737,-4.1364,-4.171,-4.171,-4.1866,-4.2162,-4.2712,-4.3561,-4.4259,-4.4762,-4.4557,-4.4396,-4.4548,-4.3952,-4.3623,-4.376,-4.2978,-4.2359,-4.2027,-4.1191,-4.026,-3.9377,-3.8764,-3.8247,-3.7855,-3.7216,-3.6631,-3.6133,-3.6133,-3.5941,-3.5504,-3.5504,-3.5504,-3.5504,-3.5504,-3.5504,-3.5504,0.0,-3.5504,-3.5504,-3.5504,-3.5504,-3.5504,-3.5504,-3.5765,-3.6116,-3.5651,-3.5797,-3.6054,-3.5441,-3.522,0.0,-3.3649,0.0,0.0,0.0,0.0,0.0,-3.1511,0.0,0.0,0.0,0.0,0.0,0.0,0.0,0.0,0.0,0.0,0.0,0.0,0.0,0.0,0.0,0.0,-3.1621,0.0,0.0,0.0,0.0,0.0,0.0,0.0,0.0,0.0,0.0,0.0,-2.6801,-2.6142,-2.5733,-2.5456,-2.5312,-2.5444,-2.5456,-2.5312,-2.4748,-2.4484,-2.4484,-2.4374,-2.4121,-2.3794,-2.3649,-2.3661,-2.3794,-2.3649,-2.3746,-2.3965,-2.3866,-2.389,-2.4011,-2.4011,-2.4194,-2.4544,-2.5107,-2.5312,-2.5336,-3.9445,-3.9511,-3.9511,-3.9511,-4.0051,-4.0471,-4.0501,-4.1696,-4.2602,-4.2582,-4.3131,-4.3793,-4.444,-4.3842,-4.3688,-4.4387,-4.3212,-4.2719,-4.3466,-4.2169,-4.0764,-3.9456,-3.8805,-3.7847,-3.6492,-3.5861,-3.5569,-3.5537,-3.5537,-3.5537,-3.5504,-3.5504,-3.5504,-3.5504,-3.5504,-3.5504,-3.5504,-3.5504,-3.5504,-3.5504,-3.5504,-3.5504,-3.5504,0.0,-3.5504,-3.5537,-3.5504,0.0,0.0,-3.4773,-3.4533,0.0,0.0,0.0,0.0,0.0,0.0,0.0,0.0,0.0,0.0,-3.1511,0.0,0.0,0.0,0.0,-3.2613,0.0,0.0,0.0,0.0,0.0,0.0,0.0,0.0,0.0,0.0,0.0,0.0,0.0,0.0,0.0,0.0,0.0,0.0,0.0,-2.811,0.0,-2.6154,-2.6081,-2.5841,-2.5324,-2.5805,-2.5829,-2.5312,-2.4748,-2.4484,-2.4472,-2.4025,-2.3818,-2.3782,-2.3276,-2.3324,-2.377,-2.3264,-2.358,-2.4424,-2.4011,-2.4061,-2.446,-2.446,-2.4506,-2.4544,-2.5107,-2.5312,-2.5384,-3.9388,-3.9388,-3.9388,-3.9388,-3.9604,-3.9903,-4.0337,-4.0783,-4.1571,-4.2848,-4.2493,-4.269,-4.4191,-4.3376,-4.2984,-4.3648,-4.2895,-4.2337,-4.216,-4.1269,0.0,-3.9436,-3.8758,-3.8005,-3.708,-3.649,-3.5938,-3.5504,-3.5504,-3.5504,-3.5504,-3.5504,-3.5439,-3.5294,-3.5294,-3.5213,0.0,0.0,0.0,0.0,0.0,-3.5359,-3.5504,0.0,-3.5504,-3.5504,-3.5504,-3.5205,0.0,-3.4593,-3.4219,-3.3679,-3.2796,-3.2512,-3.2377,-3.1705,-3.1511,0.0,0.0,0.0,-3.1511,-3.1511,0.0,0.0,0.0,0.0,0.0,0.0,0.0,0.0,0.0,0.0,0.0,0.0,0.0,0.0,0.0,0.0,0.0,0.0,0.0,0.0,0.0,0.0,0.0,0.0,-2.706,0.0,-2.5612,-2.5913,-2.5853,-2.5324,-2.5817,-2.5841,-2.5312,-2.5131,-2.5035,-2.5035,-2.4518,-2.4097,-2.3782,-2.3252,-2.3107,-2.3276,-2.3095,-2.3568,-2.4448,-2.3977,-2.4278,-2.5011,-2.465,-2.4735,-2.5059,-2.524,-2.5312,-2.5384,-3.9433,-3.9337,-3.9301,-3.9388,-3.9388,-3.9574,-3.9993,-4.0247,-4.095,-4.2447,-4.2102,-4.2297,-4.3793,-4.321,-4.288,0.0,-4.294,-4.2327,-4.1482,-4.0995,0.0,-3.9095,-3.8392,-3.7734,0.0,0.0,0.0,-3.5504,-3.5504,-3.5472,-3.5392,-3.5392,-3.5294,-3.5082,-3.5082,-3.5001,-3.4902,-3.4902,-3.4902,0.0,0.0,-3.5213,0.0,0.0,-3.5439,-3.5504,0.0,-3.5055,-3.4474,-3.4234,-3.3694,-3.3036,-3.2377,-3.2138,-3.2049,-3.163,-3.1511,-3.1511,-3.1511,-3.1511,0.0,-3.1511,-3.1511,0.0,-3.2333,0.0,-3.2243,0.0,0.0,0.0,0.0,0.0,0.0,0.0,0.0,0.0,0.0,-3.1938,0.0,0.0,0.0,0.0,0.0,0.0,0.0,-2.752,-2.6833,-2.6178,0.0,0.0,-2.5853,-2.5324,-2.5817,-2.5841,-2.5312,-2.5312,-2.5216,-2.5023,-2.4506,-2.3977,-2.3505,-2.2975,-2.2939,-2.3276,-2.3095,-2.3676,-2.4759,-2.4242,-2.4542,-2.5276,-2.4927,-2.5011,-2.5312,-2.5312,-2.5432,-2.5612,-3.9508,-3.9243,-3.92,-3.9442,-3.9403,-3.9343,-3.9373,-3.9911,-4.0606,-4.1324,-4.2006,-4.2626,-4.326,-4.3319,-4.329,-4.329,-4.329,-4.2737,-4.1459,-4.1422,0.0,0.0,-3.7808,-3.7165,-3.6552,0.0,0.0,0.0,0.0,-3.5359,-3.518,-3.518,-3.5082,-3.4902,-3.4902,0.0,-3.4868,-3.4868,-3.4902,-3.4902,-3.5115,-3.5082,-3.4935,-3.5115,-3.5294,-3.5472,-3.5472,-3.504,-3.4354,-3.3709,-3.3036,-3.2333,-3.1705,-3.1511,-3.1511,-3.1511,-3.1511,-3.1511,-3.1511,-3.1511,-3.1511,-3.1511,0.0,0.0,0.0,0.0,-3.2647,0.0,0.0,0.0,0.0,0.0,0.0,0.0,0.0,0.0,0.0,0.0,0.0,0.0,0.0,0.0,0.0,0.0,-2.9532,-2.7903,-2.7373,-2.6688,0.0,0.0,-2.5877,-2.5324,-2.5817,-2.5841,-2.5312,-2.5312,-2.5059,-2.452,-2.4049,-2.3565,-2.3035,-2.2474,-2.2763,-2.3697,-2.3192,-2.3809,-2.5192,-2.4687,-2.4819,-2.5312,-2.5312,-2.5312,-2.5312,-2.5312,-2.5624,-2.5985,-3.9113,-3.9306,-3.9771,-4.0296,-3.9225,-3.8498,-3.9081,-3.9326,-4.0099,-4.1893,-4.2291,-4.283,-4.3943,-4.3589,-4.329,-4.329,-4.329,0.0,0.0,0.0,0.0,-3.9215,-3.8497,-3.7838,-3.718,-3.6403,-3.5785,-3.5294,0.0,-3.5034,-3.4968,-3.4968,-3.4916,-3.475,-3.475,-3.465,-3.4549,-3.4549,-3.4616,-3.4765,-3.4798,-3.485,-3.4902,0.0,-3.5001,-3.5082,-3.5213,-3.4599,-3.3724,-3.3559,-3.2736,-3.1735,-3.1555,-3.1511,-3.1511,-3.1511,-3.1511,-3.1511,-3.1511,-3.1511,-3.1511,-3.1511,-3.1511,-3.1555,0.0,0.0,0.0,0.0,0.0,0.0,0.0,0.0,0.0,0.0,0.0,0.0,0.0,0.0,0.0,-3.1856,0.0,0.0,0.0,-2.9036,-2.8251,-2.7816,-2.683,-2.6052,0.0,0.0,0.0,-2.5336,-2.5817,-2.5841,-2.5312,-2.5312,-2.524,-2.5107,-2.4578,-2.4061,-2.3589,-2.3047,-2.2746,-2.2582,-2.245,-2.3075,-2.4191,-2.4059,-2.4494,-2.5312,-2.5312,-2.5312,-2.5312,-2.5312,-2.5396,-2.554,-3.9335,-3.9459,-3.9662,-3.9622,-3.8743,-3.8444,-3.9631,-3.9313,-3.9558,-4.1173,-4.1567,0.0,-4.2798,-4.2971,-4.305,-4.305,-4.2758,0.0,-4.1216,0.0,0.0,-3.9185,-3.8234,-3.7565,-3.7193,-3.617,0.0,-3.5082,0.0,-3.4868,-3.4817,-3.4817,-3.4716,-3.4563,0.0,-3.4515,-3.4414,-3.4414,-3.4481,-3.4597,-3.4664,-3.4683,0.0,-3.4769,-3.4817,-3.4817,-3.4949,-3.4238,-3.3284,-3.3362,-3.2467,-3.1336,-3.138,-3.1409,-3.1409,-3.1409,-3.1438,-3.1511,-3.1511,-3.1511,-3.1511,-3.1511,-3.1511,-3.1585,-3.1869,-3.1929,-3.2034,0.0,0.0,-3.2991,0.0,0.0,0.0,0.0,0.0,0.0,0.0,0.0,0.0,0.0,-3.0579,0.0,0.0,-2.8249,-2.7426,-2.7913,-2.7196,-2.6634,0.0,0.0,0.0,-2.5685,-2.5937,-2.5841,-2.5312,-2.554,-2.554,-2.53,-2.4554,-2.4157,-2.4073,-2.336,-2.3063,-2.3207,-2.3207,-2.3676,-2.448,-2.448,-2.4783,-2.5312,-2.5312,-2.5312,-2.5312,-2.5312,-2.5312,-2.5348,-3.9871,-3.9689,-3.9375,-3.8705,-3.8507,-3.8999,-4.0622,-3.9826,0.0,-4.0217,0.0,-4.11,-4.1308,-4.2144,-4.2659,-4.257,0.0,-4.142,-4.0722,-4.0109,-3.9489,-3.8811,-3.7588,-3.691,-3.691,-3.5579,-3.4868,0.0,-3.4835,-3.4769,-3.4664,-3.4664,-3.4563,0.0,0.0,0.0,0.0,-3.4414,-3.4414,-3.4414,-3.4481,-3.4448,-3.4414,-3.4481,-3.4582,-3.465,-3.4562,-3.3888,-3.3035,-3.3145,-3.2256,-3.1102,-3.1234,-3.1263,-3.1263,-3.1263,-3.1351,-3.1453,-3.1453,-3.1453,-3.1453,-3.1467,-3.1453,-3.1602,-3.2228,-3.2363,-3.2363,-3.2363,-3.2841,-3.2886,0.0,0.0,0.0,0.0,0.0,0.0,0.0,0.0,0.0,0.0,0.0,0.0,0.0,0.0,-2.714,-2.8134,-2.7988,0.0,0.0,0.0,0.0,-2.6009,-2.5997,-2.5805,-2.542,0.0,-2.5793,-2.5396,-2.4434,-2.4157,-2.446,-2.3592,-2.3592,-2.4326,-2.4398,-2.4687,-2.5107,-2.518,-2.5252,-2.5312,-2.5312,-2.5312,-2.5312,-2.5312,-2.5312,-2.5312,-4.0202,-4.0022,-4.0114,-4.051,-4.0133,-4.0259,-4.1637,-4.0933,-4.0475,-4.1303,-4.1951,-4.2389,-4.2444,-4.2596,-4.2482,-4.1936,-4.1789,0.0,0.0,0.0,0.0,-3.8811,-3.7588,-3.691,-3.691,-3.5458,-3.4731,-3.4731,-3.4582,-3.4481,-3.4448,-3.4448,-3.4414,0.0,0.0,0.0,-3.4414,-3.4414,0.0,-3.4346,-3.3707,-3.3845,-3.4332,-3.3707,-3.3894,-3.4375,-3.3885,-3.341,-3.3004,-3.3035,-3.2179,-3.1102,-3.1132,-3.1146,-3.1146,-3.1146,-3.1132,-3.1161,-3.1161,-3.1161,-3.119,-3.1322,-3.1234,-3.1249,-3.1587,-3.1588,-3.1544,-3.1646,-3.1765,-3.1915,-3.2124,0.0,0.0,0.0,0.0,0.0,0.0,0.0,0.0,0.0,0.0,-2.8949,0.0,0.0,0.0,0.0,0.0,0.0,0.0,0.0,0.0,0.0,-2.5444,0.0,0.0,0.0,-2.5624,-2.5949,-2.5336,-2.4855,-2.4472,-2.4338,-2.3881,-2.328,-2.3713,-2.3986,-2.4107,-2.4494,-2.4915,-2.5312,-2.5312,-2.5312,-2.5312,-2.5312,-2.5312,-2.5312,-3.8807,-3.8681,-3.8779,-3.9088,-3.8891,0.0,0.0,-3.9971,-4.0117,-4.0944,-4.1203,-4.1393,-4.1488,-4.1701,-4.1748,-4.1401,-4.0758,-4.0154,-3.954,-3.9174,-3.8837,-3.8516,-3.7287,-3.6579,-3.6579,-3.5253,-3.4549,-3.4549,-3.4448,-3.4414,-3.4414,-3.4414,-3.4414,-3.438,0.0,-3.3776,0.0,0.0,0.0,-3.3171,-3.2804,-3.2875,-3.3171,-3.2769,-3.2875,-3.3122,-3.2553,-3.2021,-3.1673,-3.2186,-3.1672,-3.0851,-3.0925,-3.0955,-3.0955,-3.0955,-3.1014,-3.1117,-3.1117,-3.1117,-3.1117,-3.119,-3.1132,-3.1132,-3.1249,-3.1249,-3.122,-3.1278,-3.1278,-3.1471,-3.2034,-3.2469,0.0,0.0,0.0,0.0,0.0,0.0,0.0,0.0,0.0,0.0,0.0,0.0,0.0,0.0,0.0,-2.8113,0.0,0.0,0.0,0.0,0.0,0.0,0.0,0.0,0.0,-2.5685,-2.5155,-2.4915,-2.4927,-2.465,-2.4398,-2.4206,-2.4458,-2.4566,-2.459,-2.4831,-2.5083,-2.5312,-2.5312,-2.5312,-2.5312,-2.5312,-2.5312,-2.5348,-3.7659,-3.7538,-3.758,-3.7538,-3.7538,-3.777,-3.8423,-3.8898,-3.9424,-4.0075,-4.0,-3.996,-4.0121,-4.0385,-4.0476,-4.0347,-3.9301,-3.8599,-3.8456,-3.8007,-3.7722,-3.7722,-3.6671,-3.6112,-3.6112,-3.4994,-3.4414,-3.4414,-3.4414,-3.4414,-3.4414,-3.4414,0.0,0.0,0.0,0.0,0.0,0.0,-3.211,-3.2074,-3.1928,-3.1928,-3.2074,-3.1928,-3.1928,-3.2042,-3.148,-3.0928,-3.0576,-3.1237,-3.0883,-3.0176,-3.0282,-3.0403,-3.0538,-3.0538,-3.0672,-3.0791,-3.0955,-3.0895,-3.0821,-3.0984,-3.1014,-3.1014,-3.1087,-3.1087,-3.1043,-3.1087,-3.1087,-3.1235,-3.1883,-3.2019,0.0,0.0,0.0,0.0,0.0,0.0,0.0,0.0,0.0,0.0,-2.8687,0.0,0.0,0.0,0.0,-2.85,-2.7582,-2.7951,-2.758,0.0,0.0,-2.5985,-2.572,0.0,-2.5781,-2.5468,-2.4939,-2.4903,-2.53,-2.4879,-2.4855,-2.5155,-2.5264,-2.5312,-2.5312,-2.5312,-2.5312,-2.5312,-2.5312,-2.5312,-2.5312,-2.5312,-2.5312,-2.5396,-3.8312,-3.819,-3.819,0.0,0.0,-3.8437,-3.902,-3.9169,-3.9258,-3.9311,-3.9297,-3.9297,-3.9297,-3.8917,-3.8398,-3.7822,-3.718,-3.6593,-3.5992,-3.6122,-3.6221,-3.6221,-3.5755,-3.5479,-3.5479,-3.4762,-3.4414,0.0,-3.4414,-3.4414,0.0,-3.4414,0.0,0.0,0.0,0.0,0.0,-3.211,-3.211,-3.2051,-3.1304,-3.1452,-3.2001,-3.1304,-3.1489,-3.2006,-3.1338,-3.1094,-3.0959,-3.0501,-2.9621,-2.8684,-2.8716,-2.9188,-2.9716,-2.9716,-2.9716,-2.987,-3.0477,-3.019,-2.9901,-3.0642,-3.0732,-3.0732,-3.1014,-3.0955,-3.0895,-3.1043,-3.0955,-3.1071,-3.1853,-3.0847,-3.027,0.0,0.0,0.0,0.0,0.0,0.0,0.0,0.0,0.0,0.0,-2.9114,0.0,0.0,-2.8612,-2.85,-2.7656,-2.7607,-2.7201,-2.6384,0.0,-2.642,-2.7015,-2.5913,-2.56,-2.6021,-2.5492,-2.5264,-2.5312,-2.5252,-2.4999,-2.4592,-2.5107,-2.5312,-2.5312,-2.5312,-2.5312,-2.5312,-2.5312,-2.5312,-2.5312,-2.5312,-2.5312,-2.5456,0.0,0.0,0.0,0.0,0.0,0.0,0.0,-3.752,-3.7403,-3.7007,-3.802,-3.8711,-3.8711,-3.7869,-3.7203,-3.6917,-3.6347,-3.5886,-3.5642,-3.5388,-3.5292,-3.5292,-3.4432,-3.3974,-3.3974,-3.3338,-3.303,0.0,0.0,0.0,0.0,0.0,0.0,0.0,0.0,-3.1659,-3.1341,-3.0897,-3.0722,-3.0684,-3.0355,-3.0419,-3.0684,-3.0355,-3.0432,-3.0644,-3.0023,-2.9779,-2.9688,-2.9132,-2.8958,-2.8988,-2.8988,-2.8952,-2.8921,-2.8921,-2.8921,-2.8985,-2.9268,-2.9142,-2.9016,-2.9331,-2.9362,-2.9362,-2.9501,-2.9501,-2.9563,-3.0085,-3.0129,-3.0147,-3.0351,-3.0188,-3.0064,0.0,0.0,0.0,0.0,0.0,0.0,0.0,0.0,0.0,0.0,0.0,0.0,0.0,0.0,-2.8937,-2.7767,-2.757,0.0,-2.6882,0.0,-2.5925,-2.6517,-2.572,-2.5408,-2.5624,-2.5408,-2.5312,-2.5312,-2.5312,-2.5192,-2.5011,-2.5216,-2.5312,-2.5312,-2.5312,-2.5312,-2.5312,-2.5312,-2.5312,-2.5312,-2.5312,-2.5312,-2.5372,-3.6405,0.0,-3.5906,0.0,-3.6044,-3.5918,-3.6342,-3.6405,-3.6157,-3.5571,-3.6566,-3.732,-3.732,-3.6399,-3.5801,-3.5801,-3.5083,-3.467,-3.4856,-3.4259,-3.3974,-3.4162,-3.3222,0.0,-3.2748,-3.2327,-3.211,-3.211,-3.211,0.0,0.0,0.0,0.0,0.0,-3.1156,-3.0796,-3.0545,-3.0037,-2.9792,-2.9792,-2.9792,-2.9792,-2.9792,-2.9792,-2.9792,-2.9741,-2.9327,-2.9176,-2.9126,-2.8737,-2.8759,-2.8921,-2.8749,-2.8572,-2.8396,-2.8254,-2.8214,-2.8247,-2.846,-2.8363,-2.8247,-2.846,-2.8492,-2.8492,-2.8492,-2.8492,-2.8666,-2.9156,-2.9282,-2.9273,-2.9312,-2.9538,-2.9684,-2.9535,0.0,0.0,0.0,0.0,0.0,0.0,-2.7014,-2.7241,-2.7268,-2.7921,0.0,0.0,0.0,-2.8787,-2.7792,0.0,0.0,0.0,0.0,0.0,-2.6166,-2.5612,-2.5312,-2.5312,-2.5312,-2.5312,-2.5312,-2.5312,-2.5312,-2.5312,-2.5312,-2.5312,-2.5312,-2.5312,-2.5312,-2.5312,-2.5312,-2.5312,-2.5312,-2.5312,-2.5312,-2.5336,-3.6405,-3.6405,-3.6405,-3.6405,-3.6405,-3.6405,-3.6405,-3.6405,-3.6157,-3.5571,-3.5064,-3.4726,-3.4726,-3.428,-3.3941,-3.3941,-3.291,-3.2508,-3.3086,-3.2272,-3.1993,0.0,0.0,-3.2123,-3.2123,-3.211,-3.211,-3.211,0.0,0.0,-3.211,0.0,-3.1673,-3.0932,-3.0895,-3.052,-2.9792,-2.9792,-2.9792,-2.9792,-2.9792,-2.9792,-2.9792,-2.9792,-2.9792,-2.9792,-2.9779,-2.9779,-2.9779,-2.9779,-2.9026,-2.8033,-2.748,-2.7771,-2.8216,-2.7674,-2.7517,-2.767,-2.833,-2.8019,-2.767,-2.833,-2.8492,-2.8492,-2.8492,-2.8492,-2.8492,-2.8524,-2.8524,-2.8682,-2.9199,-2.8764,-2.8691,-2.9803,0.0,0.0,0.0,0.0,0.0,0.0,-2.8235,-2.8473,-2.7394,-2.8273,0.0,0.0,0.0,0.0,0.0,0.0,0.0,-2.6432,-2.6215,0.0,-2.6396,-2.5683,-2.5312,-2.5312,-2.5312,-2.5312,-2.5312,-2.5312,-2.5312,-2.5312,-2.5312,-2.5312,-2.5312,-2.5312,-2.5312,-2.5312,-2.5312,-2.5312,-2.5312,-2.5312,-2.5312,-2.5384,-3.6405,-3.6405,-3.6405,-3.6405,-3.6405,-3.6405,-3.6405,-3.6405,-3.6031,-3.5056,-3.4826,-3.4437,-3.3684,-3.3445,-3.3332,0.0,-3.2654,-3.2453,0.0,-3.1744,-3.122,-3.1754,-3.0984,-3.0545,-3.0545,-3.0545,-3.0545,-3.0545,0.0,0.0,0.0,-3.0545,-3.0394,-3.0139,-3.0139,-3.0037,-2.9792,-2.9792,-2.9792,-2.9792,-2.9792,-2.9792,-2.9792,-2.9792,-2.9792,-2.9792,-2.9792,-2.9792,-2.9792,-2.9792,-2.9289,-2.8561,-2.8009,-2.7496,-2.7045,-2.6867,-2.6816,-2.685,-2.7061,-2.6973,-2.6871,-2.7061,-2.7129,-2.7129,-2.7129,-2.7484,-2.7703,-2.7229,-2.7517,-2.7939,-2.8402,-2.8311,-2.8386,-2.9135,-2.8773,0.0,0.0,0.0,0.0,0.0,-2.7065,-2.714,-2.6788,-2.7381,0.0,0.0,0.0,0.0,0.0,0.0,0.0,0.0,-2.6239,0.0,-2.6745,-2.5757,-2.5312,-2.5312,-2.5312,-2.5492,-2.5841,-2.5841,-2.5841,-2.5841,-2.5841,-2.5636,-2.5312,-2.5312,-2.5312,-2.5348,-2.5709,-2.5841,-2.5889,-2.6237,-2.6381,-2.6405,-3.6405,-3.6405,-3.6405,-3.6405,-3.6405,-3.6329,-3.6094,-3.6056,-3.5667,-3.4562,-3.4412,-3.4073,-3.3224,-3.3124,0.0,-3.3124,-3.2554,-3.2453,-3.3043,-3.1537,-3.0846,-3.1361,-3.0369,-2.9792,-2.9792,-2.9792,0.0,-2.9792,-2.9792,-2.9792,-2.9792,-2.9792,-2.9792,-2.9792,-2.9792,-2.9792,-2.9792,-2.9792,-2.9792,-2.9792,-2.9792,-2.9792,-2.9792,-2.9792,-2.9792,-2.9792,-2.9792,-2.9792,-2.9792,-2.9792,-2.9402,-2.8838,-2.8524,-2.7795,-2.7027,-2.6612,-2.6499,-2.6499,-2.6499,-2.6499,-2.6499,-2.6499,-2.6499,-2.6499,-2.6499,-2.6816,-2.7007,-2.6589,-2.6981,-2.7562,-2.8006,-2.8273,-2.8562,-2.9164,-2.89,-2.8386,-2.7682,0.0,0.0,0.0,0.0,0.0,0.0,-2.7394,-2.7573,0.0,0.0,0.0,0.0,0.0,0.0,-2.7268,-2.6407,0.0,-2.6573,-2.5949,-2.5504,-2.5312,-2.5516,-2.5781,-2.6105,-2.6322,-2.6406,-2.6406,-2.619,-2.5913,-2.5588,-2.5384,-2.5432,-2.5636,-2.5973,-2.6226,-2.6454,-2.6765,-2.6898,-2.6898,-3.6405,-3.6405,-3.6405,0.0,-3.6405,0.0,-3.5633,-3.552,-3.5119,-3.4098,-3.3922,-3.3684,-3.3174,-3.3124,-3.3124,-3.3124,0.0,0.0,0.0,-3.1574,-3.0884,-3.1373,-3.0394,-2.9829,-2.9792,-2.9792,-2.9792,-2.9792,-2.9792,-2.9792,-2.9792,-2.9792,-2.9792,-2.9792,-2.9792,-2.9792,-2.9792,-2.9792,-2.9792,-2.9792,-2.9792,-2.9792,-2.9792,-2.9792,-2.9792,-2.9792,-2.9792,-2.9792,-2.9792,-2.9792,-2.9402,-2.8888,-2.8888,-2.8512,-2.7896,-2.6914,-2.6587,-2.6549,-2.6549,-2.6524,-2.6499,-2.6499,-2.6499,-2.6499,-2.6499,-2.6499,-2.6499,-2.6499,-2.6939,-2.7444,-2.8009,-2.8561,-2.9076,-2.9691,-2.8913,-2.8197,-2.8109,0.0,0.0,0.0,0.0,0.0,0.0,-2.8035,-2.7664,0.0,0.0,0.0,0.0,0.0,-2.7627,-2.6238,-2.6645,-2.6657,-2.6214,-2.6142,-2.5829,-2.5312,-2.5841,-2.6117,-2.6178,-2.6693,-2.6958,-2.6922,-2.643,-2.619,-2.6117,-2.5624,-2.5709,-2.6154,-2.6202,-2.6538,-2.6958,-2.6994,-2.7006,-2.7006,0.0,0.0,-3.6405,-3.6405,-3.6405,-3.6367,-3.6194,-3.5818,-3.5257,-3.4613,-3.4161,-3.3684,-3.3174,-3.3124,-3.3124,-3.3124,-3.2554,-3.2453,-3.3043,-3.1901,-3.126,-3.1386,-3.0771,-3.0218,-2.9804,-2.9792,-2.9792,-2.9792,-2.9792,-2.9792,-2.9792,-2.9792,-2.9792,-2.9792,-2.9792,-2.9792,-2.9792,-2.9792,-2.9792,-2.9792,-2.9792,-2.9792,-2.9792,-2.9792,-2.9792,-2.9792,-2.9792,-2.9792,-2.9792,-2.9792,-2.9402,-2.8888,-2.8888,-2.8512,-2.8059,-2.7795,-2.7419,-2.7115,-2.7115,-2.6813,-2.6499,-2.6499,-2.6499,-2.6499,-2.6499,-2.6499,-2.6499,-2.6499,-2.6939,-2.7444,-2.8009,-2.8561,-2.9076,-2.9691,-2.9566,-2.9089,-2.8222,-2.7883,0.0,0.0,-2.7394,-2.7645,-2.8059,-2.7599,-2.733,0.0,0.0,0.0,0.0,-2.7648,-2.7853,-2.7344,-2.7042,-2.703,-2.7332,-2.6514,-2.5829,-2.5312,-2.5841,-2.6322,-2.6717,-2.7258,-2.7498,-2.7486,-2.7392,-2.7103,-2.6693,-2.6561,-2.6585,-2.6741,-2.7176,-2.7378,-2.7546,-2.7993,-2.8138,-2.8138,-3.6405,-3.6405,-3.6405,-3.6405,-3.6405,-3.6329,-3.6031,-3.5516,-3.4919,-3.4412,-3.3872,-3.3407,-3.3106,-3.3124,-3.3124,-3.3124,-3.2792,-3.2742,-3.3056,-3.2252,-3.1763,-3.1763,-3.1035,-3.047,-3.0181,-2.993,-2.9792,-2.9792,-2.9792,-2.9792,-2.9792,-2.9792,-2.9792,-2.9792,-2.9792,-2.9792,-2.9792,-2.9792,-2.9792,-2.9792,-2.9792,-2.9792,-2.9792,-2.9792,-2.9792,-2.9792,-2.9792,-2.9792,-2.9792,-2.9792,-2.9578,-2.9327,-2.9327,-2.9114,-2.8875,-2.8875,-2.8298,-2.7657,-2.7657,-2.7444,-2.719,-2.6939,-2.6688,-2.6499,-2.6499,-2.6499,-2.6562,-2.6813,-2.7268,-2.7821,-2.8386,-2.895,-2.9428,-2.9741,-2.9365,-2.8812,-2.8197,-2.7823,0.0,-2.7189,-2.7588,-2.7964,-2.8151,-2.7679,-2.7395,-2.7508,-2.6931,0.0,-2.7037,-2.7569,-2.7821,-2.7678,-2.7681,-2.763,-2.7678,-2.6899,-2.6202,-2.5685,-2.6466,-2.6995,-2.727,-2.7798,-2.8089,-2.8065,-2.7825,-2.7522,-2.7234,-2.6994,-2.7042,-2.7282,-2.757,-2.7834,-2.8114,-2.8402,-2.851,-2.851,-3.6405,-3.6405,-3.6405,-3.6405,-3.6405,-3.6207,-3.5683,-3.5157,-3.465,-3.4098,-3.3545,-3.3212,-3.3124,-3.3124,-3.3124,-3.3124,-3.3124,-3.3124,-3.3124,-3.2616,-3.2303,-3.2215,-3.1336,-3.0821,-3.0733,-3.0193,-2.9917,-2.9917,-2.9829,-2.9792,-2.9792,-2.9792,-2.9792,-2.9792,-2.9792,-2.9792,-2.9792,-2.9792,-2.9792,-2.9792,-2.9792,-2.9792,-2.9792,-2.9792,-2.9792,-2.9792,-2.9792,-2.9792,-2.9792,-2.9792,-2.9792,-2.9792,-2.9792,-2.9792,-2.9792,-2.9792,-2.9114,-2.8348,-2.826,-2.8109,-2.7871,-2.7394,-2.6901,-2.6499,-2.6499,-2.6499,-2.665,-2.7203,-2.772,-2.8273,-2.8787,-2.9402,-2.9792,-2.9792,-2.8988,-2.8298,-2.8085,0.0,-2.7196,-2.7086,-2.794,-2.8534,-2.843,-2.7977,-2.757,-2.7236,-2.6591,-2.6372,-2.6741,-2.7155,-2.7403,-2.7403,-2.8107,-2.8258,-2.769,-2.7162,-2.6657,-2.6238,-2.7126,-2.7606,-2.7702,-2.827,-2.851,-2.8486,-2.8041,-2.7798,-2.7774,-2.7318,-2.7402,-2.7798,-2.7798,-2.8114,-2.851,-2.851,-2.851,-2.851,-3.6405,-3.6405,-3.6405,-3.6405,-3.6405,-3.638,-3.6292,-3.5768,-3.5169,-3.4663,-3.411,-3.3596,-3.3174,-3.3124,-3.3124,-3.3124,-3.3124,-3.3124,-3.3124,-3.2993,-3.2717,-3.2227,-3.2051,-3.175,-3.1286,-3.0758,-3.0482,-3.0482,-3.0018,-2.9792,-2.9792,-2.9792,-2.9792,-2.9792,-2.9792,-2.9792,-2.9792,-2.9792,-2.9792,-2.9792,-2.9792,-2.9792,-2.9792,-2.9792,-2.9792,-2.9792,-2.9792,-2.9792,-2.9792,-2.9792,-2.9792,-2.9792,-2.9792,-2.9792,-2.9792,-2.9792,-2.9666,-2.9428,-2.89,-2.8122,-2.7394,-2.7306,-2.6901,-2.6499,-2.6499,-2.6499,-2.665,-2.7203,-2.772,-2.8273,-2.8787,-2.9402,-2.9792,-2.9792,-2.9641,-2.9151,-2.8002,0.0,-2.8114,-2.7484,-2.7988,-2.8504,-2.8919,-2.7946,-2.7273,-2.7198,-2.6142,-2.5696,-2.6202,-2.6016,-2.5951,-2.6016,-2.7628,-2.8258,-2.769,-2.7162,-2.6849,-2.6765,-2.6934,-2.7246,-2.7702,-2.827,-2.851,-2.851,-2.8426,-2.839,-2.8378,-2.8294,-2.8318,-2.839,-2.839,-2.8438,-2.851,-2.851,-2.851,-2.851,-3.6405,-3.6405,-3.6405,-3.6405,-3.6405,-3.6405,-3.6405,-3.5642,-3.4969,-3.4705,-3.3985,-3.3357,-3.3149,-3.3124,-3.3124,-3.3124,-3.3124,-3.3124,-3.3124,-3.3124,-3.2998,-3.2692,-3.2378,-3.1951,-3.1399,-3.0884,-3.062,-3.062,-3.0068,-2.9792,-2.9792,-2.9792,-2.9792,-2.9792,-2.9792,-2.9792,-2.9792,-2.9792,-2.9792,-2.9792,-2.9792,-2.9792,-2.9792,-2.9792,-2.9792,-2.9792,-2.9792,-2.9792,-2.9792,-2.9792,-2.9792,-2.9792,-2.9792,-2.9792,-2.9792,-2.9792,-2.9792,-2.9729,-2.9465,-2.8574,-2.772,-2.772,-2.7115,-2.6575,-2.6876,-2.6939,-2.7143,-2.7838,-2.8213,-2.8512,-2.8921,-2.9243,-2.9417,-2.9417,-2.9181,0.0,0.0,-2.8185,-2.8133,-2.7824,-2.7828,-2.7921,-2.8051,-2.7376,-2.6887,-2.6783,-2.5963,-2.5688,-2.6241,-2.5621,-2.5423,-2.573,-2.6563,-2.723,-2.7678,-2.7438,-2.7318,-2.7318,-2.7606,-2.787,-2.8162,-2.8402,-2.851,-2.851,-2.851,-2.851,-2.851,-2.851,-2.851,-2.851,-2.851,-2.851,-2.851,-2.851,-2.851,-2.851,-3.6405,-3.6405,-3.6405,-3.6405,-3.6405,-3.6405,-3.6405,-3.5542,-3.4818,-3.4738,-3.3872,-3.3262,-3.3093,-3.3124,-3.3124,-3.3124,-3.3124,-3.3124,-3.3124,-3.3025,-3.3025,-3.3124,-3.2612,-3.2089,-3.1622,-3.1098,-3.0823,-3.0823,-3.0273,-3.005,-3.009,-3.009,-3.0129,-3.0168,-3.0043,-2.9941,-2.9889,-2.9752,-2.9702,-2.9702,-2.9702,-2.974,-2.9792,-2.9792,-2.9792,-2.9792,-2.9792,-2.9792,-2.9792,-2.9792,-2.9792,-2.9792,-2.9792,-2.9792,-2.9792,-2.9792,-2.9792,-2.9792,-2.9792,-2.9063,-2.8298,-2.8298,-2.7557,-2.6954,-2.7346,-2.741,-2.7649,-2.8375,-2.8535,-2.8671,-2.9032,-2.9091,-2.9091,-2.9091,0.0,0.0,0.0,-2.8187,-2.8057,-2.7666,-2.7493,-2.7284,-2.6928,-2.6531,-2.6234,-2.6098,-2.5565,-2.5441,-2.5865,-2.5135,-2.4927,-2.5473,-2.5646,-2.6316,-2.7573,-2.7466,-2.7544,-2.787,-2.8198,-2.839,-2.851,-2.851,-2.851,-2.851,-2.851,-2.851,-2.851,-2.851,-2.851,-2.851,-2.851,-2.851,-2.851,-2.851,-2.851,-2.851,-3.6405,-3.6405,-3.6405,-3.6405,-3.6405,-3.6405,-3.6405,-3.5868,-3.5257,-3.4788,-3.4211,-3.3646,-3.3131,-3.3124,-3.3124,-3.3124,-3.3124,-3.3124,-3.3124,-3.2853,-3.2853,-3.3081,-3.2815,-3.2562,-3.2321,-3.1724,-3.1429,-3.1429,-3.0888,-3.0754,-3.1012,-3.1012,-3.1082,-3.1248,-3.0771,-3.0426,-3.0216,-2.9694,-2.9419,-2.9419,-2.9419,-2.956,-2.9792,-2.9792,-2.9792,-2.9792,-2.9792,-2.9792,-2.9792,-2.9792,-2.9792,-2.9792,-2.9792,-2.9792,-2.9792,-2.9792,-2.9792,-2.9792,-2.9792,-2.934,-2.8838,-2.8838,-2.8423,-2.7923,-2.7803,-2.7766,-2.7866,-2.8247,-2.8319,-2.8491,-2.8993,-2.9091,-2.9091,-2.9091,0.0,0.0,-2.8112,-2.8426,-2.8194,-2.6683,-2.6915,-2.6876,-2.5997,-2.5434,-2.5109,-2.5109,-2.4632,-2.4331,-2.4364,-2.3987,-2.4022,-2.4563,-2.5388,-2.624,-2.7209,-2.6737,-2.7147,-2.845,-2.7993,-2.8041,-2.851,-2.851,-2.851,-2.851,-2.851,-2.851,-2.851,-2.851,-2.851,-2.851,-2.851,-2.851,-2.851,-2.851,-2.851,-2.851,-3.6405,-3.6405,-3.6405,-3.6405,-3.6405,-3.6405,-3.6405,-3.5893,-3.5307,-3.4756,-3.4248,-3.3684,-3.3174,-3.3124,-3.3124,-3.3124,-3.2939,-3.2853,-3.2853,-3.2636,-3.2562,-3.2649,-3.2562,-3.2475,-3.24,-3.1792,-3.1509,-3.1509,-3.0969,-3.0741,-3.0836,-3.0836,-3.0865,-3.0976,-3.0737,-3.061,-3.0532,-2.9936,-2.9702,-2.9705,-2.9477,-2.947,-2.956,-2.974,-2.9702,-2.956,-2.956,-2.956,-2.956,-2.956,-2.956,-2.956,-2.9753,-2.9702,-2.956,-2.956,-2.956,-2.9521,-2.9417,-2.9123,-2.8888,-2.8888,-2.8511,-2.8124,-2.8276,-2.8313,-2.8349,-2.8584,-2.8617,-2.8638,-2.87,-2.8749,-2.8749,-2.8749,0.0,-2.8636,-2.834,-2.8497,-2.8176,-2.7042,-2.6558,-2.5997,-2.5073,-2.4798,-2.4693,-2.4693,-2.4482,-2.4388,-2.4388,-2.3724,-2.3434,-2.3647,-2.394,-2.4819,-2.6329,-2.6387,-2.6851,-2.7725,-2.8017,-2.8318,-2.851,-2.851,-2.851,-2.851,-2.851,-2.851,-2.851,-2.851,-2.851,-2.851,-2.851,-2.851,-2.851,-2.851,-2.851,-2.851,-3.6275,-3.6323,-3.6405,-3.6405,-3.6405,-3.6405,-3.6405,-3.5846,-3.5261,-3.4756,-3.4115,-3.3521,-3.3045,-3.2909,-3.2865,-3.2865,-3.2723,-3.2593,-3.2593,-3.2388,-3.2257,-3.2257,-3.2257,-3.2257,-3.2169,-3.1791,-3.154,-3.154,-3.1174,-3.1046,-3.1088,-3.1088,-3.1131,-3.1215,-3.1031,-3.0915,-3.0824,-3.0298,-3.0078,-3.0029,-2.9625,-2.9561,-2.9655,-2.9596,-2.9521,-2.938,-2.9341,-2.9314,-2.9302,-2.938,-2.9341,-2.9353,-2.9611,-2.9482,-2.9314,-2.9314,-2.9314,-2.9275,-2.9131,-2.9015,-2.8961,-2.8961,-2.875,-2.8525,-2.862,-2.8668,-2.8664,-2.8691,-2.8724,-2.8657,-2.855,-2.851,-2.8431,-2.8139,-2.8299,-2.8391,-2.8139,-2.8099,-2.7765,-2.6887,-2.5955,-2.5031,-2.4155,-2.4069,-2.4069,-2.4069,-2.4069,-2.4069,-2.4069,-2.344,-2.3091,-2.3091,-2.3091,-2.3681,-2.4946,-2.5513,-2.6262,-2.7226,-2.7805,-2.8219,-2.851,-2.851,-2.851,-2.851,-2.851,-2.851,-2.851,-2.851,-2.851,-2.851,-2.851,-2.851,-2.851,-2.851,-2.851,-2.851,-3.6015,-3.6181,-3.6405,-3.6405,-3.6405,-3.6405,-3.6405,-3.5731,-3.5102,-3.4756,-3.3814,-3.3091,-3.2742,-3.2519,-3.24,-3.24,-3.24,-3.24,-3.2388,-3.2169,-3.1994,-3.1994,-3.1994,-3.1893,-3.1705,-3.1705,-3.1705,-3.1705,-3.1705,-3.1805,-3.1994,-3.1994,-3.2125,-3.2363,-3.1767,-3.1382,-3.1162,-3.0622,-3.0403,-3.0354,-2.9825,-2.9837,-3.0136,-2.9367,-2.9236,-2.938,-2.917,-2.9091,-2.9131,-2.9341,-2.9275,-2.9131,-2.9341,-2.9275,-2.9091,-2.9091,-2.9091,-2.9091,-2.9091,-2.9091,-2.9091,-2.9091,-2.9236,-2.9302,-2.887,-2.8791,-2.8724,-2.855,-2.851,-2.851,-2.851,-2.851,-2.8219,-2.7348,-2.7926,-2.8179,-2.7307,-2.7185,-2.6846,-2.5913,-2.5041,-2.4112,-2.3178,-2.3091,-2.3091,-2.3091,-2.3091,-2.3091,-2.3091,-2.3091,-2.3091,-2.3091,-2.3091,-2.3091,-2.3091,-2.4026,-2.5421,-2.7185,-2.7185,-2.7644,-2.8471,-2.8471,-2.851,-2.851,-2.851,-2.851,-2.851,-2.851,-2.851,-2.851,-2.851,-2.851,-2.851,-2.851,-2.851,-2.851,-3.5968,-3.5908,-3.5908,-3.6098,-3.5955,-3.5847,-3.5847,-3.5616,-3.5332,-3.4823,-3.4521,-3.3986,-3.3141,-3.301,-3.2806,-3.2425,-3.2213,-3.2081,-3.1937,-3.1849,-3.1805,-3.1805,-3.1805,-3.1761,-3.1705,-3.1705,-3.1705,-3.1705,-3.1705,-3.1705,-3.1805,-3.1805,-3.1849,-3.1881,-3.1712,-3.1595,-3.1516,-3.0996,-3.0724,-3.0694,-2.9929,-2.9675,-2.9735,-2.9248,-2.904,-2.8949,-2.8922,-2.8882,-2.8882,-2.8949,-2.8961,-2.8882,-2.8949,-2.904,-2.9052,-2.8922,-2.8882,-2.8843,-2.8697,-2.8776,-2.8922,-2.9052,-2.917,-2.9118,-2.8882,-2.8791,-2.8724,-2.855,-2.851,-2.851,-2.851,-2.8018,-2.751,-2.7226,-2.6876,-2.6494,-2.6246,-2.6205,-2.5872,-2.4999,-2.4659,-2.4112,-2.3178,-2.3091,-2.3091,-2.3091,-2.3091,-2.3091,-2.3091,-2.3091,-2.3091,-2.3091,-2.3091,-2.3091,-2.3091,-2.4026,-2.4787,-2.5295,-2.5913,-2.6712,-2.7592,-2.7592,-2.7926,-2.851,-2.851,-2.851,-2.851,-2.851,-2.851,-2.851,-2.851,-2.851,-2.851,-2.851,-2.851,-2.851,-3.5668,-3.562,-3.5668,-3.5812,-3.5716,-3.562,-3.562,-3.5524,-3.528,-3.4836,-3.4621,-3.4198,-3.3423,-3.3305,-3.3125,-3.2796,-3.2592,-3.2264,-3.1741,-3.191,-3.1934,-3.1717,-3.1705,-3.1705,-3.1705,-3.1705,-3.1705,-3.1705,-3.1705,-3.1705,-3.1705,-3.1705,-3.1705,-3.1705,-3.1705,-3.1705,-3.1681,-3.1368,-3.1235,-3.1151,-3.0423,-3.0155,-3.0165,-2.9464,-2.9265,-2.9347,-2.8842,-2.883,-2.8975,-2.8837,-2.8791,-2.8803,-2.8724,-2.8776,-2.8855,-2.8736,-2.8685,-2.8657,-2.855,-2.8578,-2.8697,-2.8816,-2.8934,-2.8922,-2.8724,-2.8395,-2.8115,-2.8007,-2.7672,-2.7418,-2.7418,-2.6999,-2.6547,-2.6174,-2.5955,-2.5694,-2.5326,-2.5284,-2.5073,-2.4584,-2.4155,-2.3734,-2.3178,-2.3091,-2.3091,-2.3091,-2.3091,-2.3091,-2.3091,-2.3091,-2.3091,-2.3091,-2.3091,-2.3091,-2.3091,-2.3647,-2.4112,-2.4498,-2.5031,-2.5746,-2.667,-2.701,-2.747,-2.8007,-2.8339,-2.851,-2.851,-2.851,-2.851,-2.851,-2.851,-2.851,-2.851,-2.851,-2.851,-2.851,-3.5223,-3.538,-3.5524,-3.5572,-3.5512,-3.5524,-3.5524,-3.532,-3.5101,-3.485,-3.4351,-3.3957,-3.3671,-3.3484,-3.3344,-3.3296,-3.3284,-3.2875,-3.1922,-3.2286,-3.2346,-3.1874,-3.1849,-3.1837,-3.1789,-3.1729,-3.1705,-3.1705,-3.1705,-3.1705,-3.1705,-3.1705,-3.1705,-3.1705,-3.1705,-3.1705,-3.1705,-3.1705,-3.1705,-3.1657,-3.1139,-3.1008,-3.1028,-2.9784,-2.9728,-3.0155,-2.8923,-2.8823,-2.9188,-2.8894,-2.8764,-2.8724,-2.8538,-2.851,-2.851,-2.851,-2.851,-2.851,-2.851,-2.851,-2.851,-2.851,-2.8657,-2.8685,-2.8419,-2.7765,-2.7185,-2.7092,-2.637,-2.5777,-2.5777,-2.5735,-2.5411,-2.4616,-2.5115,-2.5284,-2.4498,-2.437,-2.437,-2.437,-2.3604,-2.3091,-2.3091,-2.3091,-2.3091,-2.3091,-2.3091,-2.3091,-2.3091,-2.3091,-2.3091,-2.3091,-2.3091,-2.3091,-2.3091,-2.3091,-2.3517,-2.437,-2.4456,-2.4914,-2.5704,-2.6753,-2.7185,-2.7267,-2.8139,-2.851,-2.851,-2.851,-2.851,-2.851,-2.851,-2.851,-2.851,-2.851,-2.851,-2.851,-3.5175,-3.5078,-3.503,-3.5271,-3.5126,-3.4981,-3.4981,-3.4932,-3.4884,-3.4824,-3.4703,-3.4451,-3.3981,-3.3873,-3.3717,-3.332,-3.3284,-3.3188,-3.2947,-3.3044,-3.3056,-3.2947,-3.2935,-3.2743,-3.2334,-3.1889,-3.1705,-3.1705,-3.1705,-3.1705,-3.1705,-3.1705,-3.1705,-3.1705,-3.1705,-3.1705,-3.1705,-3.1705,-3.1705,-3.1657,-3.1139,-3.0922,-3.0845,-2.9742,-2.9417,-2.9429,-2.8739,-2.8582,-2.8667,-2.8586,-2.8578,-2.8538,-2.851,-2.851,-2.851,-2.851,-2.851,-2.851,-2.851,-2.851,-2.851,-2.851,-2.855,-2.8379,-2.7644,-2.7348,-2.701,-2.6246,-2.5955,-2.5777,-2.5777,-2.5242,-2.4701,-2.4541,-2.4026,-2.3604,-2.344,-2.3387,-2.3387,-2.3387,-2.3222,-2.3091,-2.3091,-2.3091,-2.3091,-2.3091,-2.3091,-2.3091,-2.3091,-2.3091,-2.3091,-2.3091,-2.3091,-2.3091,-2.3091,-2.3091,-2.3222,-2.3396,-2.4155,-2.4616,-2.4829,-2.6464,-2.7185,-2.7267,-2.8139,-2.851,-2.851,-2.851,-2.851,-2.851,-2.851,-2.851,-2.851,-2.851,-2.851,-2.851,-3.4115,-3.4115,-3.4213,-3.4872,-3.4872,-3.4775,-3.4775,-3.4775,-3.4775,-3.4775,-3.4775,-3.4679,-3.4402,-3.4366,-3.4162,-3.3693,-3.3873,-3.3813,-3.332,-3.3513,-3.3537,-3.3296,-3.3284,-3.3164,-3.2887,-3.2346,-3.1982,-3.1705,-3.1705,-3.1705,-3.1705,-3.1705,-3.1705,-3.1705,-3.1705,-3.1705,-3.1705,-3.1705,-3.1705,-3.1681,-3.1404,-3.1296,-3.1211,-3.035,-3.005,-2.9941,-2.9172,-2.8727,-2.8595,-2.9088,-2.8931,-2.8558,-2.8811,-2.8715,-2.851,-2.851,-2.851,-2.851,-2.851,-2.851,-2.851,-2.851,-2.8179,-2.7765,-2.7307,-2.6835,-2.6287,-2.5368,-2.4819,-2.452,-2.452,-2.4155,-2.382,-2.382,-2.343,-2.3091,-2.3091,-2.3091,-2.3091,-2.3091,-2.3091,-2.3091,-2.3091,-2.3091,-2.3091,-2.3091,-2.3091,-2.3091,-2.3091,-2.3091,-2.3091,-2.3091,-2.3091,-2.3091,-2.3091,-2.3091,-2.3091,-2.3101,-2.3604,-2.382,-2.3897,-2.5704,-2.6547,-2.6629,-2.7926,-2.851,-2.851,-2.851,-2.851,-2.851,-2.851,-2.851,-2.851,-2.851,-2.851,-2.851,-3.275,-3.2951,-3.3201,-3.4115,-3.4421,-3.4531,-3.4531,-3.4677,-3.4775,-3.4775,-3.4775,-3.4775,-3.4775,-3.4775,-3.4607,-3.4162,-3.4522,-3.4463,-3.3609,-3.3945,-3.3934,-3.3573,-3.3549,-3.3464,-3.3284,-3.2947,-3.2442,-3.1849,-3.1753,-3.1705,-3.1705,-3.1705,-3.1705,-3.1705,-3.1705,-3.1705,-3.1705,-3.1705,-3.1705,-3.1705,-3.1705,-3.1705,-3.1657,-3.1115,-3.0819,-3.0615,-2.9641,-2.8967,-2.8655,-2.9629,-2.9364,-2.8727,-2.916,-2.9063,-2.8763,-2.8667,-2.8703,-2.8763,-2.8667,-2.8643,-2.8619,-2.8534,-2.7846,-2.7144,-2.701,-2.6246,-2.5326,-2.4445,-2.3647,-2.3091,-2.3091,-2.3091,-2.3091,-2.3091,-2.3091,-2.3091,-2.3091,-2.3091,-2.3091,-2.3091,-2.3091,-2.3091,-2.3091,-2.3091,-2.3091,-2.3091,-2.3091,-2.3091,-2.3091,-2.3091,-2.3091,-2.3091,-2.3091,-2.3091,-2.3091,-2.3091,-2.3091,-2.3091,-2.3091,-2.3091,-2.3178,-2.4988,-2.5704,-2.5652,-2.7336,-2.8047,-2.8047,-2.8219,-2.8259,-2.8299,-2.8431,-2.851,-2.851,-2.851,-2.851,-2.851,-3.1779,-3.183,-3.188,-3.2033,-3.2789,-3.3411,-3.3411,-3.4213,-3.4775,-3.4775,-3.4775,-3.4775,-3.4775,-3.4775,-3.4751,-3.4679,-3.4739,-3.4715,-3.4631,-3.4679,-3.4643,-3.4619,-3.4619,-3.4198,-3.3308,-3.3645,-3.3356,-3.2382,-3.1946,-3.1705,-3.1705,-3.1705,-3.1705,-3.1705,-3.1705,-3.1705,-3.1705,-3.1705,-3.1705,-3.1705,-3.1705,-3.1705,-3.1657,-3.1115,-3.0591,-3.0122,-2.9508,-2.8967,-2.8607,-2.9208,-2.9304,-2.9208,-2.928,-2.9569,-2.9785,-2.9328,-2.952,-2.9773,-2.9316,-2.9184,-2.9088,-2.8619,-2.7846,-2.6969,-2.6163,-2.5326,-2.4413,-2.3474,-2.3178,-2.3091,-2.3091,-2.3091,-2.3091,-2.3091,-2.3091,-2.3091,-2.3091,-2.3091,-2.3091,-2.3091,-2.3091,-2.3091,-2.3091,-2.3091,-2.3091,-2.3091,-2.3091,-2.3091,-2.3091,-2.3091,-2.3091,-2.3091,-2.3091,-2.3091,-2.3091,-2.3091,-2.3091,-2.3091,-2.3091,-2.3091,-2.3178,-2.4988,-2.5411,-2.4744,-2.5746,-2.6163,-2.6246,-2.7051,-2.7389,-2.7429,-2.8219,-2.851,-2.851,-2.851,-2.851,-2.851,-3.0546,-3.0639,-3.0845,-3.1472,-3.1982,-3.2499,-3.3101,-3.361,-3.4115,-3.4726,-3.4274,-3.3918,-3.3918,-3.3918,-3.3918,-3.3918,-3.3918,-3.3918,-3.3918,-3.3918,-3.4164,-3.4775,-3.4775,-3.4607,-3.4162,-3.403,-3.3634,-3.2947,-3.2394,-3.1973,-3.1705,-3.1705,-3.1705,-3.1705,-3.1705,-3.1705,-3.1705,-3.1705,-3.1705,-3.1705,-3.1705,-3.1705,-3.1681,-3.1452,-3.1031,-3.0494,-3.0266,-2.9653,-2.9124,-3.0242,-3.0025,-2.94,-2.9989,-3.0134,-3.0037,-2.9809,-2.9905,-3.0037,-2.9797,-2.9737,-2.9689,-2.9448,-2.8317,-2.7153,-2.6713,-2.5507,-2.4262,-2.3634,-2.3496,-2.3574,-2.3764,-2.3812,-2.3812,-2.3812,-2.3812,-2.3725,-2.3535,-2.3496,-2.3408,-2.312,-2.3091,-2.3091,-2.3091,-2.3091,-2.3091,-2.3091,-2.3091,-2.3091,-2.3091,-2.3091,-2.3091,-2.3091,-2.3091,-2.3091,-2.3091,-2.3091,-2.3091,-2.3091,-2.3091,-2.3091,-2.3135,-2.4488,-2.4872,-2.4541,-2.5411,-2.5777,-2.5861,-2.6794,-2.7185,-2.7307,-2.8179,-2.851,-2.851,-2.851,-2.851,-2.851]},{"header":{"parameterUnit":"m.s-1","parameterCategory":1,"la1":30.6,"la2":28.766,"lo1":-90.7593,"lo2":-88.6598,"dy":0.0162,"dx":0.0183,"nx":116,"ny":114,"refTime":"2024-05-02T00:00:00:Z","depth":0,"parameterNumber":3,"parameterNumberName":"V-component_of_WINDS"},"data":[0.0,0.0,0.0,0.0,0.0,0.0,0.0,0.0,0.0,0.0,0.0,0.0,0.0,0.0,0.0,0.0,0.0,0.0,0.0,0.0,0.0,0.0,0.0,0.0,0.0,0.0,0.0,0.0,0.0,0.0,0.0,0.0,0.0,0.0,0.0,0.0,0.0,0.0,0.0,0.0,0.0,0.0,0.0,0.0,0.0,0.0,0.0,0.0,0.0,0.0,0.0,0.0,0.0,0.0,0.0,0.0,0.0,0.0,0.0,0.0,0.0,0.0,0.0,0.0,0.0,0.0,0.0,0.0,0.0,0.0,0.0,0.0,0.0,0.0,0.0,0.0,0.0,0.0,0.0,0.0,0.0,0.0,0.0,0.0,0.0,0.0,0.0,0.0,0.0,0.0,0.0,0.0,0.0,0.0,0.0,0.0,0.0,0.0,0.0,0.0,0.0,0.0,0.0,0.0,0.0,0.0,0.0,0.0,0.0,0.0,0.0,0.0,0.0,0.0,0.0,0.0,0.0,0.0,0.0,0.0,0.0,0.0,0.0,0.0,0.0,0.0,0.0,0.0,0.0,0.0,0.0,0.0,0.0,0.0,0.0,0.0,0.0,0.0,0.0,0.0,0.0,0.0,0.0,0.0,0.0,0.0,0.0,0.0,0.0,0.0,0.0,0.0,0.0,0.0,0.0,0.0,0.0,0.0,0.0,0.0,0.0,0.0,0.0,0.0,0.0,0.0,0.0,0.0,0.0,0.0,0.0,0.0,0.0,0.0,0.0,0.0,0.0,0.0,0.0,0.0,0.0,0.0,0.0,0.0,0.0,0.0,0.0,0.0,0.0,0.0,0.0,0.0,0.0,0.0,0.0,0.0,0.0,0.0,0.0,0.0,0.0,0.0,0.0,0.0,0.0,0.0,0.0,0.0,0.0,0.0,0.0,0.0,0.0,0.0,0.0,0.0,0.0,0.0,0.0,0.0,0.0,0.0,0.0,0.0,0.0,0.0,0.0,0.0,0.0,0.0,0.0,0.0,0.0,0.0,0.0,0.0,0.0,0.0,0.0,0.0,0.0,0.0,0.0,0.0,0.0,0.0,0.0,0.0,0.0,0.0,0.0,0.0,0.0,0.0,0.0,0.0,0.0,0.0,0.0,0.0,0.0,0.0,0.0,0.0,0.0,0.0,0.0,0.0,0.0,0.0,0.0,0.0,0.0,0.0,0.0,0.0,0.0,0.0,0.0,0.0,0.0,0.0,0.0,0.0,0.0,0.0,0.0,0.0,0.0,0.0,0.0,0.0,0.0,0.0,0.0,0.0,0.0,0.0,0.0,0.0,0.0,0.0,0.0,0.0,0.0,0.0,0.0,0.0,0.0,0.0,0.0,0.0,0.0,0.0,0.0,0.0,0.0,0.0,0.0,0.0,0.0,0.0,0.0,0.0,0.0,0.0,0.0,0.0,0.0,0.0,0.0,0.0,0.0,0.0,0.0,0.0,0.0,0.0,0.0,0.0,0.0,0.0,0.0,0.0,0.0,0.0,0.0,0.0,0.0,0.0,0.0,0.0,0.0,0.0,0.0,0.0,0.0,0.0,0.0,0.0,0.0,0.0,0.0,0.0,0.0,0.0,0.0,0.0,0.0,0.0,0.0,0.0,0.0,0.0,0.0,0.0,0.0,0.0,0.0,0.0,0.0,0.0,0.0,0.0,0.0,0.0,0.0,0.0,0.0,0.0,0.0,0.0,0.0,0.0,0.0,0.0,0.0,0.0,0.0,0.0,0.0,0.0,0.0,0.0,0.0,0.0,0.0,0.0,0.0,0.0,0.0,0.0,0.0,0.0,0.0,0.0,0.0,0.0,0.0,0.0,0.0,0.0,0.0,0.0,0.0,0.0,0.0,0.0,0.0,0.0,0.0,0.0,0.0,0.0,0.0,0.0,0.0,0.0,0.0,0.0,0.0,0.0,0.0,0.0,0.0,0.0,0.0,0.0,0.0,0.0,0.0,0.0,0.0,0.0,0.0,0.0,0.0,0.0,0.0,0.0,0.0,0.0,0.0,0.0,0.0,0.0,0.0,0.0,0.0,0.0,0.0,0.0,0.0,0.0,0.0,0.0,0.0,0.0,0.0,0.0,0.0,0.0,0.0,0.0,0.0,0.0,0.0,0.0,0.0,0.0,0.0,0.0,0.0,0.0,0.0,0.0,0.0,0.0,0.0,0.0,0.0,0.0,0.0,0.0,0.0,0.0,0.0,0.0,0.0,0.0,0.0,0.0,0.0,0.0,0.0,0.0,0.0,0.0,0.0,0.0,0.0,0.0,0.0,0.0,0.0,0.0,0.0,0.0,0.0,0.0,0.0,0.0,0.0,0.0,0.0,0.0,0.0,0.0,0.0,0.0,0.0,0.0,0.0,0.0,0.0,0.0,0.0,0.0,0.0,0.0,0.0,0.0,0.0,0.0,0.0,0.0,0.0,0.0,0.0,0.0,0.0,0.0,0.0,0.0,0.0,0.0,0.0,0.0,0.0,0.0,0.0,0.0,0.0,0.0,0.0,0.0,0.0,0.0,0.0,0.0,0.0,0.0,0.0,0.0,0.0,0.0,0.0,0.0,0.0,0.0,0.0,0.0,0.0,0.0,0.0,0.0,0.0,0.0,0.0,0.0,0.0,0.0,0.0,0.0,0.0,0.0,0.0,0.0,0.0,0.0,0.0,0.0,0.0,0.0,0.0,0.0,0.0,0.0,0.0,0.0,0.0,0.0,0.0,0.0,0.0,0.0,0.0,0.0,0.0,0.0,0.0,0.0,0.0,0.0,0.0,0.0,0.0,0.0,0.0,0.0,0.0,0.0,0.0,0.0,0.0,0.0,0.0,0.0,0.0,0.0,0.0,0.0,0.0,0.0,0.0,0.0,0.0,0.0,0.0,0.0,0.0,0.0,0.0,0.0,0.0,0.0,0.0,0.0,0.0,0.0,0.0,0.0,0.0,0.0,0.0,0.0,0.0,0.0,0.0,0.0,0.0,0.0,0.0,0.0,0.0,0.0,0.0,0.0,0.0,0.0,0.0,0.0,0.0,0.0,0.0,0.0,0.0,0.0,0.0,0.0,0.0,0.0,0.0,0.0,0.0,0.0,0.0,0.0,0.0,0.0,0.0,0.0,0.0,0.0,0.0,0.0,0.0,0.0,0.0,0.0,0.0,0.0,0.0,0.0,0.0,0.0,0.0,0.0,0.0,0.0,0.0,0.0,0.0,0.0,0.0,0.0,0.0,0.0,0.0,0.0,0.0,0.0,0.0,0.0,0.0,0.0,0.0,0.0,0.0,0.0,0.0,0.0,0.0,0.0,0.0,0.0,0.0,0.0,0.0,0.0,0.0,0.0,0.0,0.0,0.0,0.0,0.0,0.0,0.0,0.0,0.0,0.0,0.0,0.0,0.0,0.0,0.0,0.0,0.0,0.0,0.0,0.0,0.0,0.0,0.0,0.0,0.0,0.0,0.0,0.0,0.0,0.0,0.0,0.0,0.0,0.0,0.0,0.0,0.0,0.0,0.0,0.0,0.0,0.0,0.0,0.0,0.0,0.0,0.0,0.0,0.0,0.0,0.0,0.0,0.0,0.0,0.0,0.0,0.0,0.0,0.0,0.0,0.0,0.0,0.0,0.0,0.0,0.0,0.0,0.0,0.0,0.0,0.0,0.0,0.0,0.0,0.0,0.0,0.0,0.0,0.0,0.0,0.0,0.0,0.0,0.0,0.0,0.0,0.0,0.0,0.0,0.0,0.0,0.0,0.0,0.0,0.0,0.0,0.0,0.0,0.0,0.0,0.0,0.0,0.0,0.0,0.0,0.0,0.0,0.0,0.0,0.0,0.0,0.0,0.0,0.0,0.0,0.0,0.0,0.0,0.0,0.0,0.0,0.0,0.0,0.0,0.0,0.0,0.0,0.0,0.0,0.0,0.0,0.0,0.0,0.0,0.0,0.0,0.0,0.0,0.0,0.0,0.0,0.0,0.0,0.0,0.0,0.0,0.0,0.0,0.0,0.0,0.0,0.0,0.0,0.0,0.0,0.0,0.0,0.0,0.0,0.0,0.0,0.0,0.0,0.0,0.0,0.0,0.0,0.0,0.0,0.0,0.0,0.0,0.0,0.0,0.0,0.0,0.0,0.0,0.0,0.0,0.0,0.0,0.0,0.0,0.0,0.0,0.0,0.0,0.0,0.0,0.0,0.0,0.0,0.0,0.0,0.0,0.0,0.0,0.0,0.0,0.0,0.0,0.0,0.0,0.0,0.0,0.0,0.0,0.0,0.0,0.0,0.0,0.0,0.0,0.0,0.0,0.0,0.0,0.0,0.0,0.0,0.0,0.0,0.0,0.0,0.0,0.0,0.0,0.0,0.0,0.0,0.0,0.0,0.0,0.0,0.0,0.0,0.0,0.0,0.0,0.0,0.0,0.0,0.0,0.0,0.0,0.0,0.0,0.0,0.0,0.0,0.0,0.0,0.0,0.0,0.0,0.0,0.0,0.0,0.0,0.0,0.0,0.0,0.0,0.0,0.0,0.0,0.0,0.0,0.0,0.0,0.0,0.0,0.0,0.0,0.0,0.0,0.0,0.0,0.0,0.0,0.0,0.0,0.0,0.0,0.0,0.0,0.0,0.0,0.0,0.0,0.0,0.0,0.0,0.0,0.0,0.0,0.0,0.0,0.0,0.0,0.0,0.0,0.0,0.0,0.0,0.0,0.0,0.0,0.0,0.0,0.0,0.0,0.0,0.0,0.0,0.0,0.0,0.0,0.0,0.0,0.0,0.0,0.0,0.0,0.0,0.0,0.0,0.0,0.0,0.0,0.0,0.0,0.0,0.0,0.0,0.0,0.0,0.0,0.0,0.0,0.0,0.0,0.0,0.0,0.0,0.0,0.0,0.0,0.0,0.0,0.0,0.0,0.0,0.0,0.0,0.0,0.0,0.0,0.0,0.0,0.0,0.0,0.0,0.0,0.0,0.0,0.0,0.0,0.0,0.0,0.0,0.0,0.0,0.0,0.0,0.0,0.0,0.0,0.0,0.0,0.0,0.0,0.0,0.0,0.0,0.0,0.0,0.0,0.0,0.0,0.0,0.0,0.0,0.0,0.0,0.0,0.0,0.0,0.0,0.0,0.0,0.0,0.0,0.0,0.0,0.0,0.0,0.0,0.0,0.0,0.0,0.0,0.0,0.0,0.0,0.0,0.0,0.0,0.0,0.0,0.0,0.0,0.0,0.0,0.0,0.0,0.0,0.0,0.0,0.0,0.0,0.0,0.0,0.0,0.0,0.0,0.0,0.0,0.0,0.0,0.0,0.0,0.0,0.0,0.0,0.0,0.0,0.0,0.0,0.0,0.0,0.0,0.0,0.0,0.0,0.0,0.0,0.0,0.0,0.0,0.0,0.0,0.0,0.0,0.0,0.0,0.0,0.0,0.0,0.0,0.0,0.0,0.0,0.0,0.0,0.0,0.0,0.0,0.0,0.0,0.0,0.0,0.0,0.0,0.0,0.0,0.0,0.0,0.0,0.0,0.0,0.0,0.0,0.0,0.0,0.0,0.0,0.0,0.0,0.0,0.0,0.0,0.0,0.0,0.0,0.0,0.0,0.0,0.0,0.0,0.0,0.0,0.0,0.0,0.0,0.0,0.0,0.0,0.0,0.0,0.0,0.0,0.0,0.0,0.0,0.0,0.0,0.0,0.0,0.0,0.0,0.0,0.0,0.0,0.0,0.0,0.0,0.0,0.0,0.0,0.0,0.0,0.0,0.0,0.0,0.0,0.0,0.0,0.0,0.0,0.0,0.0,0.0,0.0,0.0,0.0,0.0,0.0,0.0,0.0,0.0,0.0,0.0,0.0,0.0,0.0,0.0,0.0,0.0,0.0,0.0,0.0,0.0,0.0,0.0,0.0,0.0,0.0,0.0,0.0,0.0,0.0,0.0,0.0,0.0,0.0,0.0,0.0,0.0,0.0,0.0,0.0,0.0,0.0,0.0,0.0,0.0,0.0,0.0,0.0,0.0,0.0,0.0,0.0,0.0,0.0,0.0,0.0,0.0,0.0,0.0,0.0,0.0,0.0,0.0,0.0,0.0,1.0637,0.0,0.0,0.0,0.0,0.0,0.0,0.0,0.0,0.0,0.0,0.0,0.0,0.0,0.0,0.0,0.0,0.0,0.0,0.0,0.0,0.0,0.0,0.0,0.0,2.1758,2.2296,2.3353,2.3225,2.3309,2.3734,0.0,0.0,0.0,0.0,0.0,2.2771,2.281,2.281,2.2761,2.3185,2.3753,2.4392,2.3664,2.2461,2.0952,0.0,0.0,0.0,0.0,0.0,0.0,0.0,0.0,0.0,0.0,0.0,0.0,0.0,0.0,0.0,0.0,0.0,0.0,0.0,0.0,0.0,0.0,0.0,0.0,0.0,0.0,0.0,0.0,0.0,0.0,0.0,0.0,0.0,0.0,0.0,0.0,0.0,0.0,0.0,0.0,0.0,0.0,0.0,0.0,0.0,0.0,0.0,0.0,0.0,0.0,0.0,0.0,0.0,0.0,0.0,0.0,0.0,0.0,0.0,0.0,0.0,0.0,0.0,0.0,0.0,0.0,0.0,0.0,0.0,0.0,0.0,1.1092,0.0,0.0,0.0,0.0,0.0,0.0,0.0,0.0,0.0,0.0,0.0,0.0,0.0,0.0,0.0,0.0,0.0,0.0,0.0,0.0,0.0,2.0957,2.159,2.2017,2.2796,2.4158,2.3931,2.4026,2.4787,2.4745,0.0,0.0,2.4713,2.4678,2.393,2.4568,2.4623,2.409,2.5395,2.6076,2.6076,2.6111,2.5189,2.3423,2.2857,0.0,0.0,0.0,0.0,0.0,0.0,0.0,0.0,0.0,0.0,0.0,0.0,0.0,0.0,0.0,0.0,0.0,0.0,0.0,0.0,0.0,0.0,0.0,0.0,0.0,0.0,0.0,0.0,0.0,0.0,0.0,0.0,0.0,0.0,0.0,0.0,0.0,0.0,0.0,0.0,0.0,0.0,0.0,0.0,0.0,0.0,0.0,0.0,0.0,0.0,0.0,0.0,0.0,0.0,0.0,0.0,0.0,0.0,0.0,0.0,0.0,0.0,0.0,1.7215,1.7375,1.7225,1.7134,1.7153,1.7161,1.4385,1.3017,1.266,1.2109,0.0,0.0,0.0,0.0,0.0,0.0,0.0,0.0,0.0,0.0,0.0,0.0,0.0,0.0,0.0,0.0,0.0,0.0,0.0,2.173,2.3284,2.3511,2.4255,2.6005,2.6108,2.6099,2.6235,2.5743,2.5426,2.5359,2.472,2.4486,2.4815,2.4111,2.4301,2.5531,2.6595,2.711,2.7122,2.7418,2.7369,2.7009,2.5048,2.4364,2.4615,0.0,0.0,0.0,0.0,0.0,0.0,0.0,0.0,0.0,0.0,0.0,0.0,0.0,0.0,0.0,0.0,0.0,0.0,0.0,0.0,0.0,0.0,0.0,0.0,0.0,0.0,0.0,0.0,0.0,0.0,0.0,0.0,0.0,0.0,0.0,0.0,0.0,0.0,0.0,0.0,0.0,2.2075,2.2728,0.0,0.0,0.0,0.0,0.0,0.0,0.0,0.0,0.0,0.0,0.0,0.0,0.0,1.8705,1.7925,1.9653,2.0087,1.9276,2.0756,2.0851,1.9787,1.9807,1.9206,1.8216,1.7939,0.0,1.5949,1.5597,0.0,0.0,0.0,0.0,0.0,0.0,0.0,0.0,0.0,0.0,0.0,0.0,0.0,0.0,0.0,0.0,0.0,0.0,0.0,0.0,0.0,2.4281,2.5087,2.6657,2.6862,2.7024,2.7203,2.7278,2.7134,2.6846,2.6905,2.6919,2.6848,2.6721,2.7123,2.8158,2.858,2.8988,2.9261,2.9402,2.9508,2.9442,2.7907,2.6787,2.5914,2.5334,0.0,0.0,0.0,0.0,0.0,0.0,0.0,0.0,0.0,0.0,0.0,0.0,0.0,0.0,0.0,0.0,0.0,0.0,0.0,0.0,0.0,0.0,0.0,0.0,0.0,0.0,0.0,0.0,0.0,0.0,0.0,0.0,0.0,0.0,0.0,0.0,0.0,0.0,0.0,2.3178,2.3423,2.4291,2.2781,2.1171,0.0,0.0,0.0,0.0,0.0,0.0,0.0,0.0,0.0,2.0219,2.0525,2.0651,2.0498,2.1653,2.1937,2.1339,2.2233,2.2389,2.1883,2.1883,2.1568,2.1073,2.1133,2.0632,1.9573,1.7538,1.6107,1.5066,0.0,0.0,0.0,0.0,1.2989,1.292,0.0,0.0,0.0,0.0,0.0,0.0,0.0,0.0,0.0,0.0,0.0,0.0,2.4759,2.5394,2.6306,2.7782,2.8046,2.8245,2.849,2.8482,2.8291,2.7908,2.8238,2.8298,2.8026,2.8867,2.951,2.993,3.0378,3.07,3.0947,3.1042,3.1062,3.1075,3.026,2.9048,2.7452,2.6982,2.6021,2.483,0.0,0.0,0.0,0.0,0.0,0.0,0.0,0.0,0.0,0.0,0.0,0.0,0.0,0.0,0.0,0.0,0.0,0.0,0.0,0.0,0.0,0.0,0.0,0.0,0.0,0.0,0.0,0.0,0.0,0.0,0.0,0.0,0.0,0.0,0.0,0.0,0.0,2.5153,2.5201,2.5759,2.4824,2.3406,0.0,0.0,0.0,0.0,0.0,0.0,2.1086,2.1094,2.132,2.1803,2.2059,2.2337,2.2667,2.3047,2.3113,2.2871,2.3032,2.3106,2.3106,2.3106,2.3062,2.2981,2.2981,2.2681,2.2013,1.9404,1.7941,1.7247,1.6289,1.5545,1.5047,1.5184,1.5082,1.4929,0.0,0.0,0.0,0.0,0.0,0.0,0.0,0.0,0.0,0.0,0.0,2.4709,2.6571,2.7284,2.8405,3.0273,3.0411,3.0436,3.0451,2.8975,2.81,2.8075,2.7145,2.6854,2.7356,2.8925,2.9765,2.9803,3.1333,3.1834,3.1358,3.1689,3.1854,3.1811,3.1545,3.0869,2.9799,2.8,2.7446,2.7563,2.6252,0.0,0.0,0.0,0.0,0.0,0.0,0.0,0.0,0.0,0.0,0.0,0.0,0.0,0.0,0.0,0.0,0.0,0.0,0.0,0.0,0.0,0.0,0.0,0.0,0.0,0.0,0.0,0.0,0.0,0.0,0.0,0.0,0.0,0.0,0.0,0.0,0.0,0.0,2.7021,2.7402,0.0,0.0,0.0,0.0,2.2717,2.2839,2.2731,2.2134,2.2111,2.2528,2.3449,2.3493,2.3654,2.3984,2.3713,2.3567,2.3545,2.3252,2.3106,2.3106,2.3106,2.2937,2.2645,2.2645,2.2469,2.2154,2.1693,2.0351,1.8521,1.7836,1.6775,1.5615,1.5302,1.5198,1.5192,0.0,0.0,0.0,0.0,0.0,2.2489,2.2662,2.2518,2.2824,2.3917,2.465,2.5599,2.6989,2.7953,2.8773,2.9452,3.0193,3.0708,3.0982,2.996,2.9628,3.0246,2.9549,2.957,3.0481,3.1542,3.1962,3.1774,3.2816,3.3146,3.2856,3.2536,3.2369,3.2316,3.1716,3.1658,3.192,3.0633,2.9388,2.8326,2.7823,2.7142,0.0,0.0,0.0,0.0,0.0,0.0,0.0,0.0,0.0,0.0,0.0,0.0,0.0,0.0,0.0,0.0,0.0,0.0,0.0,0.0,0.0,0.0,0.0,0.0,0.0,0.0,0.0,0.0,0.0,0.0,0.0,0.0,0.0,0.0,0.0,0.0,0.0,2.9556,2.986,0.0,2.723,2.696,2.652,2.572,2.5932,2.5698,2.4797,2.4758,2.4594,2.4268,2.4218,2.4174,2.4086,2.3969,2.3698,2.3281,2.3164,2.3003,2.2806,2.301,2.2943,2.2578,2.2596,2.2571,2.2443,2.2089,2.1423,2.0566,1.9669,1.8928,1.8303,1.7939,1.7698,1.756,0.0,0.0,0.0,2.4534,2.378,2.3097,2.3032,2.2847,2.3196,2.4432,2.536,2.6285,2.7299,2.854,2.9386,2.9423,3.0545,3.1248,3.1319,3.0632,3.0484,3.0895,3.0597,3.105,3.2451,3.2877,3.3179,3.339,3.3826,3.3884,3.3577,3.3081,3.2864,3.2864,3.2489,3.2846,3.3682,3.3064,3.1875,3.0362,2.9959,2.9374,2.8614,0.0,0.0,0.0,0.0,0.0,0.0,0.0,0.0,0.0,0.0,0.0,0.0,0.0,0.0,0.0,0.0,0.0,0.0,0.0,0.0,0.0,0.0,0.0,0.0,0.0,0.0,0.0,0.0,0.0,0.0,0.0,0.0,0.0,0.0,0.0,3.1859,3.1152,3.1965,3.1901,3.0014,2.9717,2.9358,2.8735,2.8958,2.8603,2.7472,2.7532,2.7198,2.6532,2.5913,2.5562,2.5333,2.4603,2.3966,2.3417,2.3306,2.3083,2.2779,2.3002,2.293,2.2608,2.258,2.2542,2.2386,2.2213,2.1989,2.1734,2.0851,2.0377,2.0186,1.974,1.9442,1.9271,0.0,2.5241,2.5773,2.5388,2.502,2.4632,2.4079,2.3979,2.418,2.4713,2.582,2.6817,2.7561,2.9191,3.0313,3.0542,3.1734,3.2244,3.1626,3.1123,3.0535,2.9923,3.0021,3.0993,3.282,3.2777,3.3259,3.4422,3.4351,3.4061,3.344,3.3427,3.339,3.3431,3.3851,3.4418,3.5012,3.5131,3.4736,3.3866,3.2717,3.2591,3.2905,0.0,0.0,0.0,0.0,0.0,0.0,0.0,0.0,0.0,0.0,0.0,0.0,0.0,0.0,0.0,0.0,0.0,0.0,0.0,0.0,0.0,0.0,0.0,0.0,0.0,0.0,0.0,0.0,0.0,0.0,0.0,0.0,0.0,3.0727,3.2215,3.2952,3.17,3.3877,3.4645,3.2532,3.3309,3.3281,3.169,3.1696,3.1239,2.9976,3.0123,3.0245,3.0172,2.8604,2.7781,2.7692,2.5739,2.4491,2.4147,2.381,2.3421,2.3049,2.3123,2.294,2.2604,2.262,2.2429,2.2116,2.2101,2.2093,2.2032,2.136,2.1093,2.1017,2.033,2.0122,2.0069,2.5382,2.5723,2.583,2.5565,2.5106,2.4632,2.4079,2.364,2.3697,2.4662,2.5921,2.7114,2.8152,2.997,3.1185,3.1311,3.2085,3.2785,3.3277,3.1881,3.1255,3.1736,3.2629,3.3576,3.4524,3.4991,3.5049,3.4761,3.5224,3.5123,3.4466,3.3921,3.3677,3.3677,3.3229,3.3835,3.5228,3.5244,3.5408,3.5509,3.4045,3.3294,3.3031,0.0,0.0,0.0,0.0,0.0,0.0,0.0,0.0,0.0,0.0,0.0,0.0,0.0,0.0,0.0,0.0,0.0,0.0,0.0,0.0,0.0,0.0,0.0,0.0,0.0,0.0,0.0,0.0,0.0,0.0,0.0,3.2081,3.2662,3.2509,3.3969,3.507,3.502,3.5996,3.627,3.5341,3.5526,3.5421,3.465,3.4314,3.3598,3.2216,3.1901,3.1148,2.9782,2.9293,2.878,2.8225,2.7303,2.628,2.5089,2.4666,2.3866,2.2772,2.3016,2.2928,2.2611,2.2628,2.2659,2.2708,2.2233,2.2188,2.2308,2.1425,2.1093,2.1017,2.033,2.0087,1.9946,2.5571,2.5828,2.5795,2.551,2.5294,2.4958,2.4431,2.4023,2.4211,2.536,2.6726,2.797,2.8926,3.0907,3.2021,3.1589,3.2691,3.3259,3.2981,3.2168,3.2171,3.3296,3.4,3.4824,3.5728,3.5833,3.58,3.5581,3.57,3.5518,3.5148,3.4721,3.4505,3.452,3.4499,3.5082,3.6091,3.6455,3.6816,3.7109,3.6016,3.4971,3.4085,3.3859,3.3696,3.3577,3.3734,3.3545,3.3226,3.3096,0.0,0.0,0.0,0.0,0.0,0.0,0.0,0.0,0.0,0.0,0.0,0.0,0.0,0.0,0.0,0.0,0.0,0.0,0.0,0.0,0.0,0.0,0.0,0.0,3.4827,3.539,3.5333,3.5831,3.632,3.6572,3.6874,3.6908,3.6455,3.6537,3.635,3.5787,3.5557,3.505,3.4058,3.3749,3.3029,3.1846,3.1096,3.0387,2.9688,2.8504,2.7438,2.6408,2.597,2.5201,2.425,2.4465,2.4438,0.0,2.4207,2.4342,2.4394,2.3373,2.307,0.0,0.0,0.0,0.0,0.0,2.012,1.9901,2.5276,2.5758,2.5785,2.5462,2.5515,2.5435,2.4938,2.4825,2.5197,2.626,2.7686,2.889,2.9636,3.1699,3.2641,3.1707,3.3369,3.3769,3.2064,3.2497,3.338,3.4578,3.4623,3.5177,3.6375,3.5836,3.5821,3.6439,3.5821,3.5522,3.5537,3.5579,3.5609,3.5669,3.6692,3.7169,3.7312,3.8075,3.8364,3.8321,3.8169,3.72,3.5834,3.5339,3.5413,3.5751,3.5289,3.508,3.5002,3.5002,0.0,0.0,0.0,0.0,0.0,0.0,0.0,0.0,0.0,0.0,0.0,0.0,0.0,0.0,0.0,0.0,0.0,0.0,0.0,0.0,0.0,0.0,0.0,0.0,3.8116,3.8857,3.85,3.7691,3.715,3.7079,3.713,3.6981,3.6587,3.677,3.6599,3.5802,3.5953,3.5935,3.5521,0.0,0.0,0.0,0.0,3.2146,3.1574,2.9571,2.8327,2.7854,2.7335,2.6885,2.6481,2.6481,2.6481,2.6481,2.6481,2.6481,2.6399,2.494,2.4291,2.3993,2.214,2.1349,2.1198,2.0575,2.0106,1.9805,2.5276,2.5758,2.5921,2.6017,2.5777,2.5561,2.546,2.5096,2.5046,2.5686,2.7142,2.8396,2.9077,3.1172,3.2465,3.2317,3.3647,3.4547,3.4726,3.4861,3.504,3.5295,3.531,3.5479,3.5851,3.5731,3.5795,3.6107,3.5795,3.5671,3.5686,3.6094,3.6297,3.6327,3.7041,3.7635,3.8157,3.8353,3.8201,3.8002,3.8924,3.8865,3.8217,3.7963,3.7714,3.7606,3.7813,3.7347,3.6709,3.6709,3.6408,3.5943,3.5403,0.0,0.0,0.0,0.0,0.0,0.0,0.0,0.0,0.0,0.0,0.0,0.0,0.0,0.0,0.0,0.0,0.0,0.0,0.0,0.0,3.9172,4.0019,4.0332,3.9877,3.9336,3.8744,3.8061,3.7666,3.7384,3.7301,3.7016,3.6727,3.6552,3.6265,3.607,3.5976,3.5625,3.5045,3.4287,3.3924,3.3131,3.1907,3.1132,3.0073,2.8665,0.0,0.0,2.6481,2.6481,2.6481,2.6481,2.6481,2.6481,2.6435,2.5509,2.4724,2.3951,2.21,2.1048,2.0543,2.0122,1.9805,1.9415,2.4059,2.517,2.5945,2.6015,2.6055,2.6059,2.6059,2.5799,2.5837,2.6377,2.794,2.9244,2.9826,3.1717,3.2817,3.2542,3.311,3.3918,3.4921,3.531,3.5654,3.5983,3.6297,3.6499,3.6654,3.6654,3.6749,3.6938,3.686,3.6821,3.6862,3.7126,3.7191,3.7121,3.7766,3.8357,3.8931,3.926,3.9268,3.9163,3.9771,4.0076,4.0115,3.9784,3.9448,3.9301,4.0061,3.9869,3.9269,3.9793,3.9151,3.8025,3.7964,3.6845,3.5265,0.0,0.0,0.0,0.0,0.0,0.0,0.0,0.0,0.0,0.0,0.0,0.0,0.0,0.0,3.7374,3.9359,0.0,4.1211,4.2292,4.2705,4.2583,4.17,4.0579,3.9336,3.8027,3.7436,3.7053,3.6825,3.6804,3.6608,3.6142,3.6111,3.5914,3.5459,3.5221,3.4662,3.3751,3.372,3.3182,3.1998,3.1598,3.085,2.9776,2.9323,2.8784,2.8232,2.8232,2.8232,2.8232,2.8232,2.8115,2.7789,2.6429,2.5161,2.3989,2.2852,2.1819,2.0883,2.0167,1.9542,1.9074,2.2846,2.4276,2.543,2.5641,2.6107,2.6465,2.6499,2.6499,2.665,2.7102,2.8557,2.9717,3.0198,3.1812,3.2795,3.2512,3.2632,3.326,3.4623,3.531,3.5983,3.6641,3.715,3.7473,3.76,3.7616,3.7728,3.7902,3.8041,3.8108,3.814,3.8398,3.8417,3.8256,3.8918,3.9433,3.9828,4.0232,4.0397,4.0397,4.0397,4.0711,4.1179,4.1069,4.0984,4.0997,4.1805,4.1754,4.1408,4.2185,4.1386,4.0068,4.0523,3.9488,3.776,3.5745,3.5104,0.0,0.0,0.0,0.0,0.0,0.0,0.0,0.0,0.0,3.4997,3.7613,3.8755,4.0111,4.2798,4.3928,4.4618,4.5058,4.5273,4.4795,4.3357,4.1742,3.997,3.7959,3.7143,3.6525,3.6152,3.637,3.6225,3.548,3.5687,3.5531,3.4857,3.4733,3.4308,3.3399,3.3379,3.2903,3.1864,3.1557,3.1102,3.0553,3.017,2.9994,2.9994,2.9994,2.9994,2.9984,2.9901,2.9549,2.8929,2.7332,2.5868,2.4528,2.3949,2.3008,2.1789,2.052,1.9549,1.8781,2.2846,2.3268,2.3781,2.4671,2.5606,2.6305,2.6465,2.6499,2.6512,2.6575,2.7387,2.804,2.8304,2.9715,3.1157,3.2378,3.3051,3.3963,3.531,3.6013,3.6656,3.7285,3.7375,3.7477,3.7688,3.7688,3.7755,3.7892,3.8568,3.8781,3.8646,3.9823,4.0272,4.0134,4.0793,4.1138,4.113,4.0621,4.0397,4.0397,4.0397,4.0442,4.0629,4.1796,4.2556,4.2953,4.235,4.1826,4.1447,4.1396,4.121,4.1105,4.1518,4.1551,4.0871,3.7734,0.0,3.5414,3.2203,3.2215,3.3483,3.4718,3.4768,3.5429,0.0,0.0,3.8919,4.1182,4.2823,4.4003,4.4367,4.5711,4.6617,4.6184,4.6547,4.6242,4.4407,4.3189,4.1565,3.8963,3.7192,3.6173,3.6121,3.579,3.5531,3.5428,3.5107,3.492,3.4826,3.4432,3.3906,3.3399,3.3379,3.2758,3.1464,3.1402,3.0936,3.0077,3.0025,2.9994,2.9994,2.9994,2.9994,2.9973,2.9559,2.8887,2.802,2.7819,2.7177,2.6201,2.52,2.4299,2.3312,2.1386,1.9884,1.8781,2.1538,2.201,2.2526,2.3036,2.4337,2.5558,2.6223,2.6339,2.6361,2.6499,2.7196,2.7736,2.7835,2.8953,3.0109,3.1113,3.2263,3.3484,3.4846,3.6237,3.73,3.7943,3.8362,3.8622,3.8779,3.9195,3.9462,3.9582,4.0293,4.0602,4.0565,4.1124,4.1323,4.1182,4.1468,4.1948,4.2506,4.1833,4.1983,4.2611,4.1848,4.1758,4.2087,4.1878,4.2233,4.2769,4.222,4.1707,0.0,0.0,4.0496,3.9769,4.119,4.0409,3.8713,3.74,3.6476,0.0,3.4583,3.4161,3.4274,3.5245,3.6047,3.7061,3.868,3.8956,3.9724,4.2522,4.3915,4.5008,4.6301,4.7393,4.8008,0.0,4.7657,4.7195,4.6081,4.4123,4.2089,4.0218,3.8748,3.7331,3.5832,3.5304,3.5035,3.5035,3.461,3.4297,3.4028,3.3772,3.3461,3.3016,3.3006,3.2478,3.1391,3.1381,3.0915,2.9994,2.9994,2.9994,2.9984,2.9715,2.9446,2.9166,2.87,2.8276,2.7883,2.7355,2.691,2.6517,2.5478,2.4581,2.3615,2.2153,2.1133,2.0484,2.0605,2.1049,2.1565,2.1897,2.3047,2.4348,2.5688,2.6062,2.627,2.6465,2.7007,2.7451,2.767,2.8454,2.9219,2.9889,3.1217,3.2471,3.348,3.5921,3.7445,3.7812,3.9017,3.9727,3.9826,4.0285,4.0692,4.0981,4.1694,4.2132,4.2312,4.2531,4.2651,4.267,4.267,4.3133,4.3868,4.3195,4.3344,4.3958,4.3015,4.2806,4.2955,4.2013,4.1871,4.2058,4.1701,4.115,0.0,0.0,3.9731,3.8727,4.0421,3.9347,3.735,3.6985,3.5941,3.4989,3.5529,3.5328,3.5069,3.5771,3.7136,3.8329,3.863,3.9145,4.0312,4.3011,4.4129,4.5208,4.7117,4.8058,4.8535,4.8535,4.8309,4.7908,4.723,4.502,4.2927,4.1335,4.021,3.8657,3.6421,3.5649,3.5168,3.4816,3.4277,3.3789,3.3399,3.3265,3.3058,3.269,3.2545,3.2168,3.1381,3.1247,3.0791,2.9994,2.9994,2.9994,2.9973,2.9518,2.898,2.8411,2.8069,2.7779,2.75,2.6837,2.647,2.6134,2.5492,2.469,2.3895,2.3127,2.2356,2.1695,2.0605,2.0605,2.0867,2.169,2.1832,2.2611,2.4719,2.5688,2.627,2.6465,2.6521,2.685,2.7604,2.7887,2.8298,2.8971,3.014,3.0946,3.1193,3.486,3.6823,3.6387,3.8942,4.0352,4.0374,4.0404,4.0718,4.1385,4.2266,4.2874,4.3284,4.4113,4.4759,4.517,4.517,4.52,4.52,4.4541,4.3873,4.3319,4.329,4.294,4.2425,4.2381,4.1991,4.1324,4.0681,4.0016,0.0,0.0,3.901,3.8884,3.9384,3.9265,0.0,3.7071,3.4965,3.3269,3.3822,3.4726,3.5734,3.686,3.8039,3.9132,4.0199,4.0811,4.1593,4.276,4.3865,4.4982,4.6137,4.7217,4.7933,4.7933,4.8385,4.8372,4.7292,4.6103,4.4563,4.2155,4.0923,3.9753,0.0,3.7269,3.6037,3.4876,3.3906,3.3389,3.3379,3.2975,3.269,3.2669,3.2246,3.1836,3.1381,3.0936,3.047,2.9994,2.9994,2.9994,2.9973,2.9518,2.8804,2.7945,2.7935,2.7427,2.6656,2.6625,2.6061,2.523,2.5199,2.491,2.4475,2.4432,2.3256,2.1695,2.0605,2.0605,2.0771,2.1302,2.1842,2.2482,2.3329,2.4338,2.5207,2.5769,2.6746,0.0,0.0,0.0,0.0,0.0,2.9887,3.0922,3.1542,3.3876,3.547,3.5948,3.7528,3.8492,3.8677,3.9455,3.9986,4.0201,4.136,4.1992,4.2123,4.2754,4.3156,4.3328,4.3328,4.3455,4.3665,4.2993,4.3005,4.3371,4.2753,4.2632,4.2631,4.0633,3.9479,3.8661,0.0,3.6512,3.7248,0.0,3.6343,3.6439,3.7327,3.6951,3.5897,3.4692,3.3701,3.333,3.5024,3.5897,3.6669,3.8185,3.902,3.9609,4.035,4.0664,4.1103,4.225,4.2446,4.2785,4.389,4.4995,4.5974,4.6728,4.7606,4.8071,4.7694,4.6715,4.4985,4.2238,4.2344,0.0,0.0,0.0,0.0,3.5612,3.3917,3.2954,3.2954,3.2809,3.2535,3.2225,3.206,3.1536,3.047,3.0305,2.9839,2.9073,2.9073,2.8918,2.8618,2.8452,2.7893,2.7024,2.7024,2.6672,2.6092,2.5802,2.5458,2.5158,2.4848,2.4631,2.4497,2.4497,2.41,2.356,0.0,2.0555,2.0947,2.1396,2.1899,0.0,0.0,0.0,0.0,0.0,0.0,0.0,0.0,0.0,0.0,0.0,0.0,2.997,3.0559,3.2494,3.394,3.4606,3.5997,3.6872,3.7136,3.7868,3.8387,3.8625,3.9718,4.0294,4.0433,4.1259,4.1705,4.1826,4.2049,4.2391,4.2796,4.2126,4.2011,4.2187,4.1643,4.1142,4.0576,3.8604,3.7366,0.0,3.4311,3.403,3.4553,3.4335,3.4347,3.4609,3.5511,3.5282,3.444,3.3395,3.3344,3.4168,3.6643,3.7149,3.748,3.9468,3.9829,3.9785,4.0136,4.0224,4.0425,4.1182,4.084,4.0789,4.1894,4.2836,4.3752,4.4681,4.5899,4.674,4.674,4.5974,4.4702,4.2785,4.2972,4.1987,0.0,0.0,0.0,3.5365,3.3833,3.282,3.2442,3.2432,3.2282,3.1816,3.1485,3.0884,3.0005,2.9673,2.9208,2.8618,2.8618,2.8369,2.7914,2.7759,2.7282,2.6604,2.6438,2.6061,2.5627,2.5303,2.5086,2.491,2.4621,2.4497,2.4497,2.4497,2.4497,2.4497,0.0,0.0,2.1296,0.0,0.0,0.0,0.0,0.0,0.0,0.0,0.0,0.0,0.0,0.0,0.0,0.0,0.0,0.0,2.8268,3.0691,3.2152,3.2292,3.4235,3.5418,3.561,3.5624,3.5983,3.6596,3.738,3.7887,3.8145,3.9534,4.0354,4.0733,4.1256,4.1805,4.2283,4.1722,4.081,3.9761,3.9892,3.8588,3.6517,3.6434,3.5606,3.4398,3.3661,3.2548,3.1579,3.2555,3.3178,3.3613,3.412,3.4452,3.4447,3.3488,3.4047,3.5613,3.8355,3.847,3.8329,4.0627,4.0491,3.9788,3.9736,3.9724,3.9698,3.9609,3.9145,3.9057,0.0,0.0,4.1417,4.2074,4.3551,4.4681,4.4706,4.4254,4.389,0.0,0.0,0.0,0.0,0.0,0.0,3.4404,0.0,3.2965,3.2029,3.1988,3.1826,3.136,3.047,2.9973,2.9922,2.9001,2.8545,2.8545,2.8545,2.8297,2.7841,2.7417,2.7009,2.6521,2.6086,2.5595,2.5148,2.5148,2.489,2.4497,2.4497,2.4497,2.454,2.454,2.454,2.4583,0.0,0.0,0.0,0.0,0.0,0.0,0.0,0.0,0.0,0.0,0.0,0.0,0.0,0.0,0.0,0.0,0.0,0.0,2.6847,2.8267,2.9196,2.9346,3.0673,3.1519,3.1704,3.2169,3.2498,3.2648,3.3929,3.4602,3.4712,3.6074,3.6783,3.6928,3.7072,3.7069,3.702,3.6863,3.6508,3.6076,3.6396,3.6164,3.5485,3.422,3.354,3.3037,3.1356,3.0778,3.0983,3.208,3.3171,3.4443,3.6262,3.6117,3.556,3.6898,3.6975,3.6945,3.8521,3.969,4.0535,4.1015,4.1117,4.0982,4.044,3.9842,3.9272,3.8842,3.7848,3.6985,3.6787,0.0,0.0,4.1329,4.3639,0.0,4.5824,4.5761,0.0,4.3388,0.0,4.2538,4.0324,3.9702,0.0,0.0,3.4143,3.2644,3.2019,3.1988,3.1681,3.0884,3.0294,2.9663,2.897,2.8059,2.7652,2.7652,2.7652,2.7413,2.691,2.6843,2.632,2.5564,2.5451,2.5096,2.4673,2.4673,2.4611,2.4497,2.4497,2.4615,2.4786,2.4786,2.4903,2.5084,0.0,0.0,0.0,0.0,0.0,0.0,0.0,0.0,0.0,0.0,0.0,0.0,0.0,0.0,0.0,0.0,0.0,0.0,0.0,2.677,2.7305,2.7759,2.8398,2.8827,2.9056,2.9404,2.96,2.96,3.0723,3.1215,3.1079,3.2455,3.3032,3.2911,3.3202,3.3583,3.3973,3.3749,3.3658,0.0,0.0,3.3302,3.2761,3.1848,3.1487,3.137,3.0465,3.0821,3.1849,3.2708,3.3827,3.5142,3.6632,3.6784,3.6579,3.7441,3.7483,3.7511,3.8678,3.9363,3.9906,4.0768,4.0779,4.0365,3.9455,3.9054,3.8486,3.7086,3.6188,3.5567,3.5194,3.6609,3.8215,0.0,0.0,0.0,4.4553,4.4551,4.4204,0.0,4.3187,0.0,4.0789,4.0049,3.9081,0.0,3.5123,3.3205,3.2515,3.1811,3.1029,3.0108,2.9632,2.8949,2.8028,2.7558,2.7309,2.7309,2.7309,2.7061,2.6604,2.6407,2.5885,2.5179,0.0,2.4821,2.4658,2.4658,2.4743,2.4828,2.4828,2.4914,2.5031,2.5031,2.4988,2.4976,0.0,0.0,0.0,0.0,0.0,0.0,0.0,0.0,0.0,0.0,2.3753,2.4408,2.5607,2.5975,0.0,0.0,0.0,0.0,0.0,0.0,2.5994,2.6625,2.6659,2.6771,2.7017,2.7017,2.7017,2.7017,2.7759,2.7949,2.763,2.8947,2.9396,2.9201,2.975,3.0636,3.174,3.1265,3.1253,3.1452,3.1103,3.0448,2.9624,0.0,0.0,2.9867,3.0419,3.1625,3.3068,3.3771,3.4763,3.5867,3.6507,3.716,3.7658,3.702,3.715,3.7756,3.8774,3.853,3.8389,4.0211,4.0024,3.9089,3.7922,3.795,3.7536,3.5143,3.4613,3.4587,3.4512,3.5429,3.6528,3.7523,0.0,4.0999,4.2489,4.2427,4.2564,4.3463,4.2672,4.2074,4.1999,4.0094,3.8868,3.8795,3.6231,3.4272,3.338,3.1848,3.0496,2.9349,2.8782,2.811,2.732,2.7309,2.7309,2.7309,2.7247,2.6978,2.6511,2.5999,2.5554,2.5075,2.4716,0.0,2.4903,2.4946,2.5031,2.52,2.52,2.52,2.5242,2.5242,2.4997,2.4751,0.0,0.0,0.0,0.0,0.0,0.0,0.0,0.0,0.0,0.0,2.2268,2.3083,0.0,0.0,0.0,0.0,0.0,0.0,0.0,0.0,0.0,2.438,2.438,2.437,2.4456,2.4456,2.4456,2.4456,2.5295,2.5665,2.5634,2.6649,2.7061,2.7031,2.7163,2.7337,2.7573,2.7451,2.7527,2.7806,2.8405,2.8686,2.8791,0.0,0.0,0.0,3.0419,3.1373,3.2591,3.4085,3.5438,3.6847,3.868,3.8966,3.8791,3.9934,3.9513,3.8754,3.8965,3.9401,3.9805,3.9997,3.9991,3.9534,3.8238,3.7483,3.6531,3.4743,3.4212,3.3897,3.3445,3.4261,3.5688,3.7916,3.9322,4.0893,4.2958,4.2844,4.2507,0.0,4.1869,4.1304,4.084,4.0042,0.0,0.0,0.0,3.5109,3.4462,3.3248,3.1634,2.9461,2.8519,2.779,2.7309,2.7309,2.7309,2.7299,2.6915,2.649,2.6034,2.5544,2.5055,2.4611,2.4774,0.0,2.4903,2.5073,2.5158,2.52,2.52,2.5338,2.5517,2.5517,2.5589,2.5607,0.0,0.0,0.0,0.0,0.0,0.0,1.8446,1.929,2.0192,2.0828,2.1266,2.198,2.3188,2.3276,2.3319,0.0,0.0,0.0,0.0,0.0,0.0,0.0,0.0,0.0,2.3797,2.3797,2.3797,2.3797,0.0,2.4435,2.4435,2.4861,2.5073,2.5073,2.5073,2.5358,2.5755,2.5755,2.6099,2.6689,2.7087,2.7412,0.0,0.0,0.0,0.0,0.0,3.1725,3.2792,3.3596,3.4677,3.6058,3.8197,3.8664,3.8509,3.9264,3.8798,3.8122,3.8418,3.8562,3.8786,3.9408,3.9359,3.8768,3.7292,3.6646,3.5758,3.3637,3.3343,3.3395,3.3174,3.3985,3.5403,3.7457,3.8472,3.9791,4.2019,4.1856,4.1578,4.1693,4.1241,4.0701,0.0,3.9584,3.9032,0.0,0.0,3.6074,3.5199,3.3334,3.1661,3.0155,2.8957,2.8094,2.7672,2.717,2.6822,2.6584,2.6366,2.5978,2.5533,2.5448,2.5138,2.4743,2.4946,0.0,2.5253,2.538,2.5464,2.5549,2.5549,2.5633,2.578,2.578,2.5507,2.5164,0.0,0.0,0.0,0.0,0.0,0.0,1.7546,1.8661,1.9756,2.0419,2.0691,2.1305,2.2659,2.2735,2.2777,0.0,0.0,0.0,0.0,0.0,0.0,0.0,0.0,0.0,0.0,0.0,0.0,2.3353,2.357,0.0,0.0,0.0,0.0,0.0,2.3667,2.4026,2.467,2.467,2.5136,0.0,0.0,2.6265,0.0,0.0,0.0,0.0,0.0,3.1577,3.2635,3.285,3.347,3.4525,3.6508,3.745,3.7839,3.7839,3.76,3.7475,3.804,3.7776,3.7649,3.893,3.8652,3.7728,3.6231,3.5834,3.5046,3.2696,3.2667,3.3124,3.3124,3.3784,3.4899,0.0,3.7292,3.84,4.0786,4.0602,4.0465,0.0,4.0717,0.0,3.9674,3.912,0.0,0.0,0.0,0.0,3.5466,3.3255,3.1727,3.0997,2.9688,2.8668,2.8003,2.7503,2.6823,2.5965,2.613,2.5899,2.5355,2.5459,2.5293,2.4988,2.52,0.0,0.0,2.5654,2.578,2.5895,2.5895,2.5895,2.5895,2.5895,2.536,2.4672,0.0,0.0,0.0,0.0,0.0,0.0,1.6639,1.8156,1.9454,1.9838,2.0601,2.1343,2.1796,2.1569,2.1789,0.0,0.0,0.0,0.0,0.0,0.0,0.0,0.0,0.0,0.0,0.0,0.0,2.1872,2.2731,0.0,0.0,0.0,0.0,0.0,0.0,2.3222,2.3256,2.3256,0.0,0.0,0.0,0.0,0.0,0.0,0.0,0.0,0.0,2.9716,3.1131,3.1995,3.2353,3.2654,3.3884,3.5655,3.7262,3.7262,3.7575,3.8052,3.8642,3.8366,3.8078,3.8768,3.8114,3.7008,3.5889,3.5223,3.4299,3.2566,3.2667,3.3124,3.3124,3.3156,3.389,3.5778,0.0,3.7184,4.0146,3.9905,3.9778,4.0805,0.0,0.0,3.9285,3.8778,0.0,0.0,0.0,0.0,3.4782,3.3747,3.264,3.1543,3.0554,2.9387,2.7992,2.8868,2.8266,2.618,2.678,2.6648,2.5805,2.5413,2.519,2.52,2.5433,0.0,0.0,2.5822,2.5895,2.5895,2.5895,2.5895,2.5895,2.5895,2.5568,2.5095,0.0,0.0,0.0,0.0,0.0,0.0,1.6535,1.7416,1.8346,1.9086,1.9526,2.0004,2.0713,2.0674,2.091,2.1783,2.1497,0.0,0.0,0.0,0.0,0.0,0.0,0.0,0.0,0.0,2.298,2.298,2.3599,0.0,0.0,0.0,0.0,0.0,0.0,2.3091,2.3091,0.0,0.0,0.0,0.0,0.0,0.0,0.0,0.0,0.0,0.0,0.0,3.0483,3.1062,3.1687,3.2177,3.1989,3.3206,3.4901,3.5906,3.631,3.6872,3.8442,3.8705,3.8668,3.922,3.8266,3.6985,3.6245,3.5127,3.3947,3.2943,3.2918,3.3124,3.3124,3.3124,3.3595,3.5212,3.5337,0.0,3.7909,3.784,3.7895,3.8815,3.8713,0.0,0.0,0.0,3.7865,0.0,0.0,0.0,3.5168,3.4207,3.3155,3.2013,3.1532,3.0525,2.8962,2.9254,2.8645,2.7169,2.7435,2.7096,2.624,2.6168,2.5893,2.5464,2.5686,0.0,0.0,2.5853,2.5895,2.5895,2.5895,2.5895,2.5874,2.5568,2.5164,2.4694,0.0,0.0,0.0,0.0,0.0,1.6579,1.6313,1.689,1.765,1.8571,1.8818,1.9264,2.0088,2.0183,2.0392,2.0845,2.0768,0.0,0.0,0.0,0.0,0.0,0.0,0.0,0.0,0.0,2.276,2.309,2.366,2.4081,0.0,0.0,2.3789,2.3769,0.0,0.0,0.0,0.0,0.0,0.0,0.0,0.0,0.0,0.0,0.0,0.0,0.0,0.0,0.0,0.0,0.0,3.1838,3.1085,3.1537,3.2667,3.4336,3.5119,3.5947,3.8052,3.8743,3.9057,3.9559,3.8429,3.7048,3.6508,3.5102,3.3746,3.3194,3.3124,3.3124,3.3124,3.3154,3.3555,3.4635,3.4743,3.5122,3.6501,3.6481,3.6662,3.7457,0.0,3.7629,0.0,3.7758,0.0,0.0,0.0,0.0,3.5436,3.4248,3.3227,3.242,3.2251,3.135,2.9691,2.9869,2.9263,2.7884,2.8203,2.7924,2.7087,2.7209,2.6946,2.6445,2.6569,0.0,0.0,2.6218,2.6038,2.6016,2.5607,2.548,2.5459,2.5292,2.4792,2.4235,0.0,0.0,0.0,0.0,0.0,1.5833,1.5826,1.6713,1.7659,1.8333,1.8905,1.9513,2.011,2.0183,2.0176,2.0216,2.0505,0.0,0.0,0.0,0.0,0.0,0.0,0.0,1.8383,1.9308,2.0361,2.141,2.2369,2.3364,2.4404,2.3984,2.3789,2.3769,0.0,0.0,0.0,0.0,0.0,0.0,0.0,0.0,2.3596,0.0,0.0,0.0,0.0,0.0,0.0,0.0,0.0,0.0,0.0,3.1035,3.0972,3.2616,3.4261,3.5859,3.7563,3.8429,3.9057,3.9559,3.8429,3.7036,3.6531,3.509,3.3746,3.3194,3.3124,3.3124,3.3124,3.3283,3.3576,3.4103,3.4423,0.0,3.6425,3.6366,3.6552,0.0,0.0,3.7518,3.7518,3.7518,0.0,0.0,0.0,0.0,3.5398,3.3811,3.289,3.289,3.2628,3.1659,2.9893,3.0926,3.036,2.8124,2.9174,2.9225,2.8386,2.8386,2.8386,0.0,0.0,0.0,0.0,2.6958,2.6393,2.6268,2.5019,2.4497,2.4563,2.5051,2.4563,2.3771,0.0,0.0,0.0,0.0,0.0,0.0,1.6355,1.6892,1.7657,1.8571,1.9015,1.9608,2.0472,2.0772,2.0808,2.0533,2.0036,0.0,0.0,0.0,0.0,0.0,0.0,2.0965,2.041,2.2389,2.3743,2.4331,2.4964,2.5411,2.5752,2.5322,2.4961,2.4675,2.3906,2.3584,0.0,0.0,0.0,0.0,0.0,2.3805,2.414,0.0,0.0,0.0,0.0,0.0,0.0,0.0,0.0,0.0,0.0,0.0,0.0,3.1763,3.2566,3.359,3.5303,3.6169,3.6734,3.7274,3.6445,3.5454,3.5278,3.4382,3.3485,3.3149,3.3313,3.3471,3.3313,3.3471,3.379,3.4364,3.4553,3.4897,0.0,0.0,0.0,3.6858,3.7423,3.7593,0.0,0.0,0.0,0.0,0.0,0.0,3.4799,3.4059,3.3302,3.238,3.241,3.1791,3.0445,3.1293,3.1151,3.0101,3.0419,3.0139,2.9303,2.9303,2.8939,0.0,0.0,0.0,0.0,2.7394,2.7005,2.652,2.5622,2.5266,2.5244,2.5052,2.4781,2.4476,0.0,0.0,0.0,0.0,0.0,0.0,1.6298,1.6817,1.7457,1.8246,1.8789,1.9462,2.0435,2.083,2.0998,2.0911,2.0245,0.0,0.0,0.0,0.0,0.0,2.028,2.1275,2.2045,2.3175,2.4359,2.5605,2.5872,2.6208,2.6621,2.6182,2.5752,2.5293,2.459,2.418,0.0,0.0,0.0,0.0,2.3721,2.3848,2.399,0.0,0.0,0.0,0.0,0.0,0.0,0.0,0.0,0.0,0.0,0.0,0.0,0.0,3.1486,3.2064,3.4104,3.5082,3.5621,3.6267,3.5529,3.468,3.468,3.3947,3.3283,3.324,3.3398,3.3556,3.3513,3.3683,3.3968,3.4341,3.4491,3.4727,0.0,0.0,0.0,3.6111,0.0,0.0,0.0,0.0,0.0,0.0,0.0,0.0,3.445,3.3673,3.2835,3.2016,3.203,3.1669,3.0811,3.1263,3.1339,3.0986,3.0986,3.071,3.0177,3.0177,2.9896,0.0,0.0,0.0,0.0,2.7778,2.7274,2.6834,2.5877,2.5483,2.5459,2.5357,2.5193,2.5043,0.0,0.0,0.0,0.0,0.0,0.0,0.0,1.6501,1.7161,1.7584,1.834,1.9162,2.0081,2.0475,2.0852,2.1181,2.0933,0.0,0.0,0.0,0.0,2.0348,2.0358,2.12,2.3074,2.2272,2.3046,2.558,2.558,2.6055,2.7051,2.666,2.624,2.5762,2.5332,2.4853,0.0,0.0,0.0,0.0,2.3682,2.3613,0.0,0.0,0.0,0.0,0.0,0.0,0.0,0.0,0.0,0.0,0.0,0.0,0.0,0.0,0.0,0.0,0.0,3.4843,3.5382,3.5943,3.5328,3.4575,3.4455,3.3721,0.0,3.3292,3.3352,3.3424,3.367,3.3911,3.4079,3.4118,3.4272,3.462,0.0,3.543,0.0,0.0,3.6332,0.0,3.6057,0.0,0.0,0.0,0.0,0.0,3.428,3.2685,3.1784,3.1745,3.1552,3.1305,3.0986,3.0986,3.0986,3.0986,3.0986,3.0986,3.0986,3.0986,3.096,0.0,0.0,0.0,0.0,2.8099,2.7347,2.7201,2.5882,2.5382,2.5431,2.5877,2.5744,2.5443,0.0,0.0,0.0,0.0,0.0,0.0,0.0,0.0,0.0,0.0,1.8534,1.9162,2.0081,2.0475,2.0852,0.0,0.0,0.0,0.0,0.0,0.0,1.9949,2.1259,2.2316,2.3074,2.4499,2.5856,2.7135,2.7135,2.7292,2.751,2.7464,2.7129,2.668,2.5918,2.5146,0.0,0.0,0.0,0.0,2.4365,2.4414,0.0,0.0,0.0,0.0,2.4951,2.626,0.0,0.0,0.0,0.0,0.0,0.0,0.0,0.0,3.1286,3.1888,3.2114,0.0,3.3031,3.3156,3.3319,3.3232,0.0,3.247,3.2722,3.2764,3.2711,3.2931,3.3837,3.3864,3.3832,3.4249,3.4356,3.475,3.577,0.0,0.0,3.6018,3.6567,3.6423,3.4946,0.0,0.0,0.0,0.0,3.4018,3.3143,3.2254,3.1602,3.1196,3.1145,3.1092,3.0986,3.0986,3.0986,3.0986,3.0986,3.0986,3.0986,3.0986,3.0751,0.0,0.0,0.0,2.8778,2.8304,2.7872,2.7369,2.6465,2.6139,2.6151,2.6275,2.6251,2.6089,0.0,0.0,0.0,0.0,0.0,0.0,0.0,0.0,0.0,0.0,1.8265,1.8877,1.9711,2.0216,2.0633,0.0,0.0,0.0,0.0,2.0479,2.0332,2.0499,2.1631,2.2841,2.4145,2.5488,2.681,2.8002,2.8002,2.8002,2.8002,2.8002,2.7617,2.6982,2.6074,2.5361,2.4717,2.4717,2.4736,2.4766,2.4727,0.0,0.0,0.0,0.0,0.0,2.4935,2.6192,0.0,2.7988,2.9068,3.0231,0.0,0.0,0.0,0.0,3.121,3.1474,3.1399,3.1788,3.2215,3.2215,3.2453,3.2571,3.1996,3.2073,3.2263,3.2467,3.2439,3.2705,3.371,3.3701,3.377,3.4306,3.4397,0.0,0.0,0.0,3.6462,3.5809,3.6018,3.5848,0.0,0.0,0.0,0.0,0.0,3.2947,3.2333,3.1719,3.13,3.0999,3.0986,3.0986,3.0986,3.0986,3.0986,3.0986,3.0986,3.0986,3.0986,3.0986,3.0673,0.0,0.0,0.0,2.8394,2.8098,2.7798,2.743,2.6791,2.6675,2.6841,2.633,2.6304,2.6445,0.0,0.0,0.0,0.0,0.0,0.0,0.0,0.0,0.0,0.0,0.0,0.0,0.0,0.0,0.0,0.0,0.0,0.0,0.0,2.1117,2.1226,2.1547,2.1956,2.3218,2.546,2.5956,2.6867,2.8291,2.8359,2.8359,2.8291,2.8359,2.79,2.6982,2.6328,2.5713,2.5166,2.5166,2.4951,2.4648,2.5019,0.0,0.0,0.0,0.0,0.0,0.0,0.0,0.0,2.8171,2.9079,2.988,3.0344,0.0,0.0,0.0,0.0,0.0,3.1047,3.1716,3.2219,3.2014,3.2089,3.2235,3.2162,3.1848,3.1731,3.2171,3.2186,3.2447,3.3416,3.3522,0.0,0.0,0.0,0.0,3.4776,3.5312,3.56,3.5325,3.5365,0.0,0.0,0.0,0.0,0.0,0.0,3.1797,3.1797,3.13,3.0986,3.0986,3.0986,3.0986,3.0986,3.0986,3.0986,3.0986,3.0986,3.0986,3.0986,3.0986,3.062,2.9944,0.0,0.0,2.8203,2.7699,2.749,2.7438,2.6987,2.7105,2.7372,2.6302,2.6255,2.6614,0.0,0.0,0.0,0.0,0.0,0.0,0.0,0.0,0.0,0.0,0.0,0.0,0.0,0.0,0.0,0.0,0.0,0.0,0.0,2.2104,2.2553,2.2362,2.2661,2.3809,2.5865,2.6513,2.7334,2.8291,2.8652,2.8643,2.8301,2.8662,2.8174,2.7021,2.7266,2.6719,2.5586,2.5586,2.5547,2.5499,2.5557,0.0,0.0,0.0,0.0,0.0,0.0,0.0,0.0,2.8171,2.9079,2.9804,2.9892,0.0,0.0,0.0,0.0,0.0,3.0143,3.1271,3.2263,3.1125,3.1685,3.2124,3.0785,3.0865,3.1329,3.1604,3.128,3.15,3.3259,3.3169,3.3169,0.0,0.0,3.6018,0.0,0.0,3.6946,3.5482,0.0,0.0,0.0,0.0,0.0,0.0,0.0,3.1797,3.1797,3.13,3.0986,3.0986,3.0986,3.0986,3.0986,3.0986,3.0986,3.0986,3.0986,3.0986,3.0986,3.0986,3.0411,2.9405,0.0,2.866,2.762,2.7529,2.749,2.749,2.7398,2.7425,2.7411,2.6778,2.6627,2.6549,0.0,0.0,0.0,0.0,0.0,0.0,0.0,0.0,0.0,0.0,0.0,0.0,0.0,0.0,0.0,0.0,0.0,0.0,2.0947,2.2212,2.3231,2.3662,2.4232,2.5011,2.5966,2.7142,2.8008,2.8633,2.8818,2.8945,2.8975,2.8711,2.8144,2.7363,2.7334,2.6982,2.6376,2.6376,2.6299,2.6084,0.0,0.0,0.0,0.0,0.0,0.0,0.0,0.0,0.0,0.0,2.9456,2.9792,2.9792,0.0,0.0,0.0,0.0,0.0,3.0009,3.0782,3.1546,3.1039,3.2275,3.3305,3.206,3.182,3.2019,3.2668,3.2015,0.0,0.0,0.0,3.4741,3.5904,0.0,3.6096,3.6083,3.6044,3.5835,0.0,0.0,0.0,0.0,0.0,0.0,0.0,0.0,0.0,3.1378,3.113,3.0986,3.0986,3.0986,3.0986,3.0986,3.0986,3.0986,3.0986,3.0673,3.0686,3.0986,3.0986,3.0529,2.9732,0.0,2.8791,2.7968,2.762,2.749,2.7438,2.6811,2.6791,2.6961,2.6104,2.5594,2.5262,0.0,0.0,0.0,0.0,0.0,0.0,0.0,0.0,0.0,0.0,0.0,0.0,0.0,0.0,0.0,0.0,0.0,0.0,2.0713,2.2322,2.3708,2.4663,2.5838,2.6505,2.6549,2.768,2.8496,2.8916,2.9121,2.9385,2.9697,2.8945,2.831,2.7793,2.7461,2.7197,2.7012,2.7012,2.6826,2.6523,0.0,0.0,0.0,0.0,0.0,0.0,0.0,0.0,0.0,0.0,0.0,0.0,0.0,0.0,0.0,2.9869,2.9869,2.9895,3.0113,3.0699,3.1262,3.1279,3.2577,3.3821,3.3597,3.3131,3.3132,3.441,0.0,0.0,0.0,3.5964,0.0,3.7359,3.682,3.6138,3.6049,3.5296,3.4868,3.5064,0.0,0.0,0.0,0.0,0.0,0.0,0.0,0.0,3.0986,3.0986,3.0986,3.0986,3.0986,3.0921,3.079,3.0647,3.0762,3.0973,3.0375,3.0322,3.0777,3.0647,3.0268,2.9657,2.9261,2.876,2.8137,2.7673,2.749,2.7411,2.6537,2.6334,2.6379,2.5371,2.4717,2.4387,0.0,0.0,0.0,0.0,0.0,0.0,0.0,0.0,0.0,0.0,0.0,0.0,0.0,0.0,0.0,0.0,0.0,0.0,2.0684,2.2905,2.4367,2.471,2.6924,2.8135,2.8135,2.8218,2.8496,2.8916,2.9717,3.0117,3.0137,2.9687,2.9033,2.8252,2.8213,2.7764,2.7012,2.7012,2.6992,2.6934,2.6543,0.0,0.0,0.0,0.0,0.0,0.0,0.0,0.0,0.0,0.0,0.0,0.0,0.0,2.983,3.0011,3.0075,3.0113,3.033,3.1319,3.2159,3.1591,3.1604,3.2215,3.4084,3.4221,3.455,3.6557,0.0,0.0,0.0,3.5985,3.6291,3.759,3.7016,3.6873,3.7998,0.0,3.56,3.458,0.0,0.0,0.0,0.0,0.0,0.0,0.0,0.0,3.0986,3.0986,3.0986,3.0986,3.0986,3.0725,3.0166,2.9666,2.9928,3.0973,3.0375,3.0113,3.014,2.964,2.91,2.8503,2.8499,2.8124,2.7555,2.7516,2.749,2.749,2.7411,2.6759,2.578,2.5227,2.4966,2.494,0.0,0.0,0.0,0.0,0.0,0.0,0.0,0.0,0.0,0.0,0.0,0.0,0.0,0.0,0.0,0.0,0.0,1.9617,1.9806,2.2616,2.4347,2.443,2.6929,2.8291,2.8291,2.8555,2.9023,2.9717,3.0332,3.0478,3.0185,2.9766,2.9258,2.8672,2.8408,2.8115,2.7812,2.7812,2.7656,2.7383,2.6953,2.6094,0.0,0.0,0.0,0.0,0.0,0.0,0.0,0.0,2.9792,2.9792,2.9792,2.9792,2.983,3.0049,3.0113,3.0152,3.0495,3.1274,3.2071,3.2368,3.2502,3.3053,3.4908,3.5599,3.6329,3.8016,3.7809,0.0,0.0,0.0,3.7987,3.8474,3.8118,3.7827,3.7965,3.6755,3.5557,0.0,0.0,0.0,0.0,0.0,0.0,0.0,0.0,0.0,3.096,3.0647,3.062,3.0973,3.0647,3.0309,3.01,2.9575,2.9532,2.9951,2.9327,2.9235,2.9601,2.9379,2.9192,2.8957,2.8577,2.8255,2.8033,2.7633,2.749,2.7425,2.672,2.5994,2.5262,2.507,2.4992,2.5097,0.0,0.0,0.0,0.0,0.0,0.0,0.0,0.0,0.0,0.0,0.0,0.0,0.0,0.0,0.0,0.0,1.9242,1.9169,1.9264,2.2177,2.3977,2.416,2.6536,2.8076,2.8476,2.8643,2.9141,3.0,3.0596,3.0654,3.0185,2.9766,2.9336,2.8896,2.8476,2.8291,2.8281,2.8144,2.793,2.7669,2.7041,2.6113,0.0,0.0,0.0,0.0,0.0,0.0,0.0,0.0,2.9792,2.9792,2.9792,2.983,2.9934,3.0152,3.0228,3.0419,3.0998,3.1529,3.2073,3.286,3.3477,3.4349,3.6158,3.6972,3.7873,3.9764,3.9257,3.8606,3.9115,0.0,0.0,0.0,3.8562,3.8099,3.7873,3.6462,3.5221,0.0,0.0,0.0,0.0,0.0,0.0,0.0,0.0,0.0,0.0,3.0309,3.0192,3.0474,3.0241,2.9918,2.9588,2.9196,2.8908,2.8726,2.8307,2.8425,2.9022,2.8817,2.8726,2.8699,2.8294,2.8111,2.8072,2.7659,2.7385,2.7157,2.6171,2.5471,2.4992,2.4992,2.511,2.538,0.0,0.0,0.0,0.0,0.0,0.0,0.0,0.0,1.9448,1.9779,1.9815,0.0,0.0,0.0,0.0,0.0,1.9162,1.8921,1.9294,2.1705,2.3307,2.3772,2.5853,2.7607,2.8877,2.8506,2.8721,2.9626,3.0459,3.0644,3.0185,2.9756,2.9336,2.8896,2.8476,2.8281,2.8262,2.7885,2.7708,2.763,2.6719,2.585,2.5106,0.0,0.0,0.0,0.0,0.0,0.0,0.0,2.9792,2.9792,2.9792,2.9946,3.0164,3.033,3.0533,3.0911,3.1846,3.211,3.229,3.3052,3.4274,3.5834,3.7856,3.8308,3.9088,4.1822,4.0801,3.9388,3.9388,3.8332,0.0,3.9185,3.8149,3.7433,3.8086,3.629,0.0,0.0,0.0,0.0,0.0,0.0,0.0,0.0,0.0,0.0,0.0,3.0087,2.9826,2.9336,2.9823,2.9562,2.842,2.8407,2.8085,2.749,2.749,2.7824,2.8381,2.7785,2.749,2.749,2.749,2.749,2.749,2.749,2.7183,2.6654,2.6046,2.5471,2.5005,2.5005,2.5341,2.5871,0.0,0.0,0.0,0.0,0.0,0.0,0.0,0.0,1.9469,2.0018,1.9901,0.0,0.0,0.0,0.0,0.0,0.0,1.8781,1.9617,2.1313,2.2824,2.3984,2.5952,2.7334,2.8027,2.8496,2.9004,2.9626,3.0127,3.0185,2.9746,2.9316,2.9043,2.8887,2.8174,2.7851,2.7855,2.708,2.6768,2.6689,2.5859,2.5117,2.458,0.0,0.0,0.0,0.0,0.0,0.0,0.0,0.0,0.0,2.9792,3.0211,3.0621,3.0445,3.121,3.2113,3.21,3.2847,3.3819,3.4519,3.5429,3.6649,3.8623,3.9068,0.0,0.0,4.116,4.0113,4.0113,3.9409,0.0,3.8093,3.8037,3.7807,3.7089,3.5962,0.0,0.0,0.0,0.0,0.0,0.0,0.0,0.0,0.0,0.0,0.0,2.9131,2.9013,2.931,2.9039,2.8726,2.842,2.7981,2.7659,2.749,2.749,2.7581,2.7771,2.7568,2.749,2.749,2.749,2.749,2.7464,2.7092,2.6831,2.6601,2.5633,2.5367,2.5563,2.5563,2.5929,2.6504,0.0,0.0,0.0,0.0,0.0,0.0,0.0,0.0,1.922,1.9608,1.9608,1.9689,0.0,0.0,0.0,0.0,1.8994,1.902,1.9771,2.1044,2.2474,2.4137,2.5655,2.6875,2.7699,2.8496,2.8965,2.9062,2.9658,2.9726,2.9307,2.9043,2.8828,2.8643,2.8135,2.7725,2.7363,2.668,2.6191,2.5801,2.5098,2.4551,2.418,0.0,0.0,0.0,0.0,0.0,0.0,0.0,0.0,0.0,2.9792,3.02,3.0662,3.0471,3.1371,3.2488,3.2508,3.3592,3.4918,3.5884,3.6694,3.7629,3.9059,4.0023,4.0935,0.0,4.1309,4.0434,4.0507,3.9532,0.0,3.8002,3.7891,3.7545,3.663,3.5893,0.0,0.0,0.0,0.0,0.0,0.0,0.0,0.0,0.0,0.0,0.0,2.9139,2.8836,2.8968,2.861,2.8268,2.8033,2.7659,2.749,2.749,2.749,2.749,2.749,2.749,2.749,2.749,2.7255,2.7066,2.6785,2.6478,2.6203,2.5986,2.5484,2.538,2.5537,2.5994,2.6386,2.6784,0.0,0.0,1.786,1.786,0.0,0.0,0.0,0.0,1.8833,1.8833,1.9096,1.9374,0.0,0.0,0.0,0.0,0.0,0.0,1.9747,2.072,2.214,2.4085,2.5215,2.6435,2.7748,2.8467,2.8672,2.8291,2.9072,2.9228,2.8809,2.8809,2.8603,2.8232,2.8154,2.7685,2.6924,2.6387,2.5684,2.4959,2.4473,2.4092,2.3867,2.4609,0.0,0.0,0.0,0.0,0.0,0.0,0.0,0.0,2.9792,3.0113,3.0471,3.0419,3.1296,3.2431,3.3017,3.4295,3.5741,3.7054,3.7988,3.8771,3.9364,4.0973,4.2329,4.2269,0.0,4.0492,4.0601,3.9099,3.7997,3.848,3.7661,3.6859,3.6502,3.6029,0.0,0.0,0.0,0.0,0.0,0.0,0.0,0.0,0.0,0.0,0.0,2.9728,2.9135,2.8527,2.8445,2.8114,2.7503,2.749,2.749,2.749,2.749,2.749,2.749,2.749,2.7464,2.7385,2.6896,2.6347,2.5793,2.5741,2.5471,2.5123,2.5563,2.5484,2.528,2.6327,2.6745,2.6863,0.0,0.0,1.8196,1.8196,0.0,0.0,0.0,0.0,0.0,0.0,0.0,0.0,0.0,0.0,0.0,0.0,0.0,0.0,1.9344,2.0095,2.1278,2.322,2.5503,2.7187,2.8135,2.833,2.8389,2.8291,2.8476,2.835,2.7939,2.7939,2.7891,2.7826,2.71,2.6689,2.6426,2.4971,2.4238,2.4023,2.3594,2.3564,2.3769,2.3613,2.3799,0.0,0.0,0.0,0.0,0.0,0.0,0.0,2.9792,3.0379,3.0932,3.0535,3.1947,3.3617,3.3283,3.4669,3.6443,3.7221,3.8797,4.0248,4.0398,4.1225,4.1828,4.1203,4.096,4.0722,4.0162,3.9334,3.8425,3.7516,3.717,3.6791,3.6181,3.6001,0.0,0.0,0.0,0.0,0.0,0.0,0.0,0.0,0.0,0.0,2.9757,2.9558,2.9186,2.8514,2.8473,2.8159,2.7503,2.749,2.749,0.0,2.749,2.749,2.749,2.749,2.7288,2.6857,2.6758,2.6347,2.5754,2.5341,2.5341,2.5615,2.5275,2.5659,2.6366,2.6614,2.6961,2.7366,0.0,0.0,0.0,0.0,0.0,0.0,0.0,0.0,0.0,0.0,0.0,0.0,0.0,0.0,0.0,0.0,0.0,0.0,1.9233,1.9849,2.143,2.4164,2.605,2.7324,2.7978,2.7793,2.7783,2.7988,2.7373,2.7373,2.7969,2.7969,2.7969,2.793,2.707,2.6465,2.5986,2.4658,2.3857,2.3457,2.3188,2.3227,2.3477,2.3457,2.3594,2.3889,2.4666,0.0,0.0,0.0,0.0,0.0,0.0,0.0,3.074,3.0483,3.1937,3.3585,3.3276,3.5038,3.7184,3.8227,3.9595,4.0637,4.0429,4.0755,4.1015,4.0608,4.0496,4.0284,3.969,3.8777,3.7895,3.7195,3.6926,3.659,3.6066,3.6068,0.0,0.0,0.0,0.0,0.0,0.0,0.0,0.0,0.0,3.1541,3.0523,3.0133,2.9546,2.8629,2.8525,2.8055,2.7118,2.7359,2.749,2.749,2.749,2.749,2.749,2.7249,2.6804,2.6242,2.6012,2.5725,2.5367,2.4792,2.5114,2.591,2.5638,2.6122,2.6958,2.717,2.7473,2.7802,0.0,0.0,0.0,0.0,0.0,0.0,0.0,0.0,0.0,0.0,0.0,0.0,0.0,0.0,0.0,0.0,0.0,0.0,1.9154,2.0058,2.2077,2.545,2.6327,2.7002,2.7483,2.7141,2.7092,2.7427,2.6359,2.6673,2.8343,2.809,2.8047,2.8144,2.7217,2.6445,2.5723,2.4621,2.3828,2.3198,2.312,2.314,2.3237,2.3574,2.3496,2.334,2.4256,2.4822,2.5348,2.687,0.0,0.0,0.0,0.0,3.0368,3.0406,3.1613,3.3003,3.3143,3.5183,3.7603,3.9113,3.9922,4.0302,3.9915,4.0004,4.0132,4.001,3.9882,3.9675,3.9161,3.8078,3.7206,3.7099,3.6751,3.6398,3.6132,3.6179,0.0,0.0,0.0,0.0,0.0,0.0,0.0,0.0,0.0,3.2108,3.1525,3.097,3.0115,2.8872,2.8629,2.7993,2.6867,2.7177,2.7398,2.749,2.749,2.749,2.7477,2.6935,2.6444,2.5973,2.552,2.5271,2.5127,2.455,2.5086,2.6223,2.6162,2.656,2.724,2.7709,2.7901,2.7979,0.0,0.0,0.0,0.0,0.0,0.0,0.0,0.0,0.0,0.0,1.9165,1.873,0.0,0.0,1.7461,1.7465,1.741,1.7858,1.8821,0.0,0.0,2.5117,2.5644,2.6113,2.6553,2.6694,2.6596,2.6309,2.6325,2.7052,2.8455,2.7237,2.7041,2.7748,2.6455,2.6055,2.6172,2.416,2.3467,2.3672,2.3247,2.3315,2.3662,2.3305,2.3428,2.3717,2.3683,2.429,2.5294,2.6509,2.7615,0.0,0.0,0.0,3.019,3.0368,3.1158,3.2146,3.2967,3.4878,3.6911,3.8247,3.8902,3.9221,3.9161,3.9356,3.9425,0.0,3.918,3.9346,3.8688,3.7983,3.7275,3.6691,3.6553,3.6492,3.6429,3.646,0.0,0.0,0.0,0.0,0.0,0.0,0.0,0.0,3.2268,3.1788,3.1511,3.1409,3.0763,2.9449,2.8914,2.829,2.7508,2.7029,2.704,2.749,2.749,2.749,2.7477,2.6935,2.6718,2.6735,2.6701,2.6372,2.5933,2.5442,2.5862,2.676,2.6401,2.6636,2.728,2.7866,2.7759,2.74,0.0,0.0,0.0,0.0,0.0,0.0,0.0,0.0,0.0,0.0,0.0,2.0109,2.0047,1.9389,1.8918,1.8918,1.8918,1.933,2.0376,2.1599,2.3009,2.4631,2.5033,2.5395,2.5828,2.5831,2.5827,2.5924,2.5518,2.6267,2.8096,2.7222,2.7498,2.8568,2.6878,2.6211,2.625,2.4062,2.3344,2.375,2.3276,2.3208,2.3408,2.3169,2.3218,2.3398,2.33,2.3734,2.4606,2.6099,2.7098,2.7971,2.9378,0.0,0.0,0.0,3.0972,3.2191,3.3903,3.5405,3.6735,3.7766,3.8213,3.8466,3.8583,3.8769,3.8862,3.8569,3.8446,3.8292,3.8,3.7384,3.683,3.6538,3.6492,3.6492,3.6492,3.6492,0.0,0.0,0.0,0.0,0.0,0.0,0.0,0.0,3.243,3.1756,3.167,3.1209,3.0359,2.9087,2.8785,2.8349,2.7651,2.7363,2.7305,2.749,2.749,2.749,2.749,2.7361,2.717,2.6873,2.6575,2.6532,2.6671,2.613,2.6601,2.7632,2.7153,2.7395,2.801,2.8168,2.8134,2.801,0.0,0.0,0.0,0.0,0.0,0.0,0.0,0.0,0.0,0.0,0.0,2.113,2.1225,0.0,0.0,0.0,2.0135,2.0647,2.165,2.2195,2.3011,2.4192,2.4487,2.4782,2.5053,2.5021,2.5144,2.5375,2.48,2.5665,2.7833,2.746,2.8106,2.9499,2.7673,2.6682,2.6359,2.4414,2.3818,2.4072,2.3525,2.3198,2.3091,2.3091,2.3091,2.3091,2.3091,2.3406,2.4026,2.5511,2.6494,2.7371,2.8841,2.9615,0.0,0.0,0.0,3.2241,3.422,3.5327,3.619,3.7166,3.7533,3.7716,3.7915,0.0,3.8135,0.0,3.76,3.7246,3.7246,3.683,3.6492,3.6492,3.6492,3.6492,3.6492,3.6492,0.0,0.0,0.0,0.0,0.0,0.0,0.0,0.0,3.2878,3.2051,3.1799,3.1037,3.0069,2.8974,2.8561,2.8152,2.7683,2.7776,2.7886,2.7993,2.7993,2.7941,2.7842,2.8157,2.8013,2.7488,2.6902,2.6987,2.7442,2.6885,2.731,2.8233,2.7746,2.7881,2.8383,2.839,2.8382,2.8383,0.0,0.0,0.0,0.0,0.0,0.0,0.0,0.0,0.0,0.0,0.0,2.0738,2.0738,2.0426,2.005,1.9655,1.999,2.0647,2.165,2.2574,2.3271,2.3809,2.4043,0.0,2.4162,2.4589,2.4652,2.4265,2.443,2.564,2.7906,2.7603,2.8452,3.0112,2.8653,2.7538,2.6616,2.5467,2.5028,2.4979,2.4092,2.3506,2.3091,2.3091,2.3091,2.3091,2.3091,2.3406,2.3899,2.4429,2.5724,2.7192,2.7732,2.8778,2.9869,0.0,0.0,0.0,3.3044,3.3845,3.4766,3.6209,3.6673,3.6808,3.7018,0.0,3.7146,3.6691,3.6569,3.6538,3.6538,3.6507,3.6492,3.6492,3.6492,3.6492,3.6492,3.6492,0.0,0.0,0.0,0.0,0.0,0.0,0.0,0.0,3.3551,3.2736,3.1858,3.1164,3.0403,2.9567,2.8385,2.7695,2.7614,2.8177,2.8778,2.938,2.938,2.9142,2.8757,2.9393,2.9518,2.9129,2.8465,2.822,2.8206,2.78,2.7877,2.8266,2.7841,2.7701,2.7827,2.8383,2.8234,2.7841,0.0,0.0,0.0,0.0,0.0,0.0,0.0,0.0,0.0,0.0,0.0,0.0,0.0,2.2302,2.1994,2.1845,2.1966,2.2227,2.2555,2.2916,2.3169,2.3315,2.3721,2.3897,2.3897,2.4387,2.4533,2.4368,2.4454,2.521,2.662,2.6826,2.7263,2.7891,2.7602,2.7202,2.6656,2.4838,2.414,2.4199,2.3613,2.3237,2.3091,2.3091,2.3091,2.3135,2.3276,2.3537,2.394,2.484,2.6008,2.7238,2.7997,2.8959,2.983,3.0049,3.0574,3.1384,3.2666,3.3636,3.4553,3.5609,3.5949,3.6008,3.5775,3.6146,3.6442,3.5938,3.6184,3.6492,3.6492,3.6492,3.6492,3.6492,3.6492,3.6492,3.6492,3.6492,0.0,0.0,0.0,0.0,0.0,0.0,0.0,0.0,0.0,3.2881,3.2112,3.1261,3.0458,2.9741,2.8788,2.8277,2.8246,2.9275,2.9692,2.9504,2.9504,2.9473,2.9456,2.9766,2.9919,2.9844,2.93,2.9079,2.9034,2.8502,2.8365,2.8495,2.8324,2.8275,2.8302,2.8519,2.8451,2.8302,0.0,0.0,0.0,2.6514,0.0,2.544,2.4746,2.4268,2.3945,2.3809,0.0,0.0,0.0,0.0,2.3091,2.3091,2.2964,2.2945,2.3081,2.3188,2.3232,2.3232,2.3667,2.3927,2.3927,2.4325,2.4497,2.4497,2.4497,2.4995,2.593,2.6241,2.6542,2.6817,2.6727,2.6663,2.653,2.5115,2.4421,2.4191,2.3757,2.3447,2.3232,2.3232,2.3188,2.3144,2.3406,2.3624,2.3897,2.4619,2.5548,2.6615,2.7552,2.8602,2.9504,2.953,2.9873,3.0586,3.1889,3.3065,3.4109,3.4905,3.5362,3.5505,3.503,3.5368,3.5721,3.5431,3.5799,3.6215,3.6445,3.6492,3.6492,3.6492,3.6662,3.6723,3.6523,3.6492,0.0,0.0,0.0,0.0,0.0,0.0,0.0,0.0,0.0,0.0,3.2237,3.1399,3.0594,2.9807,2.9015,2.8809,2.921,2.9869,3.0192,3.0178,3.0178,3.0178,3.0208,3.0539,3.0644,3.063,3.03,2.9905,2.9442,2.8849,2.8587,2.8587,2.8587,2.8587,2.8587,2.8587,2.8587,2.8587,2.7699,2.7314,2.6904,2.6484,2.6045,2.5605,2.5156,2.4717,2.4287,2.3867,0.0,0.0,0.0,0.0,0.0,2.311,2.274,2.2715,2.3071,2.3363,2.3503,2.3503,2.3937,2.4206,2.4206,2.4411,2.4497,2.4497,2.4497,2.4985,2.5844,2.5844,2.6366,2.7206,2.6304,2.5986,2.616,2.634,2.5913,2.5032,2.4621,2.4101,2.3503,2.3503,2.3363,2.3144,2.3416,2.3667,2.378,2.3601,2.4302,2.5426,2.6297,2.7618,2.8775,0.0,0.0,0.0,0.0,0.0,0.0,3.4095,3.4905,3.5325,3.4827,3.4832,3.5033,3.5171,3.5339,3.5691,3.6368,3.6523,3.6523,3.6492,3.6983,3.7178,3.6569,3.6492,0.0,0.0,0.0,0.0,0.0,0.0,0.0,0.0,3.452,3.3846,3.2326,3.1564,3.0784,2.9822,2.903,2.922,3.0432,2.9906,3.0238,3.1466,3.1496,3.1351,3.1058,3.1726,3.184,3.1523,3.1508,3.0778,2.9518,2.8881,2.8619,2.8619,2.8619,2.8619,2.8619,2.8619,2.8619,2.8619,2.7197,2.7353,2.7344,2.6914,2.6494,2.6055,2.5615,2.5176,2.4727,0.0,0.0,0.0,2.3643,2.3613,2.3613,2.3613,2.3506,2.335,2.311,2.3363,2.3503,2.3503,2.3937,2.4206,2.4206,2.4411,2.4497,2.4497,2.4497,2.4621,2.4912,2.4912,2.5223,2.5782,2.5523,2.5437,2.5461,2.5033,2.4567,2.4149,2.4028,2.3864,2.3711,2.3711,2.3667,2.3624,2.3894,2.4024,2.4219,2.4904,2.5799,2.6754,2.7866,2.799,0.0,0.0,0.0,0.0,3.0303,0.0,0.0,0.0,0.0,0.0,3.4685,3.4754,3.4832,3.5033,3.5095,3.537,3.6151,3.6646,3.683,3.6554,3.6631,3.6693,3.6523,3.6492,0.0,0.0,0.0,0.0,0.0,0.0,0.0,0.0,3.4782,3.4075,3.3126,3.1796,3.0676,2.9822,2.9587,2.9372,2.9131,2.9961,3.0516,3.0791,3.1429,3.1712,3.171,3.2038,3.2163,3.2132,3.168,3.1291,3.0866,2.9704,2.9251,2.9219,2.8766,2.8881,2.9188,2.8766,2.8881,2.9251,2.7781,2.7972,2.7942,2.7685,2.7289,2.6854,2.6408,2.5867,2.5366,0.0,0.0,0.0,2.4082,2.4209,2.4248,2.4072,2.3977,2.3806,2.3551,2.369,2.3807,2.3807,2.411,2.4335,2.4335,2.4454,2.4497,2.4497,2.4497,2.47,2.5062,2.5062,2.5381,2.5979,2.5979,2.5979,2.5969,2.5593,2.4893,2.41,2.4509,2.438,2.4024,2.438,2.4209,0.0,0.0,0.0,2.485,2.5537,2.6648,0.0,0.0,0.0,0.0,0.0,0.0,0.0,0.0,0.0,0.0,3.2562,0.0,0.0,3.3331,3.3583,3.3777,3.3679,3.3925,3.4379,3.5125,3.5799,3.6137,3.5906,3.6167,3.6383,3.6492,3.6492,3.6492,0.0,0.0,0.0,0.0,3.6492,3.6215,3.5568,3.489,3.4073,3.3044,3.2038,3.1277,3.0828,3.0216,2.9803,2.9602,2.9867,3.0229,3.0717,3.1222,3.1667,3.2079,3.1873,3.1999,3.2367,3.1731,3.1481,3.1451,3.0659,3.0163,2.9889,2.9515,2.9608,2.9827,2.9202,2.939,2.9889,0.0,2.8709,2.8498,2.8548,2.8247,2.7824,2.7421,2.6733,2.6159,0.0,2.5147,2.4741,2.479,2.5055,2.5075,2.4692,2.4404,2.4197,2.4138,2.4179,2.4206,2.4206,2.4368,2.4497,2.4497,2.4497,2.4497,2.4497,2.4583,2.5062,2.5777,2.5902,2.6359,2.711,2.711,2.711,2.711,2.711,2.6216,2.4871,2.5621,2.5379,0.0,0.0,2.4999,2.4046,2.4272,2.4893,2.5568,2.5986,2.7105,0.0,0.0,0.0,0.0,0.0,2.7321,0.0,0.0,0.0,0.0,0.0,3.1557,0.0,3.1648,3.2094,3.2499,3.2138,3.2661,3.3379,3.4046,3.4683,3.5093,3.5124,3.5704,3.6242,3.6445,3.6492,3.6492,0.0,0.0,0.0,3.6507,3.6553,3.6322,3.5645,3.4936,3.3889,3.2475,3.2259,3.216,3.2084,3.083,3.0354,3.0767,2.9674,2.9674,3.0782,3.0946,3.1409,3.2069,3.1561,3.1689,3.2244,3.1643,3.1448,3.1489,3.1489,3.1145,3.0614,3.0524,3.0554,3.051,2.9858,3.0042,3.051,2.8035,2.8297,2.8599,2.8941,2.8649,2.8327,2.8236,2.7854,2.7492,2.7462,2.6961,2.6811,2.7172,2.6602,2.6192,2.6102,2.5418,2.4852,2.4446,2.4277,2.4206,2.4206,2.4368,2.4497,2.4497,2.4497,2.4497,2.4497,2.5179,2.5621,2.583,2.6524,2.6946,2.711,2.711,2.711,2.711,2.711,2.6905,2.6618,2.6782,2.6741,2.6535,2.673,2.6193,2.5411,2.5453,2.5579,2.5986,2.7476,2.7886,2.7758,0.0,0.0,0.0,2.6813,0.0,0.0,0.0,0.0,0.0,0.0,3.0664,0.0,3.2278,3.2563,3.2768,3.3638,3.4031,3.4449,3.5222,3.548,3.5634,3.5776,3.5946,3.6085,3.6242,3.6383,3.6492,0.0,0.0,0.0,3.6538,3.6984,3.703,3.6353,3.5198,3.3889,3.2475,3.2259,3.1946,3.1396,3.1109,3.0449,2.9401,2.9763,2.9763,2.9401,3.0598,3.1231,3.1396,3.1931,3.1955,3.1609,3.147,3.1405,3.142,3.142,3.1367,3.1233,3.0703,3.0822,3.1204,3.0539,3.0733,3.1306,2.8217,2.8584,2.8962,2.9186,2.9044,2.889,2.889,2.8594,2.832,2.8097,2.7925,2.7744,2.7582,2.7301,2.6979,2.6536,2.5987,2.5503,2.5012,2.4832,2.4605,2.4346,2.4464,2.4497,2.4497,2.4497,2.47,2.5137,2.5579,2.6276,2.7139,2.7597,2.8011,2.8462,2.8462,2.8462,2.8462,2.8462,2.8462,2.8422,2.7971,0.0,2.7151,2.7597,2.7232,2.64,2.5944,2.6069,2.673,2.8542,2.8934,0.0,2.8213,2.7921,2.7582,0.0,2.6713,2.6647,0.0,0.0,0.0,2.8824,0.0,0.0,0.0,3.111,3.1604,3.1429,3.2493,3.3492,3.3589,3.4424,3.5142,3.522,3.5315,3.5484,3.5897,3.647,3.6889,3.6999,0.0,0.0,3.7061,3.7292,3.7076,3.6061,3.5075,3.4043,3.2952,3.2527,3.2149,3.1796,3.1459,3.0941,3.0188,2.9945,2.9751,2.9715,3.044,3.0983,3.129,3.137,3.1397,3.1366,3.1043,3.0905,3.0936,3.1243,3.1236,3.097,3.1324,3.1637,3.1879,3.1233,3.1407,3.1908,2.8996,2.9313,2.9598,2.9693,2.9838,2.9901,2.9901,2.9728,2.9338,2.8763,2.8921,2.884,2.8112,2.8194,2.8041,2.7406,2.6627,2.6049,2.5854,2.5441,2.5024,2.4652,2.4793,2.4827,2.4743,2.4903,2.5348,2.6027,2.6235,2.7058,2.8502,2.8673,2.9131,2.9792,2.9792,2.9792,2.9792,2.9792,0.0,2.9753,0.0,2.8303,2.7689,2.8462,2.8171,2.7273,2.6565,2.6648,2.7395,2.917,2.9675,2.9386,2.8424,2.8109,0.0,0.0,0.0,0.0,0.0,0.0,0.0,0.0,0.0,2.8331,0.0,0.0,0.0,0.0,0.0,0.0,0.0,0.0,0.0,0.0,0.0,0.0,0.0,3.652,0.0,3.7244,0.0,0.0,3.7554,3.7615,3.7076,3.5629,3.5013,3.432,3.3444,3.2752,3.2398,3.2398,3.1859,3.1547,3.1409,3.0197,2.9848,3.0402,3.0402,3.0766,3.1366,3.0843,3.0828,3.1166,3.0643,3.0402,3.0432,3.0982,3.0966,3.0694,3.1782,3.2198,3.2158,3.1806,3.1992,3.2342,3.0565,3.061,3.0744,3.1196,3.1697,3.2063,3.2063,3.2003,3.1636,3.0639,3.0951,3.12,3.1091,3.0415,3.0057,3.0383,2.7657,2.6243,2.7055,2.5927,2.5168,2.5117,2.585,2.6065,2.5673,2.6412,2.6864,2.6935,2.781,2.8291,2.8502,2.9287,2.9714,2.9792,2.9792,2.9792,2.9792,2.9792,2.9792,0.0,2.9702,2.9585,0.0,2.9624,2.9131,2.8331,2.8211,2.7718,2.7395,0.0,2.93,2.8597,0.0,2.8109,2.7896,2.6889,0.0,0.0,0.0,0.0,0.0,0.0,2.7129,0.0,0.0,0.0,3.0419,3.1254,0.0,0.0,0.0,0.0,0.0,0.0,0.0,0.0,3.5576,3.6325,3.6652,3.6394,3.6946,0.0,0.0,3.8046,3.7584,3.566,3.5444,3.4799,3.3475,3.2752,3.2398,3.2398,3.2321,3.1982,3.1424,3.0674,3.0325,3.0402,3.0402,3.0766,3.1409,3.1332,3.0997,3.0509,3.0432,3.0402,3.0402,3.0479,3.0828,3.1289,3.1443,3.1516,3.1567,3.2112,3.2342,3.2398,3.0651,3.0663,3.0869,3.1039,3.1304,3.1556,3.1853,3.2151,3.235,3.22,3.2117,3.2061,3.211,3.1469,3.1179,3.1382,2.986,2.8894,2.9015,2.8198,2.7568,2.7281,2.7348,2.7271,2.7099,2.7094,2.7354,2.7931,2.8303,2.8752,2.9248,2.9624,2.9792,2.9792,2.9792,2.9792,2.9792,0.0,2.9792,0.0,0.0,0.0,0.0,2.9792,2.9248,2.8581,2.9079,2.8673,2.8091,0.0,2.9546,0.0,0.0,0.0,0.0,0.0,0.0,0.0,0.0,0.0,0.0,0.0,0.0,0.0,2.8073,0.0,2.9317,0.0,0.0,0.0,0.0,0.0,0.0,0.0,3.3331,0.0,0.0,0.0,3.5249,0.0,0.0,0.0,0.0,0.0,0.0,0.0,3.5152,3.4489,3.346,3.2752,3.2398,3.2398,3.2398,3.2259,3.1967,3.132,3.0982,3.0982,3.0982,3.092,3.0828,3.0828,3.0663,3.0402,3.0402,3.0402,3.0402,3.0402,3.0555,3.0828,3.0828,3.1059,3.1486,3.2136,3.2398,3.2398,3.1258,3.1241,3.1431,3.1431,3.1548,3.1772,3.2113,3.238,3.275,3.3122,3.2971,3.2926,3.3115,3.2672,3.2427,3.2603,3.1657,3.0917,3.0675,3.0065,2.9452,2.8806,2.8618,2.843,2.8139,2.7917,2.8171,2.887,2.887,2.917,2.9792,2.9792,2.9792,2.9792,2.9792,2.9792,2.9792,0.0,2.9792,2.9792,2.9792,2.9792,2.9792,2.9792,2.9417,2.8922,2.9585,2.9378,2.8937,2.941,2.9553,0.0,2.8235,0.0,0.0,0.0,0.0,0.0,2.6499,0.0,0.0,0.0,0.0,0.0,0.0,0.0,0.0,0.0,0.0,0.0,0.0,0.0,0.0,0.0,0.0,3.2673,0.0,0.0,0.0,0.0,0.0,0.0,0.0,0.0,0.0,0.0,0.0,3.4382,3.346,3.2936,3.2582,3.2398,3.2567,3.2582,3.2398,3.1747,3.1409,3.1409,3.1197,3.0874,3.0386,3.0202,3.0217,3.0386,3.0202,3.0325,3.0674,3.0479,3.0509,3.0663,3.0663,3.0966,3.1486,3.2136,3.2398,3.2428,3.3025,3.3007,3.3007,3.3007,3.3458,3.3809,3.3834,3.339,3.3061,3.3119,3.3622,3.4138,3.4643,3.433,3.421,3.4679,3.2488,3.1251,3.1652,3.0779,2.9821,2.8732,2.9508,2.9503,2.851,2.93,2.9714,2.9753,2.9753,2.9753,2.9792,2.9792,2.9792,2.9792,2.9792,2.9792,2.9792,2.9792,2.9792,2.9792,2.9792,2.9792,2.9792,0.0,2.9792,2.9753,2.9792,0.0,0.0,2.9113,2.8913,0.0,0.0,0.0,0.0,0.0,0.0,0.0,0.0,0.0,0.0,2.6499,0.0,0.0,0.0,0.0,2.7916,0.0,0.0,0.0,0.0,0.0,0.0,0.0,0.0,0.0,0.0,0.0,0.0,0.0,0.0,0.0,0.0,0.0,0.0,0.0,3.5738,0.0,3.3475,3.3383,3.3075,3.2413,3.3029,3.3059,3.2398,3.1747,3.1409,3.1393,3.0751,3.0417,3.0371,2.9725,2.9787,3.0356,2.971,3.0181,3.1332,3.0663,3.0797,3.1378,3.1378,3.1366,3.1486,3.2136,3.2398,3.249,3.3124,3.3124,3.3124,3.3124,3.3232,3.3483,3.3847,3.3769,3.4041,3.5164,3.4796,3.4957,3.6267,3.5598,3.5276,3.5821,3.4735,3.3903,3.3686,3.3048,0.0,3.1651,3.1526,3.1121,3.0431,3.0348,3.0156,2.9792,2.9792,2.9792,2.9792,2.9792,2.9869,3.0011,3.0011,3.0075,0.0,0.0,0.0,0.0,0.0,2.9934,2.9792,0.0,2.9792,2.9792,2.9792,2.9541,0.0,2.8963,2.865,2.826,2.7519,2.7281,2.7168,2.6663,2.6499,0.0,0.0,0.0,2.6499,2.6499,0.0,0.0,0.0,0.0,0.0,0.0,0.0,0.0,0.0,0.0,0.0,0.0,0.0,0.0,0.0,0.0,0.0,0.0,0.0,0.0,0.0,0.0,0.0,0.0,3.4402,0.0,3.2782,3.3167,3.309,3.2413,3.3044,3.3075,3.2398,3.2167,3.2044,3.2044,3.1382,3.0843,3.0371,2.9694,2.951,2.9725,2.9494,3.0166,3.1362,3.0689,3.1074,3.2013,3.1551,3.1659,3.2074,3.2305,3.2398,3.249,3.3162,3.3154,3.3197,3.3124,3.3124,3.3206,3.3558,3.3771,3.4361,3.5617,3.5328,3.5491,3.6747,3.6257,3.5981,0.0,3.6031,3.5516,3.4731,3.4399,0.0,3.2805,3.2215,3.1662,0.0,0.0,0.0,2.9792,2.9792,2.983,2.9895,2.9895,3.0011,3.0228,3.0228,3.0292,3.0406,3.0406,3.0406,0.0,0.0,3.0075,0.0,0.0,2.9869,2.9792,0.0,2.9415,2.8863,2.8662,2.8273,2.772,2.7168,2.7027,2.6952,2.66,2.6499,2.6499,2.6499,2.6499,0.0,2.6499,2.6499,0.0,2.719,0.0,2.7175,0.0,0.0,0.0,0.0,0.0,0.0,0.0,0.0,0.0,0.0,3.329,0.0,0.0,0.0,0.0,0.0,0.0,0.0,3.4136,3.381,3.3282,0.0,0.0,3.309,3.2413,3.3044,3.3075,3.2398,3.2398,3.2275,3.2028,3.1366,3.0689,3.0017,2.9341,2.9294,2.9725,2.9494,3.0304,3.169,3.1028,3.1413,3.2351,3.1905,3.2013,3.2398,3.2398,3.2552,3.2782,3.3224,3.3295,3.3406,3.3242,3.3136,3.3086,3.3111,3.3564,3.4073,3.4675,3.5169,3.5768,3.638,3.643,3.6405,3.6405,3.6405,3.594,3.4788,3.468,0.0,0.0,3.1725,3.1185,3.067,0.0,0.0,0.0,0.0,2.9934,3.0113,3.0113,3.0228,3.0406,3.0406,0.0,3.0444,3.0444,3.0406,3.0406,3.019,3.0228,3.0368,3.019,3.0011,2.983,2.983,2.9402,2.8762,2.8285,2.772,2.719,2.6663,2.6499,2.6499,2.6499,2.6499,2.6499,2.6499,2.6499,2.6499,2.6499,0.0,0.0,0.0,0.0,2.7394,0.0,0.0,0.0,0.0,0.0,0.0,0.0,0.0,0.0,0.0,0.0,0.0,0.0,0.0,0.0,0.0,0.0,3.5746,3.3849,3.3954,3.3551,0.0,0.0,3.3121,3.2413,3.3044,3.3075,3.2398,3.2398,3.2074,3.1455,3.0782,3.0094,2.9417,2.8765,2.9135,3.0263,2.9617,3.0474,3.2244,3.1597,3.1767,3.2398,3.2398,3.2398,3.2398,3.2398,3.2798,3.326,3.3628,3.3943,3.442,3.4798,3.3798,3.3026,3.3305,3.3439,3.3947,3.5152,3.5408,3.5859,3.6872,3.6656,3.6405,3.6405,3.6405,0.0,0.0,0.0,0.0,3.2905,3.2303,3.175,3.1198,3.0817,3.0428,3.0011,0.0,3.0254,3.033,3.033,3.0419,3.0609,3.0609,3.0723,3.0836,3.0836,3.0761,3.0622,3.0584,3.0495,3.0406,0.0,3.0292,3.0228,3.0075,2.929,2.8298,2.816,2.7469,2.6688,2.6537,2.6499,2.6499,2.6499,2.6499,2.6499,2.6499,2.6499,2.6499,2.6499,2.6499,2.6537,0.0,0.0,0.0,0.0,0.0,0.0,0.0,0.0,0.0,0.0,0.0,0.0,0.0,0.0,0.0,3.3422,0.0,0.0,0.0,3.499,3.4271,3.3743,3.2985,3.246,0.0,0.0,0.0,3.2428,3.3044,3.3075,3.2398,3.2398,3.2305,3.2136,3.1459,3.0797,3.0125,2.9433,2.9048,2.8904,2.8735,2.9535,3.0894,3.0725,3.1351,3.2398,3.2398,3.2398,3.2398,3.2398,3.2505,3.269,3.4118,3.4452,3.4783,3.4977,3.4202,3.3714,3.4224,3.3875,3.386,3.4855,3.5267,0.0,3.6231,3.6539,3.6687,3.6687,3.6519,0.0,3.5046,0.0,0.0,3.3394,3.2583,3.2013,3.1696,3.1029,0.0,3.0228,0.0,3.0444,3.0533,3.0533,3.0647,3.0849,0.0,3.0874,3.0986,3.0986,3.0911,3.0811,3.0736,3.0685,0.0,3.0558,3.0533,3.0533,3.0381,2.9502,2.8364,2.8243,2.7546,2.6705,2.6624,2.6589,2.6589,2.6589,2.6555,2.6499,2.6499,2.6499,2.6499,2.6499,2.6499,2.6562,2.6801,2.6851,2.6939,0.0,0.0,2.7682,0.0,0.0,0.0,0.0,0.0,0.0,0.0,0.0,0.0,0.0,3.3518,0.0,0.0,3.3815,3.2976,3.3562,3.3065,3.2817,0.0,0.0,0.0,3.2875,3.3198,3.3075,3.2398,3.269,3.269,3.2382,3.1428,3.092,3.0812,2.9833,2.952,2.9704,2.9704,3.0304,3.1263,3.1263,3.172,3.2398,3.2398,3.2398,3.2398,3.2398,3.2398,3.2444,3.4812,3.496,3.499,3.4773,3.4672,3.4884,3.5703,3.4773,0.0,3.4501,0.0,3.5571,3.5359,3.6394,3.7083,3.7006,0.0,3.6006,3.5321,3.4866,3.4328,3.3738,3.2675,3.2085,3.2085,3.0997,3.0444,0.0,3.0482,3.0558,3.0736,3.0736,3.0849,0.0,0.0,0.0,0.0,3.0986,3.0986,3.0986,3.0911,3.0949,3.0986,3.0911,3.0798,3.0723,3.0645,2.9785,2.8654,2.8497,2.7793,2.6977,2.6794,2.676,2.676,2.676,2.6658,2.6568,2.6568,2.6568,2.6568,2.6521,2.6568,2.6694,2.7102,2.7216,2.7216,2.7216,2.7557,2.7656,0.0,0.0,0.0,0.0,0.0,0.0,0.0,0.0,0.0,0.0,0.0,0.0,0.0,0.0,3.2273,3.3529,3.3652,0.0,0.0,0.0,0.0,3.329,3.3275,3.3029,3.2536,0.0,3.3013,3.2505,3.1274,3.092,3.1378,3.0197,3.0197,3.1136,3.1228,3.1597,3.2136,3.2228,3.2321,3.2398,3.2398,3.2398,3.2398,3.2398,3.2398,3.2398,3.5882,3.5878,3.604,3.6475,3.6136,3.617,3.7326,3.6295,3.5574,3.5904,3.6468,3.6767,3.6734,3.6946,3.6929,3.6455,3.6327,0.0,0.0,0.0,0.0,3.3738,3.2675,3.2085,3.2085,3.1164,3.066,3.066,3.0798,3.0911,3.0949,3.0949,3.0986,0.0,0.0,0.0,3.0986,3.0986,0.0,3.1061,3.164,3.1492,3.1048,3.164,3.1468,3.0884,3.0377,2.9559,2.869,2.8654,2.7911,2.6977,2.6943,2.6956,2.6956,2.6956,2.6943,2.6909,2.6909,2.6909,2.6875,2.6692,2.6794,2.6867,2.6681,2.6741,2.6763,2.6672,2.6713,2.6898,2.7316,0.0,0.0,0.0,0.0,0.0,0.0,0.0,0.0,0.0,0.0,3.301,0.0,0.0,0.0,0.0,0.0,0.0,0.0,0.0,0.0,0.0,3.2567,0.0,0.0,0.0,3.2798,3.3213,3.2428,3.1813,3.1393,3.1151,3.0566,2.9797,3.0351,3.0632,3.0786,3.1351,3.189,3.2398,3.2398,3.2398,3.2398,3.2398,3.2398,3.2398,3.764,3.7517,3.7612,3.7912,3.7721,0.0,0.0,3.8515,3.7739,3.6224,3.6373,3.6541,3.6464,3.6813,3.6936,3.6709,3.6139,3.5525,3.4982,3.4658,3.436,3.4076,3.2989,3.2433,3.2433,3.1396,3.0836,3.0836,3.0949,3.0986,3.0986,3.0986,3.0986,3.1024,0.0,3.1566,0.0,0.0,0.0,3.2173,3.2519,3.2448,3.2173,3.2555,3.2448,3.2055,3.1436,3.0721,2.9925,2.879,2.7898,2.7235,2.718,2.7146,2.7146,2.7146,2.7079,2.699,2.699,2.699,2.699,2.6875,2.6943,2.6943,2.6807,2.6807,2.6841,2.6773,2.6773,2.6938,2.7602,2.8412,0.0,0.0,0.0,0.0,0.0,0.0,0.0,0.0,0.0,0.0,0.0,0.0,0.0,0.0,0.0,3.3878,0.0,0.0,0.0,0.0,0.0,0.0,0.0,0.0,0.0,3.2875,3.2198,3.189,3.1905,3.1551,3.1228,3.0982,3.1305,3.1443,3.1474,3.1782,3.2105,3.2398,3.2398,3.2398,3.2398,3.2398,3.2398,3.2444,3.9168,3.9041,3.9,3.9041,3.9041,3.9197,3.9788,4.028,3.9683,3.7126,3.6976,3.702,3.6845,3.725,3.7497,3.7378,3.6409,3.5759,3.5626,3.4903,3.449,3.449,3.3237,3.2515,3.2515,3.1509,3.0986,3.0986,3.0986,3.0986,3.0986,3.0986,0.0,0.0,0.0,0.0,0.0,0.0,3.3178,3.3213,3.3353,3.3353,3.3213,3.3353,3.3353,3.3108,3.2456,3.1957,3.1319,2.9449,2.8424,2.7894,2.7809,2.7676,2.7556,2.7556,2.7436,2.7302,2.7146,2.7214,2.7268,2.7113,2.7079,2.7079,2.7024,2.7024,2.7045,2.7024,2.7024,2.7212,2.7716,2.839,0.0,0.0,0.0,0.0,0.0,0.0,0.0,0.0,0.0,0.0,3.4264,0.0,0.0,0.0,0.0,3.4344,3.3985,3.444,3.4288,0.0,0.0,3.3185,3.2773,0.0,3.2998,3.2598,3.1921,3.1874,3.2382,3.1844,3.1813,3.2198,3.2336,3.2398,3.2398,3.2398,3.2398,3.2398,3.2398,3.2398,3.2398,3.2398,3.2398,3.2505,3.976,3.9633,3.9633,0.0,0.0,3.9802,4.0407,4.0561,4.0476,4.0178,4.0164,4.0164,4.0164,3.9689,3.9159,3.8657,3.8,3.7318,3.6786,3.5497,3.475,3.475,3.2907,3.1876,3.1876,3.13,3.0986,0.0,3.0986,3.0986,0.0,3.0986,0.0,0.0,0.0,0.0,0.0,3.3178,3.3178,3.3262,3.3939,3.3802,3.3283,3.3939,3.3768,3.3143,3.2593,3.234,3.2199,3.1447,3.0341,2.9317,2.9286,2.8871,2.8384,2.8384,2.8384,2.8222,2.7623,2.7908,2.8189,2.7469,2.7369,2.7369,2.7079,2.7146,2.7214,2.7045,2.7146,2.7369,2.7751,2.8204,2.8851,0.0,0.0,0.0,0.0,0.0,0.0,0.0,0.0,0.0,0.0,3.4696,0.0,0.0,3.4174,3.4344,3.3925,3.4016,3.3816,3.3244,0.0,3.3589,3.4039,3.3018,3.2767,3.3306,3.2628,3.2336,3.2398,3.2321,3.1997,3.1547,3.2136,3.2398,3.2398,3.2398,3.2398,3.2398,3.2398,3.2398,3.2398,3.2398,3.2398,3.2582,0.0,0.0,0.0,0.0,0.0,0.0,0.0,4.2222,4.2091,4.1737,4.0683,3.9999,3.9999,3.9129,3.8441,3.8229,3.7639,3.7161,3.6908,3.6011,3.5446,3.5446,3.3984,3.3168,3.3168,3.2618,3.2318,0.0,0.0,0.0,0.0,0.0,0.0,0.0,0.0,3.3581,3.3905,3.439,3.4572,3.4606,3.492,3.4839,3.4606,3.492,3.4854,3.4485,3.386,3.3659,3.3557,3.2928,3.1533,3.0084,3.0084,2.9656,2.9111,2.9111,2.9111,2.9048,2.8762,2.8889,2.9016,2.8698,2.8666,2.8666,2.8551,2.8551,2.8487,2.7993,2.7973,2.8298,2.9246,2.986,3.0261,0.0,0.0,0.0,0.0,0.0,0.0,0.0,0.0,0.0,0.0,0.0,0.0,0.0,0.0,3.4716,3.3834,3.3894,0.0,3.3796,0.0,3.3108,3.3712,3.2847,3.2521,3.2798,3.2521,3.2398,3.2398,3.2398,3.2244,3.2013,3.2275,3.2398,3.2398,3.2398,3.2398,3.2398,3.2398,3.2398,3.2398,3.2398,3.2398,3.2475,4.329,0.0,4.2791,0.0,4.2955,4.2806,4.3215,4.329,4.309,4.2485,4.1058,4.0108,4.0108,3.9204,3.856,3.856,3.7787,3.7424,3.7625,3.6418,3.5801,3.5999,3.4629,0.0,3.3838,3.3403,3.3178,3.3178,3.3178,0.0,0.0,0.0,0.0,0.0,3.4075,3.4428,3.4677,3.5246,3.5504,3.5504,3.5504,3.5504,3.5504,3.5504,3.5504,3.5444,3.4951,3.4771,3.4711,3.4247,3.2866,3.1355,3.1168,3.064,3.0054,2.9839,2.9797,2.9766,2.9535,2.9628,2.9766,2.9535,2.9504,2.9504,2.9504,2.9504,2.9362,2.8903,2.8776,2.9146,3.0287,3.0991,3.1417,3.1397,0.0,0.0,0.0,0.0,0.0,0.0,3.2123,3.2392,3.2497,3.3275,0.0,0.0,0.0,3.4613,3.3789,0.0,0.0,0.0,0.0,0.0,3.3341,3.2708,3.2398,3.2398,3.2398,3.2398,3.2398,3.2398,3.2398,3.2398,3.2398,3.2398,3.2398,3.2398,3.2398,3.2398,3.2398,3.2398,3.2398,3.2398,3.2398,3.2428,4.329,4.329,4.329,4.329,4.329,4.329,4.329,4.329,4.309,4.2485,4.1788,4.1384,4.1384,4.0763,4.036,4.036,3.9134,3.8656,3.9343,3.6799,3.561,0.0,0.0,3.3192,3.3192,3.3178,3.3178,3.3178,0.0,0.0,3.3178,0.0,3.3596,3.4279,3.4312,3.4725,3.5504,3.5504,3.5504,3.5504,3.5504,3.5504,3.5504,3.5504,3.5504,3.5504,3.5489,3.5489,3.5489,3.5489,3.4592,3.3334,3.2676,3.2017,3.1337,3.0668,3.0494,3.0329,2.9659,2.9981,3.0329,2.9659,2.9504,2.9504,2.9504,2.9504,2.9504,2.9473,2.9473,2.9701,3.0369,3.1048,3.1934,3.3245,0.0,0.0,0.0,0.0,0.0,0.0,3.3649,3.3933,3.2647,3.3694,0.0,0.0,0.0,0.0,0.0,0.0,0.0,3.323,3.3328,0.0,3.3184,3.2652,3.2398,3.2398,3.2398,3.2398,3.2398,3.2398,3.2398,3.2398,3.2398,3.2398,3.2398,3.2398,3.2398,3.2398,3.2398,3.2398,3.2398,3.2398,3.2398,3.249,4.329,4.329,4.329,4.329,4.329,4.329,4.329,4.329,4.294,4.1871,4.1504,4.104,4.0142,3.9858,3.9723,0.0,3.8916,3.8676,0.0,3.7332,3.6393,3.7015,3.5564,3.4754,3.4754,3.4754,3.4754,3.4754,0.0,0.0,0.0,3.4754,3.4887,3.5133,3.5133,3.5246,3.5504,3.5504,3.5504,3.5504,3.5504,3.5504,3.5504,3.5504,3.5504,3.5504,3.5504,3.5504,3.5504,3.5504,3.4906,3.4038,3.338,3.2407,3.1457,3.1249,3.119,3.1161,3.0925,3.1029,3.1117,3.0925,3.0866,3.0866,3.0866,3.0524,3.0299,3.0777,3.0494,3.0691,3.2244,3.2712,3.3162,3.4038,3.3988,0.0,0.0,0.0,0.0,0.0,3.2183,3.2273,3.1854,3.2632,0.0,0.0,0.0,0.0,0.0,0.0,0.0,0.0,3.3359,0.0,3.4079,3.2967,3.2398,3.2398,3.2398,3.2628,3.3075,3.3075,3.3075,3.3075,3.3075,3.2813,3.2398,3.2398,3.2398,3.2444,3.2906,3.3075,3.3136,3.3658,3.3842,3.3873,4.329,4.329,4.329,4.329,4.329,4.32,4.3015,4.297,4.2506,4.119,4.101,4.0606,3.9508,3.9388,0.0,3.9388,3.8796,3.8676,3.9379,3.7584,3.6761,3.7375,3.6193,3.5504,3.5504,3.5504,0.0,3.5504,3.5504,3.5504,3.5504,3.5504,3.5504,3.5504,3.5504,3.5504,3.5504,3.5504,3.5504,3.5504,3.5504,3.5504,3.5504,3.5504,3.5504,3.5504,3.5504,3.5504,3.5504,3.5504,3.504,3.4444,3.3993,3.3125,3.2138,3.1645,3.1511,3.1511,3.1511,3.1511,3.1511,3.1511,3.1511,3.1511,3.1511,3.119,3.0999,3.1409,3.1383,3.1707,3.3229,3.3694,3.4114,3.4756,3.4442,3.3829,3.2991,0.0,0.0,0.0,0.0,0.0,0.0,3.2647,3.3006,0.0,0.0,0.0,0.0,0.0,0.0,3.4512,3.3648,0.0,3.4089,3.3213,3.2644,3.2398,3.2659,3.2998,3.3413,3.369,3.3798,3.3798,3.3521,3.3167,3.2752,3.249,3.2552,3.2813,3.3244,3.3567,3.386,3.4335,3.4505,3.4505,4.329,4.329,4.329,0.0,4.329,0.0,4.256,4.2425,4.1946,4.0636,4.0427,4.0142,3.9448,3.9388,3.9388,3.9388,0.0,0.0,0.0,3.7629,3.6806,3.7389,3.6222,3.5549,3.5504,3.5504,3.5504,3.5504,3.5504,3.5504,3.5504,3.5504,3.5504,3.5504,3.5504,3.5504,3.5504,3.5504,3.5504,3.5504,3.5504,3.5504,3.5504,3.5504,3.5504,3.5504,3.5504,3.5504,3.5504,3.5504,3.504,3.4503,3.4503,3.4054,3.3245,3.2004,3.1615,3.157,3.157,3.154,3.1511,3.1511,3.1511,3.1511,3.1511,3.1511,3.1511,3.1511,3.2034,3.2706,3.338,3.4038,3.4728,3.5385,3.4457,3.3604,3.3499,0.0,0.0,0.0,0.0,0.0,0.0,3.3485,3.3337,0.0,0.0,0.0,0.0,0.0,3.4576,3.3583,3.4181,3.4197,3.3552,3.346,3.3059,3.2398,3.3075,3.3429,3.3506,3.4243,3.4582,3.4536,3.3829,3.3521,3.3429,3.2798,3.2906,3.3475,3.3537,3.3967,3.4582,3.4628,3.4643,3.4643,0.0,0.0,4.329,4.329,4.329,4.3245,4.3135,4.2686,4.2111,4.125,4.0711,4.0142,3.9448,3.9388,3.9388,3.9388,3.8796,3.8676,3.9379,3.8018,3.7255,3.7404,3.6671,3.6013,3.5519,3.5504,3.5504,3.5504,3.5504,3.5504,3.5504,3.5504,3.5504,3.5504,3.5504,3.5504,3.5504,3.5504,3.5504,3.5504,3.5504,3.5504,3.5504,3.5504,3.5504,3.5504,3.5504,3.5504,3.5504,3.5504,3.504,3.4503,3.4503,3.4054,3.344,3.3125,3.2677,3.2243,3.2243,3.1884,3.1511,3.1511,3.1511,3.1511,3.1511,3.1511,3.1511,3.1511,3.2034,3.2706,3.338,3.4038,3.4728,3.5385,3.5235,3.4666,3.3634,3.323,0.0,0.0,3.2647,3.2946,3.344,3.3111,3.3081,0.0,0.0,0.0,0.0,3.4759,3.5095,3.4999,3.469,3.4674,3.4983,3.3937,3.3059,3.2398,3.3075,3.369,3.4274,3.4967,3.5275,3.526,3.506,3.4691,3.4243,3.4073,3.4104,3.4305,3.4783,3.5121,3.5337,3.583,3.6014,3.6014,4.329,4.329,4.329,4.329,4.329,4.32,4.294,4.2327,4.1707,4.101,4.0367,3.9813,3.9454,3.9388,3.9388,3.9388,3.908,3.902,3.9394,3.8437,3.7853,3.7853,3.6985,3.6312,3.5968,3.5669,3.5504,3.5504,3.5504,3.5504,3.5504,3.5504,3.5504,3.5504,3.5504,3.5504,3.5504,3.5504,3.5504,3.5504,3.5504,3.5504,3.5504,3.5504,3.5504,3.5504,3.5504,3.5504,3.5504,3.5504,3.525,3.4951,3.4951,3.4696,3.4412,3.4412,3.3724,3.2961,3.2961,3.2706,3.2333,3.2034,3.1735,3.1511,3.1511,3.1511,3.1585,3.1884,3.2497,3.3155,3.3829,3.4502,3.507,3.5444,3.4996,3.4337,3.3604,3.3306,0.0,3.2691,3.3171,3.3697,3.415,3.3578,3.3381,3.3894,3.3406,0.0,3.4296,3.4971,3.537,3.5506,3.543,3.5444,3.5506,3.4429,3.3537,3.2875,3.3875,3.4552,3.4982,3.566,3.5953,3.5922,3.5614,3.5306,3.4936,3.4628,3.469,3.4998,3.5367,3.5706,3.5984,3.6353,3.6492,3.6492,4.329,4.329,4.329,4.329,4.329,4.315,4.262,4.1991,4.1294,4.0636,3.9978,3.9493,3.9388,3.9388,3.9388,3.9388,3.9388,3.9388,3.9388,3.8871,3.8497,3.8392,3.7345,3.6731,3.6626,3.5983,3.5654,3.5654,3.5549,3.5504,3.5504,3.5504,3.5504,3.5504,3.5504,3.5504,3.5504,3.5504,3.5504,3.5504,3.5504,3.5504,3.5504,3.5504,3.5504,3.5504,3.5504,3.5504,3.5504,3.5504,3.5504,3.5504,3.5504,3.5504,3.5504,3.5504,3.4696,3.3784,3.3679,3.3499,3.3215,3.2647,3.1989,3.1511,3.1511,3.1511,3.169,3.2348,3.3036,3.3694,3.4384,3.504,3.5504,3.5504,3.4547,3.3724,3.3545,0.0,3.3065,3.3004,3.4046,3.4847,3.5108,3.4319,3.3894,3.4163,3.3504,3.3453,3.4305,3.5071,3.5472,3.5472,3.6137,3.6168,3.5521,3.4844,3.4197,3.3583,3.4797,3.5414,3.5537,3.6184,3.6492,3.6461,3.5891,3.566,3.5629,3.5044,3.5152,3.566,3.566,3.5984,3.6492,3.6492,3.6492,3.6492,4.329,4.329,4.329,4.329,4.329,4.326,4.3155,4.2626,4.2006,4.1309,4.0651,4.0038,3.9448,3.9388,3.9388,3.9388,3.9388,3.9388,3.9388,3.932,3.899,3.8407,3.8197,3.7838,3.7285,3.6656,3.6327,3.6327,3.5774,3.5504,3.5504,3.5504,3.5504,3.5504,3.5504,3.5504,3.5504,3.5504,3.5504,3.5504,3.5504,3.5504,3.5504,3.5504,3.5504,3.5504,3.5504,3.5504,3.5504,3.5504,3.5504,3.5504,3.5504,3.5504,3.5504,3.5504,3.5355,3.507,3.4518,3.3514,3.2647,3.2542,3.1989,3.1511,3.1511,3.1511,3.169,3.2348,3.3036,3.3694,3.4384,3.504,3.5504,3.5504,3.5325,3.4818,3.3818,0.0,3.4257,3.3864,3.4486,3.5199,3.5792,3.4821,3.4134,3.4193,3.3161,3.2816,3.3537,3.476,3.5392,3.532,3.6087,3.6168,3.5521,3.4844,3.4443,3.4335,3.4551,3.4951,3.5537,3.6184,3.6492,3.6492,3.6384,3.6338,3.6322,3.6215,3.6245,3.6338,3.6338,3.6399,3.6492,3.6492,3.6492,3.6492,4.329,4.329,4.329,4.329,4.329,4.329,4.329,4.2476,4.1767,4.1452,4.0502,3.9753,3.9418,3.9388,3.9388,3.9388,3.9388,3.9388,3.9388,3.9388,3.9239,3.896,3.8586,3.8078,3.7419,3.6806,3.6492,3.6492,3.5833,3.5504,3.5504,3.5504,3.5504,3.5504,3.5504,3.5504,3.5504,3.5504,3.5504,3.5504,3.5504,3.5504,3.5504,3.5504,3.5504,3.5504,3.5504,3.5504,3.5504,3.5504,3.5504,3.5504,3.5504,3.5504,3.5504,3.5504,3.5504,3.5429,3.5115,3.4053,3.3036,3.3036,3.2243,3.16,3.1959,3.2034,3.2347,3.3472,3.3922,3.4359,3.5162,3.5554,3.5765,3.5765,3.5478,0.0,0.0,3.4728,3.4896,3.4668,3.5538,3.6306,3.6723,3.5838,3.5278,3.5381,3.4532,3.4323,3.4982,3.592,3.6561,3.6918,3.6227,3.5728,3.5506,3.5198,3.5044,3.5044,3.5414,3.5752,3.6045,3.6353,3.6492,3.6492,3.6492,3.6492,3.6492,3.6492,3.6492,3.6492,3.6492,3.6492,3.6492,3.6492,3.6492,3.6492,4.329,4.329,4.329,4.329,4.329,4.329,4.329,4.2357,4.1587,4.1399,4.0367,3.9553,3.9439,3.9388,3.9388,3.9388,3.9388,3.9388,3.9388,3.9445,3.9445,3.9388,3.8951,3.8497,3.8022,3.7391,3.706,3.706,3.64,3.6052,3.6019,3.6019,3.5986,3.5953,3.5804,3.5761,3.5779,3.5614,3.5554,3.5554,3.5554,3.5522,3.5504,3.5504,3.5504,3.5504,3.5504,3.5504,3.5504,3.5504,3.5504,3.5504,3.5504,3.5504,3.5504,3.5504,3.5504,3.5504,3.5504,3.4637,3.3724,3.3724,3.2841,3.2123,3.2661,3.2811,3.3171,3.4498,3.477,3.5013,3.5852,3.6005,3.6005,3.6005,0.0,0.0,0.0,3.5278,3.5431,3.5491,3.6484,3.7296,3.7578,3.6854,3.6441,3.6587,3.6007,3.5832,3.6345,3.709,3.784,3.8486,3.6882,3.5972,3.5933,3.5794,3.5734,3.5752,3.6091,3.6338,3.6492,3.6492,3.6492,3.6492,3.6492,3.6492,3.6492,3.6492,3.6492,3.6492,3.6492,3.6492,3.6492,3.6492,3.6492,3.6492,4.329,4.329,4.329,4.329,4.329,4.329,4.329,4.2746,4.2111,4.1459,4.0771,4.0098,3.9484,3.9388,3.9388,3.9388,3.9388,3.9388,3.9388,3.9589,3.9589,3.9424,3.9544,3.9677,3.9824,3.9176,3.8812,3.8812,3.8144,3.7725,3.7538,3.7538,3.7455,3.724,3.6671,3.6502,3.6574,3.5942,3.5688,3.5688,3.5688,3.5621,3.5504,3.5504,3.5504,3.5504,3.5504,3.5504,3.5504,3.5504,3.5504,3.5504,3.5504,3.5504,3.5504,3.5504,3.5504,3.5504,3.5504,3.4966,3.4444,3.4444,3.3873,3.3426,3.3653,3.3683,3.3955,3.4804,3.4971,3.5184,3.5883,3.6005,3.6005,3.6005,0.0,0.0,3.5263,3.5737,3.6168,3.6308,3.6961,3.7592,3.8181,3.7619,3.7226,3.7226,3.6605,3.6243,3.6291,3.7472,3.8444,3.9119,3.8448,3.7825,3.7279,3.6632,3.6354,3.6415,3.583,3.5891,3.6492,3.6492,3.6492,3.6492,3.6492,3.6492,3.6492,3.6492,3.6492,3.6492,3.6492,3.6492,3.6492,3.6492,3.6492,3.6492,4.329,4.329,4.329,4.329,4.329,4.329,4.329,4.2776,4.2171,4.1512,4.0816,4.0142,3.9448,3.9388,3.9388,3.9388,3.9517,3.9589,3.9589,3.9768,3.9854,3.9783,3.9854,3.9925,4.0011,3.9347,3.8998,3.8998,3.8329,3.7962,3.791,3.791,3.7861,3.7745,3.7537,3.7464,3.7452,3.6804,3.6516,3.6438,3.5918,3.5671,3.5621,3.5522,3.5554,3.5621,3.5621,3.5621,3.5621,3.5621,3.5621,3.5621,3.5537,3.5554,3.5621,3.5621,3.5621,3.5653,3.5765,3.5172,3.4503,3.4503,3.3978,3.3666,3.4225,3.4346,3.462,3.5536,3.5735,3.5843,3.6243,3.6304,3.6304,3.6304,0.0,3.6244,3.603,3.6229,3.6554,3.6965,3.7578,3.8181,3.8794,3.8646,3.8481,3.8481,3.8245,3.8097,3.8097,3.8904,3.9488,3.9747,3.9549,3.8957,3.7953,3.6908,3.6621,3.7043,3.643,3.6245,3.6492,3.6492,3.6492,3.6492,3.6492,3.6492,3.6492,3.6492,3.6492,3.6492,3.6492,3.6492,3.6492,3.6492,3.6492,3.6492,4.3423,4.3384,4.329,4.329,4.329,4.329,4.329,4.2815,4.2209,4.1512,4.0928,4.0304,3.9556,3.9568,3.9604,3.9604,3.9696,3.9803,3.9803,3.9996,4.0101,4.0101,4.0101,4.0101,4.0172,3.9699,3.9474,3.9474,3.9017,3.8769,3.8735,3.8735,3.8701,3.8633,3.8405,3.8348,3.8321,3.7666,3.7392,3.7332,3.6503,3.6101,3.5974,3.5744,3.5653,3.572,3.5752,3.5799,3.5784,3.572,3.5752,3.5767,3.5604,3.5686,3.5799,3.5799,3.5799,3.5831,3.5973,3.5513,3.4976,3.4976,3.4568,3.4374,3.5029,3.5166,3.5396,3.615,3.6274,3.6352,3.646,3.6492,3.6554,3.6754,3.6631,3.6585,3.6754,3.6785,3.7013,3.7608,3.821,3.8821,3.9418,3.947,3.947,3.947,3.947,3.947,3.947,3.9893,4.0096,4.0096,4.0096,3.9705,3.8876,3.7825,3.7333,3.7387,3.6983,3.6693,3.6492,3.6492,3.6492,3.6492,3.6492,3.6492,3.6492,3.6492,3.6492,3.6492,3.6492,3.6492,3.6492,3.6492,3.6492,3.6492,4.369,4.3503,4.329,4.329,4.329,4.329,4.329,4.2962,4.2393,4.1512,4.1202,4.0682,3.9807,3.9889,4.0011,4.0011,4.0011,4.0011,3.9996,4.0172,4.0312,4.0312,4.0312,4.0366,4.0489,4.0489,4.0489,4.0489,4.0489,4.0436,4.0312,4.0312,4.0207,3.9965,3.9317,3.9101,3.9176,3.8583,3.8308,3.8246,3.7495,3.701,3.664,3.6184,3.5863,3.572,3.5941,3.6005,3.5973,3.5752,3.5831,3.5973,3.5752,3.5831,3.6005,3.6005,3.6005,3.6005,3.6005,3.6005,3.6005,3.6005,3.5863,3.5784,3.6133,3.6196,3.6274,3.646,3.6492,3.6492,3.6492,3.6492,3.6693,3.7298,3.6892,3.6723,3.7328,3.7417,3.7637,3.8238,3.8838,3.9444,4.0045,4.0096,4.0096,4.0096,4.0096,4.0096,4.0096,4.0096,4.0096,4.0096,4.0096,4.0096,4.0096,3.9497,3.859,3.7417,3.7417,3.7104,3.6523,3.6523,3.6492,3.6492,3.6492,3.6492,3.6492,3.6492,3.6492,3.6492,3.6492,3.6492,3.6492,3.6492,3.6492,3.6492,4.3729,4.3754,4.3754,4.3596,4.3714,4.3778,4.3778,4.3689,4.3341,4.2622,4.244,4.1969,4.0743,4.0673,4.0512,4.0041,4.0137,4.0242,4.0331,4.0401,4.0436,4.0436,4.0436,4.047,4.0489,4.0489,4.0489,4.0489,4.0489,4.0489,4.0436,4.0436,4.0401,4.0351,4.0136,4.0079,4.0067,3.9407,3.9149,3.9023,3.7711,3.714,3.6966,3.628,3.6022,3.607,3.6116,3.6148,3.6148,3.607,3.6085,3.6148,3.607,3.6022,3.6037,3.6116,3.6148,3.6179,3.632,3.6258,3.6116,3.6037,3.5941,3.5958,3.6148,3.6196,3.6274,3.646,3.6492,3.6492,3.6492,3.6846,3.7178,3.7387,3.7592,3.7838,3.801,3.8039,3.8266,3.8865,3.9082,3.9444,4.0045,4.0096,4.0096,4.0096,4.0096,4.0096,4.0096,4.0096,4.0096,4.0096,4.0096,4.0096,4.0096,3.9497,3.9001,3.8673,3.8238,3.7709,3.7118,3.7118,3.6892,3.6492,3.6492,3.6492,3.6492,3.6492,3.6492,3.6492,3.6492,3.6492,3.6492,3.6492,3.6492,3.6492,4.3949,4.3988,4.3949,4.3832,4.391,4.3988,4.3988,4.4065,4.386,4.3115,4.3137,4.2801,4.1645,4.1589,4.1458,4.1046,4.1158,4.1019,4.0536,4.0751,4.0782,4.0505,4.0489,4.0489,4.0489,4.0489,4.0489,4.0489,4.0489,4.0489,4.0489,4.0489,4.0489,4.0489,4.0489,4.0489,4.0459,4.0059,3.989,3.9782,3.8591,3.808,3.7923,3.6958,3.6792,3.6977,3.6504,3.6489,3.6673,3.6334,3.6196,3.6211,3.6274,3.6258,3.6195,3.6289,3.6305,3.6352,3.646,3.6414,3.632,3.6226,3.6132,3.6116,3.6274,3.6507,3.6723,3.6831,3.7058,3.7222,3.7222,3.7504,3.7825,3.8084,3.821,3.8362,3.8629,3.8657,3.8794,3.9152,3.9418,3.9696,4.0045,4.0096,4.0096,4.0096,4.0096,4.0096,4.0096,4.0096,4.0096,4.0096,4.0096,4.0096,4.0096,3.9747,3.9444,3.9206,3.8821,3.8351,3.7738,3.7519,3.7208,3.6831,3.66,3.6492,3.6492,3.6492,3.6492,3.6492,3.6492,3.6492,3.6492,3.6492,3.6492,3.6492,4.4281,4.4181,4.4065,4.4026,4.405,4.4065,4.4065,4.4205,4.4029,4.3229,4.3477,4.3365,4.2521,4.2569,4.2679,4.2617,4.2602,4.2078,4.0766,4.1324,4.1401,4.0705,4.0674,4.0659,4.0597,4.052,4.0489,4.0489,4.0489,4.0489,4.0489,4.0489,4.0489,4.0489,4.0489,4.0489,4.0489,4.0489,4.0489,4.0428,3.9767,3.9422,3.9183,3.795,3.7795,3.808,3.6937,3.6892,3.7275,3.6488,3.6242,3.6274,3.6445,3.6492,3.6492,3.6492,3.6492,3.6492,3.6492,3.6492,3.6492,3.6492,3.6352,3.6305,3.6538,3.7013,3.7417,3.746,3.7924,3.8306,3.8306,3.8334,3.8574,3.9109,3.8767,3.8657,3.9206,3.9286,3.9286,3.9286,3.9773,4.0096,4.0096,4.0096,4.0096,4.0096,4.0096,4.0096,4.0096,4.0096,4.0096,4.0096,4.0096,4.0096,4.0096,4.0096,3.9825,3.9286,3.9232,3.892,3.8379,3.7679,3.7417,3.7358,3.6754,3.6492,3.6492,3.6492,3.6492,3.6492,3.6492,3.6492,3.6492,3.6492,3.6492,3.6492,4.432,4.4396,4.4435,4.4243,4.4358,4.4473,4.4473,4.4511,4.445,4.4273,4.4318,4.4095,4.3396,4.3356,4.3156,4.2648,4.2602,4.2479,4.2171,4.2294,4.2309,4.2171,4.2155,4.1909,4.1386,4.0816,4.0489,4.0489,4.0489,4.0489,4.0489,4.0489,4.0489,4.0489,4.0489,4.0489,4.0489,4.0489,4.0489,4.0428,3.9767,3.949,3.9302,3.7983,3.7568,3.7583,3.6784,3.6584,3.6692,3.6507,3.6414,3.6445,3.6492,3.6492,3.6492,3.6492,3.6492,3.6492,3.6492,3.6492,3.6492,3.6492,3.646,3.6569,3.7104,3.7298,3.7519,3.801,3.821,3.8306,3.8306,3.8684,3.9055,3.9179,3.9497,3.9773,3.9893,3.9901,3.9901,3.9901,4.002,4.0096,4.0096,4.0096,4.0096,4.0096,4.0096,4.0096,4.0096,4.0096,4.0096,4.0096,4.0096,4.0096,4.0096,4.0096,4.002,3.9918,3.9418,3.9109,3.8974,3.7883,3.7417,3.7358,3.6754,3.6492,3.6492,3.6492,3.6492,3.6492,3.6492,3.6492,3.6492,3.6492,3.6492,3.6492,4.5067,4.5067,4.4993,4.4534,4.4534,4.461,4.461,4.461,4.461,4.461,4.461,4.4486,4.4132,4.4086,4.3824,4.3125,4.3356,4.3279,4.2648,4.2894,4.2925,4.2617,4.2602,4.2448,4.2094,4.1401,4.0843,4.0489,4.0489,4.0489,4.0489,4.0489,4.0489,4.0489,4.0489,4.0489,4.0489,4.0489,4.0489,4.0459,4.0105,3.9967,3.9859,3.8846,3.8462,3.8323,3.7338,3.6769,3.6599,3.723,3.703,3.6553,3.6876,3.6753,3.6492,3.6492,3.6492,3.6492,3.6492,3.6492,3.6492,3.6492,3.6723,3.7013,3.7328,3.7621,3.7982,3.8601,3.8957,3.9146,3.9146,3.9418,3.9644,3.9644,3.9876,4.0096,4.0096,4.0096,4.0096,4.0096,4.0096,4.0096,4.0096,4.0096,4.0096,4.0096,4.0096,4.0096,4.0096,4.0096,4.0096,4.0096,4.0096,4.0096,4.0096,4.0096,4.0096,4.0113,3.9773,3.9644,3.9575,3.8379,3.7825,3.7767,3.6892,3.6492,3.6492,3.6492,3.6492,3.6492,3.6492,3.6492,3.6492,3.6492,3.6492,3.6492,4.602,4.5877,4.5697,4.5067,4.4858,4.4799,4.4799,4.4685,4.461,4.461,4.461,4.461,4.461,4.461,4.4394,4.3824,4.4286,4.411,4.3017,4.3448,4.3531,4.2971,4.294,4.2833,4.2602,4.2171,4.1524,4.0674,4.0551,4.0489,4.0489,4.0489,4.0489,4.0489,4.0489,4.0489,4.0489,4.0489,4.0489,4.0489,4.0489,4.0489,4.0428,3.9736,3.9447,3.9185,3.7938,3.7076,3.6676,3.7923,3.7584,3.6769,3.7323,3.72,3.6815,3.6692,3.6738,3.6815,3.6692,3.6661,3.663,3.6522,3.6952,3.7447,3.7519,3.801,3.8629,3.9216,3.9747,4.0096,4.0096,4.0096,4.0096,4.0096,4.0096,4.0096,4.0096,4.0096,4.0096,4.0096,4.0096,4.0096,4.0096,4.0096,4.0096,4.0096,4.0096,4.0096,4.0096,4.0096,4.0096,4.0096,4.0096,4.0096,4.0096,4.0096,4.0096,4.0096,4.0096,4.0096,4.0045,3.8849,3.8379,3.839,3.7282,3.68,3.68,3.6693,3.6662,3.6631,3.6554,3.6492,3.6492,3.6492,3.6492,3.6492,4.6673,4.6638,4.6604,4.6499,4.5969,4.5567,4.5567,4.4993,4.461,4.461,4.461,4.461,4.461,4.461,4.4579,4.4486,4.4564,4.4533,4.4326,4.4387,4.444,4.431,4.431,4.3771,4.2633,4.3063,4.2694,4.1447,4.0797,4.0489,4.0489,4.0489,4.0489,4.0489,4.0489,4.0489,4.0489,4.0489,4.0489,4.0489,4.0489,4.0489,4.0428,3.9736,3.9154,3.8554,3.7769,3.7076,3.6615,3.7384,3.7507,3.7384,3.7477,3.7846,3.8123,3.7538,3.7784,3.8108,3.7523,3.7353,3.723,3.663,3.6952,3.7549,3.8067,3.8629,3.9259,3.985,4.0045,4.0096,4.0096,4.0096,4.0096,4.0096,4.0096,4.0096,4.0096,4.0096,4.0096,4.0096,4.0096,4.0096,4.0096,4.0096,4.0096,4.0096,4.0096,4.0096,4.0096,4.0096,4.0096,4.0096,4.0096,4.0096,4.0096,4.0096,4.0096,4.0096,4.0096,4.0096,4.0045,3.8849,3.8574,3.9028,3.8351,3.8067,3.801,3.749,3.7268,3.7238,3.6693,3.6492,3.6492,3.6492,3.6492,3.6492,4.7489,4.7406,4.7272,4.688,4.6534,4.6198,4.5769,4.5421,4.5067,4.4648,4.4971,4.5216,4.5216,4.5216,4.5216,4.5216,4.5216,4.5216,4.5216,4.5216,4.503,4.461,4.461,4.4295,4.3725,4.3655,4.3146,4.2171,4.1463,4.0924,4.0489,4.0489,4.0489,4.0489,4.0489,4.0489,4.0489,4.0489,4.0489,4.0489,4.0489,4.0489,4.0459,4.0166,3.9628,3.9031,3.8739,3.7954,3.7277,3.8708,3.8431,3.7631,3.8385,3.8569,3.8446,3.8154,3.8277,3.8446,3.8138,3.8061,3.8,3.7692,3.8355,3.914,3.9418,4.0232,4.0882,4.0729,4.0696,4.0832,4.1264,4.1348,4.1348,4.1348,4.1348,4.1196,4.0764,4.0696,4.0544,4.0146,4.0096,4.0096,4.0096,4.0096,4.0096,4.0096,4.0096,4.0096,4.0096,4.0096,4.0096,4.0096,4.0096,4.0096,4.0096,4.0096,4.0096,4.0096,4.0096,4.0096,4.007,3.9189,3.8947,3.9179,3.8574,3.8306,3.825,3.765,3.7417,3.7328,3.6723,3.6492,3.6492,3.6492,3.6492,3.6492]}]]